<?xml version="1.0" encoding="UTF-8" standalone="no" ?>
<gpx xmlns="http://www.topografix.com/GPX/1/1" xmlns:xsi="http://www.w3.org/2001/XMLSchema-instance" xsi:schemaLocation="http://www.topografix.com/GPX/1/1 http://www.topografix.com/GPX/1/1/gpx.xsd" version="1.1" creator="VisuGPX - https://www.visugpx.com">
  <metadata>
    <name>Grenoble Trail - Bastille par Guy Pape - Entrainement Cool</name>
    <desc><![CDATA[La Bastille par Guy Pape,
des escaliers,
sous une belle Lune Gibbeuse Décroissante,
retour par le Lion & Le Serpent]]></desc>
  </metadata>
  <trk>
    <name><![CDATA[Grenoble Trail - Bastille par Guy Pape]]></name>
    <desc><![CDATA[La Bastille par Guy Pape,
des escaliers,
sous une belle Lune Gibbeuse Décroissante,
retour par le Lion & Le Serpent]]></desc>
    <trkseg>
      <trkpt lat="45.19654" lon="5.73979">
        <ele>214.19999694824</ele>
        <time>2022-01-21T04:01:29.000Z</time>
      </trkpt>
      <trkpt lat="45.19652" lon="5.73979">
        <ele>214.19999694824</ele>
        <time>2022-01-21T04:01:30.000Z</time>
      </trkpt>
      <trkpt lat="45.19651" lon="5.7398">
        <ele>214.19999694824</ele>
        <time>2022-01-21T04:01:34.000Z</time>
      </trkpt>
      <trkpt lat="45.1965" lon="5.73979">
        <ele>214.19999694824</ele>
        <time>2022-01-21T04:01:35.000Z</time>
      </trkpt>
      <trkpt lat="45.19648" lon="5.73979">
        <ele>214.19999694824</ele>
        <time>2022-01-21T04:01:36.000Z</time>
      </trkpt>
      <trkpt lat="45.19646" lon="5.73978">
        <ele>214.19999694824</ele>
        <time>2022-01-21T04:01:38.000Z</time>
      </trkpt>
      <trkpt lat="45.19642" lon="5.73978">
        <ele>214.19999694824</ele>
        <time>2022-01-21T04:01:41.000Z</time>
      </trkpt>
      <trkpt lat="45.19641" lon="5.73978">
        <ele>214.19999694824</ele>
        <time>2022-01-21T04:01:42.000Z</time>
      </trkpt>
      <trkpt lat="45.19637" lon="5.73977">
        <ele>214.19999694824</ele>
        <time>2022-01-21T04:01:45.000Z</time>
      </trkpt>
      <trkpt lat="45.19637" lon="5.73972">
        <ele>214.19999694824</ele>
        <time>2022-01-21T04:01:47.000Z</time>
      </trkpt>
      <trkpt lat="45.19637" lon="5.7397">
        <ele>214.19999694824</ele>
        <time>2022-01-21T04:01:48.000Z</time>
      </trkpt>
      <trkpt lat="45.19638" lon="5.73963">
        <ele>214.19999694824</ele>
        <time>2022-01-21T04:01:50.000Z</time>
      </trkpt>
      <trkpt lat="45.19637" lon="5.73962">
        <ele>214.19999694824</ele>
        <time>2022-01-21T04:01:51.000Z</time>
      </trkpt>
      <trkpt lat="45.19637" lon="5.73962">
        <ele>214.19999694824</ele>
        <time>2022-01-21T04:01:52.000Z</time>
      </trkpt>
      <trkpt lat="45.19631" lon="5.73963">
        <ele>213.39999389648</ele>
        <time>2022-01-21T04:01:56.000Z</time>
      </trkpt>
      <trkpt lat="45.1963" lon="5.73963">
        <ele>212.80000305176</ele>
        <time>2022-01-21T04:01:57.000Z</time>
      </trkpt>
      <trkpt lat="45.19629" lon="5.73962">
        <ele>211.80000305176</ele>
        <time>2022-01-21T04:02:00.000Z</time>
      </trkpt>
      <trkpt lat="45.19629" lon="5.73962">
        <ele>211.60000610352</ele>
        <time>2022-01-21T04:02:01.000Z</time>
      </trkpt>
      <trkpt lat="45.19627" lon="5.7396">
        <ele>210.39999389648</ele>
        <time>2022-01-21T04:02:07.000Z</time>
      </trkpt>
      <trkpt lat="45.19626" lon="5.73962">
        <ele>209.80000305176</ele>
        <time>2022-01-21T04:02:08.000Z</time>
      </trkpt>
      <trkpt lat="45.19625" lon="5.73962">
        <ele>209.60000610352</ele>
        <time>2022-01-21T04:02:09.000Z</time>
      </trkpt>
      <trkpt lat="45.19625" lon="5.73961">
        <ele>209</ele>
        <time>2022-01-21T04:02:10.000Z</time>
      </trkpt>
      <trkpt lat="45.19617" lon="5.73973">
        <ele>206.80000305176</ele>
        <time>2022-01-21T04:02:20.000Z</time>
      </trkpt>
      <trkpt lat="45.19617" lon="5.73968">
        <ele>206.19999694824</ele>
        <time>2022-01-21T04:02:21.000Z</time>
      </trkpt>
      <trkpt lat="45.19618" lon="5.73964">
        <ele>205.80000305176</ele>
        <time>2022-01-21T04:02:22.000Z</time>
      </trkpt>
      <trkpt lat="45.19628" lon="5.73969">
        <ele>206</ele>
        <time>2022-01-21T04:02:30.000Z</time>
      </trkpt>
      <trkpt lat="45.19632" lon="5.73971">
        <ele>206.19999694824</ele>
        <time>2022-01-21T04:02:32.000Z</time>
      </trkpt>
      <trkpt lat="45.19635" lon="5.73974">
        <ele>206.19999694824</ele>
        <time>2022-01-21T04:02:34.000Z</time>
      </trkpt>
      <trkpt lat="45.19637" lon="5.73974">
        <ele>206.19999694824</ele>
        <time>2022-01-21T04:02:35.000Z</time>
      </trkpt>
      <trkpt lat="45.19645" lon="5.73968">
        <ele>206.39999389648</ele>
        <time>2022-01-21T04:02:38.000Z</time>
      </trkpt>
      <trkpt lat="45.1965" lon="5.73964">
        <ele>206.39999389648</ele>
        <time>2022-01-21T04:02:40.000Z</time>
      </trkpt>
      <trkpt lat="45.19653" lon="5.73961">
        <ele>206.39999389648</ele>
        <time>2022-01-21T04:02:42.000Z</time>
      </trkpt>
      <trkpt lat="45.19657" lon="5.73958">
        <ele>206.19999694824</ele>
        <time>2022-01-21T04:02:44.000Z</time>
      </trkpt>
      <trkpt lat="45.1966" lon="5.73954">
        <ele>206</ele>
        <time>2022-01-21T04:02:46.000Z</time>
      </trkpt>
      <trkpt lat="45.19661" lon="5.73951">
        <ele>206</ele>
        <time>2022-01-21T04:02:48.000Z</time>
      </trkpt>
      <trkpt lat="45.19668" lon="5.73946">
        <ele>206.19999694824</ele>
        <time>2022-01-21T04:02:54.000Z</time>
      </trkpt>
      <trkpt lat="45.19673" lon="5.7395">
        <ele>206.19999694824</ele>
        <time>2022-01-21T04:02:57.000Z</time>
      </trkpt>
      <trkpt lat="45.19674" lon="5.73952">
        <ele>206.19999694824</ele>
        <time>2022-01-21T04:02:58.000Z</time>
      </trkpt>
      <trkpt lat="45.19675" lon="5.73957">
        <ele>206</ele>
        <time>2022-01-21T04:03:00.000Z</time>
      </trkpt>
      <trkpt lat="45.19675" lon="5.73962">
        <ele>206</ele>
        <time>2022-01-21T04:03:02.000Z</time>
      </trkpt>
      <trkpt lat="45.19676" lon="5.73967">
        <ele>206.39999389648</ele>
        <time>2022-01-21T04:03:04.000Z</time>
      </trkpt>
      <trkpt lat="45.19679" lon="5.73981">
        <ele>206.60000610352</ele>
        <time>2022-01-21T04:03:09.000Z</time>
      </trkpt>
      <trkpt lat="45.1968" lon="5.73986">
        <ele>206.39999389648</ele>
        <time>2022-01-21T04:03:11.000Z</time>
      </trkpt>
      <trkpt lat="45.19683" lon="5.73996">
        <ele>206.19999694824</ele>
        <time>2022-01-21T04:03:14.000Z</time>
      </trkpt>
      <trkpt lat="45.19686" lon="5.74014">
        <ele>206.19999694824</ele>
        <time>2022-01-21T04:03:20.000Z</time>
      </trkpt>
      <trkpt lat="45.19689" lon="5.74023">
        <ele>206.19999694824</ele>
        <time>2022-01-21T04:03:23.000Z</time>
      </trkpt>
      <trkpt lat="45.19691" lon="5.74039">
        <ele>206.60000610352</ele>
        <time>2022-01-21T04:03:29.000Z</time>
      </trkpt>
      <trkpt lat="45.19692" lon="5.74046">
        <ele>206.60000610352</ele>
        <time>2022-01-21T04:03:32.000Z</time>
      </trkpt>
      <trkpt lat="45.19697" lon="5.74065">
        <ele>206.80000305176</ele>
        <time>2022-01-21T04:03:38.000Z</time>
      </trkpt>
      <trkpt lat="45.19699" lon="5.74075">
        <ele>206.80000305176</ele>
        <time>2022-01-21T04:03:41.000Z</time>
      </trkpt>
      <trkpt lat="45.19698" lon="5.74087">
        <ele>206.80000305176</ele>
        <time>2022-01-21T04:03:45.000Z</time>
      </trkpt>
      <trkpt lat="45.19701" lon="5.74105">
        <ele>206.80000305176</ele>
        <time>2022-01-21T04:03:51.000Z</time>
      </trkpt>
      <trkpt lat="45.19707" lon="5.7412">
        <ele>206.80000305176</ele>
        <time>2022-01-21T04:03:57.000Z</time>
      </trkpt>
      <trkpt lat="45.1971" lon="5.74133">
        <ele>206.80000305176</ele>
        <time>2022-01-21T04:04:01.000Z</time>
      </trkpt>
      <trkpt lat="45.19711" lon="5.74136">
        <ele>206.80000305176</ele>
        <time>2022-01-21T04:04:02.000Z</time>
      </trkpt>
      <trkpt lat="45.19713" lon="5.74154">
        <ele>206.39999389648</ele>
        <time>2022-01-21T04:04:08.000Z</time>
      </trkpt>
      <trkpt lat="45.19715" lon="5.74165">
        <ele>206.80000305176</ele>
        <time>2022-01-21T04:04:11.000Z</time>
      </trkpt>
      <trkpt lat="45.19718" lon="5.7417">
        <ele>206.80000305176</ele>
        <time>2022-01-21T04:04:13.000Z</time>
      </trkpt>
      <trkpt lat="45.19723" lon="5.74188">
        <ele>207</ele>
        <time>2022-01-21T04:04:19.000Z</time>
      </trkpt>
      <trkpt lat="45.1973" lon="5.74207">
        <ele>207</ele>
        <time>2022-01-21T04:04:25.000Z</time>
      </trkpt>
      <trkpt lat="45.1973" lon="5.74221">
        <ele>207</ele>
        <time>2022-01-21T04:04:29.000Z</time>
      </trkpt>
      <trkpt lat="45.19728" lon="5.74223">
        <ele>207.19999694824</ele>
        <time>2022-01-21T04:04:30.000Z</time>
      </trkpt>
      <trkpt lat="45.19723" lon="5.74226">
        <ele>207.39999389648</ele>
        <time>2022-01-21T04:04:32.000Z</time>
      </trkpt>
      <trkpt lat="45.19713" lon="5.74228">
        <ele>207.39999389648</ele>
        <time>2022-01-21T04:04:35.000Z</time>
      </trkpt>
      <trkpt lat="45.19697" lon="5.74233">
        <ele>207.60000610352</ele>
        <time>2022-01-21T04:04:41.000Z</time>
      </trkpt>
      <trkpt lat="45.19689" lon="5.74234">
        <ele>207.19999694824</ele>
        <time>2022-01-21T04:04:44.000Z</time>
      </trkpt>
      <trkpt lat="45.19673" lon="5.74236">
        <ele>207.39999389648</ele>
        <time>2022-01-21T04:04:50.000Z</time>
      </trkpt>
      <trkpt lat="45.19658" lon="5.74238">
        <ele>207.60000610352</ele>
        <time>2022-01-21T04:04:55.000Z</time>
      </trkpt>
      <trkpt lat="45.19652" lon="5.74237">
        <ele>207.60000610352</ele>
        <time>2022-01-21T04:04:58.000Z</time>
      </trkpt>
      <trkpt lat="45.19634" lon="5.74236">
        <ele>207.60000610352</ele>
        <time>2022-01-21T04:05:04.000Z</time>
      </trkpt>
      <trkpt lat="45.19625" lon="5.74236">
        <ele>207.60000610352</ele>
        <time>2022-01-21T04:05:07.000Z</time>
      </trkpt>
      <trkpt lat="45.19609" lon="5.74232">
        <ele>208</ele>
        <time>2022-01-21T04:05:13.000Z</time>
      </trkpt>
      <trkpt lat="45.19607" lon="5.74231">
        <ele>208</ele>
        <time>2022-01-21T04:05:14.000Z</time>
      </trkpt>
      <trkpt lat="45.19602" lon="5.74232">
        <ele>208</ele>
        <time>2022-01-21T04:05:16.000Z</time>
      </trkpt>
      <trkpt lat="45.19594" lon="5.74232">
        <ele>208.39999389648</ele>
        <time>2022-01-21T04:05:19.000Z</time>
      </trkpt>
      <trkpt lat="45.19578" lon="5.74229">
        <ele>208.39999389648</ele>
        <time>2022-01-21T04:05:25.000Z</time>
      </trkpt>
      <trkpt lat="45.19571" lon="5.74227">
        <ele>208.39999389648</ele>
        <time>2022-01-21T04:05:28.000Z</time>
      </trkpt>
      <trkpt lat="45.19558" lon="5.74228">
        <ele>208.19999694824</ele>
        <time>2022-01-21T04:05:33.000Z</time>
      </trkpt>
      <trkpt lat="45.19541" lon="5.74227">
        <ele>208.19999694824</ele>
        <time>2022-01-21T04:05:39.000Z</time>
      </trkpt>
      <trkpt lat="45.19535" lon="5.74225">
        <ele>208.39999389648</ele>
        <time>2022-01-21T04:05:41.000Z</time>
      </trkpt>
      <trkpt lat="45.1953" lon="5.74224">
        <ele>208.39999389648</ele>
        <time>2022-01-21T04:05:43.000Z</time>
      </trkpt>
      <trkpt lat="45.19518" lon="5.74221">
        <ele>208.60000610352</ele>
        <time>2022-01-21T04:05:48.000Z</time>
      </trkpt>
      <trkpt lat="45.19503" lon="5.74214">
        <ele>209.19999694824</ele>
        <time>2022-01-21T04:05:54.000Z</time>
      </trkpt>
      <trkpt lat="45.19501" lon="5.74213">
        <ele>209.19999694824</ele>
        <time>2022-01-21T04:05:55.000Z</time>
      </trkpt>
      <trkpt lat="45.19488" lon="5.74207">
        <ele>209.60000610352</ele>
        <time>2022-01-21T04:06:00.000Z</time>
      </trkpt>
      <trkpt lat="45.19482" lon="5.74206">
        <ele>210</ele>
        <time>2022-01-21T04:06:03.000Z</time>
      </trkpt>
      <trkpt lat="45.19481" lon="5.74205">
        <ele>210</ele>
        <time>2022-01-21T04:06:04.000Z</time>
      </trkpt>
      <trkpt lat="45.19476" lon="5.74201">
        <ele>210.39999389648</ele>
        <time>2022-01-21T04:06:06.000Z</time>
      </trkpt>
      <trkpt lat="45.19461" lon="5.74196">
        <ele>210.60000610352</ele>
        <time>2022-01-21T04:06:12.000Z</time>
      </trkpt>
      <trkpt lat="45.19448" lon="5.74191">
        <ele>210.80000305176</ele>
        <time>2022-01-21T04:06:18.000Z</time>
      </trkpt>
      <trkpt lat="45.19444" lon="5.74188">
        <ele>210.80000305176</ele>
        <time>2022-01-21T04:06:21.000Z</time>
      </trkpt>
      <trkpt lat="45.19429" lon="5.74186">
        <ele>210.80000305176</ele>
        <time>2022-01-21T04:06:27.000Z</time>
      </trkpt>
      <trkpt lat="45.19423" lon="5.74186">
        <ele>210.80000305176</ele>
        <time>2022-01-21T04:06:29.000Z</time>
      </trkpt>
      <trkpt lat="45.19407" lon="5.74181">
        <ele>210.80000305176</ele>
        <time>2022-01-21T04:06:35.000Z</time>
      </trkpt>
      <trkpt lat="45.19404" lon="5.7418">
        <ele>210.80000305176</ele>
        <time>2022-01-21T04:06:36.000Z</time>
      </trkpt>
      <trkpt lat="45.19391" lon="5.74175">
        <ele>210.80000305176</ele>
        <time>2022-01-21T04:06:42.000Z</time>
      </trkpt>
      <trkpt lat="45.19388" lon="5.74174">
        <ele>210.80000305176</ele>
        <time>2022-01-21T04:06:43.000Z</time>
      </trkpt>
      <trkpt lat="45.19373" lon="5.7417">
        <ele>210.80000305176</ele>
        <time>2022-01-21T04:06:49.000Z</time>
      </trkpt>
      <trkpt lat="45.19368" lon="5.74169">
        <ele>210.60000610352</ele>
        <time>2022-01-21T04:06:51.000Z</time>
      </trkpt>
      <trkpt lat="45.19361" lon="5.74167">
        <ele>210.60000610352</ele>
        <time>2022-01-21T04:06:55.000Z</time>
      </trkpt>
      <trkpt lat="45.19356" lon="5.74165">
        <ele>210.60000610352</ele>
        <time>2022-01-21T04:06:58.000Z</time>
      </trkpt>
      <trkpt lat="45.19343" lon="5.74162">
        <ele>210.39999389648</ele>
        <time>2022-01-21T04:07:04.000Z</time>
      </trkpt>
      <trkpt lat="45.19341" lon="5.74163">
        <ele>210.39999389648</ele>
        <time>2022-01-21T04:07:05.000Z</time>
      </trkpt>
      <trkpt lat="45.19327" lon="5.7416">
        <ele>210.60000610352</ele>
        <time>2022-01-21T04:07:11.000Z</time>
      </trkpt>
      <trkpt lat="45.19325" lon="5.7416">
        <ele>210.60000610352</ele>
        <time>2022-01-21T04:07:12.000Z</time>
      </trkpt>
      <trkpt lat="45.19309" lon="5.74159">
        <ele>210.39999389648</ele>
        <time>2022-01-21T04:07:18.000Z</time>
      </trkpt>
      <trkpt lat="45.19304" lon="5.74157">
        <ele>210.39999389648</ele>
        <time>2022-01-21T04:07:20.000Z</time>
      </trkpt>
      <trkpt lat="45.19289" lon="5.74153">
        <ele>210.60000610352</ele>
        <time>2022-01-21T04:07:26.000Z</time>
      </trkpt>
      <trkpt lat="45.19285" lon="5.74153">
        <ele>210.39999389648</ele>
        <time>2022-01-21T04:07:28.000Z</time>
      </trkpt>
      <trkpt lat="45.19283" lon="5.74152">
        <ele>210.39999389648</ele>
        <time>2022-01-21T04:07:29.000Z</time>
      </trkpt>
      <trkpt lat="45.19271" lon="5.7415">
        <ele>210.39999389648</ele>
        <time>2022-01-21T04:07:34.000Z</time>
      </trkpt>
      <trkpt lat="45.19261" lon="5.74147">
        <ele>210.39999389648</ele>
        <time>2022-01-21T04:07:38.000Z</time>
      </trkpt>
      <trkpt lat="45.19256" lon="5.74145">
        <ele>210.60000610352</ele>
        <time>2022-01-21T04:07:40.000Z</time>
      </trkpt>
      <trkpt lat="45.19251" lon="5.74143">
        <ele>210.60000610352</ele>
        <time>2022-01-21T04:07:42.000Z</time>
      </trkpt>
      <trkpt lat="45.19244" lon="5.74141">
        <ele>210.60000610352</ele>
        <time>2022-01-21T04:07:45.000Z</time>
      </trkpt>
      <trkpt lat="45.19229" lon="5.7414">
        <ele>210.39999389648</ele>
        <time>2022-01-21T04:07:51.000Z</time>
      </trkpt>
      <trkpt lat="45.19223" lon="5.7414">
        <ele>210.39999389648</ele>
        <time>2022-01-21T04:07:53.000Z</time>
      </trkpt>
      <trkpt lat="45.19216" lon="5.7414">
        <ele>210.60000610352</ele>
        <time>2022-01-21T04:07:55.000Z</time>
      </trkpt>
      <trkpt lat="45.19199" lon="5.74136">
        <ele>210.60000610352</ele>
        <time>2022-01-21T04:08:01.000Z</time>
      </trkpt>
      <trkpt lat="45.19196" lon="5.74136">
        <ele>210.60000610352</ele>
        <time>2022-01-21T04:08:02.000Z</time>
      </trkpt>
      <trkpt lat="45.19194" lon="5.74136">
        <ele>210.60000610352</ele>
        <time>2022-01-21T04:08:03.000Z</time>
      </trkpt>
      <trkpt lat="45.19185" lon="5.74135">
        <ele>210</ele>
        <time>2022-01-21T04:08:08.000Z</time>
      </trkpt>
      <trkpt lat="45.19184" lon="5.74134">
        <ele>209.60000610352</ele>
        <time>2022-01-21T04:08:09.000Z</time>
      </trkpt>
      <trkpt lat="45.19183" lon="5.74133">
        <ele>209.60000610352</ele>
        <time>2022-01-21T04:08:10.000Z</time>
      </trkpt>
      <trkpt lat="45.19179" lon="5.74134">
        <ele>209.19999694824</ele>
        <time>2022-01-21T04:08:12.000Z</time>
      </trkpt>
      <trkpt lat="45.19178" lon="5.74133">
        <ele>209</ele>
        <time>2022-01-21T04:08:13.000Z</time>
      </trkpt>
      <trkpt lat="45.19175" lon="5.74133">
        <ele>208.60000610352</ele>
        <time>2022-01-21T04:08:15.000Z</time>
      </trkpt>
      <trkpt lat="45.1917" lon="5.74135">
        <ele>208.60000610352</ele>
        <time>2022-01-21T04:08:17.000Z</time>
      </trkpt>
      <trkpt lat="45.19164" lon="5.74139">
        <ele>208.60000610352</ele>
        <time>2022-01-21T04:08:19.000Z</time>
      </trkpt>
      <trkpt lat="45.19157" lon="5.74139">
        <ele>209</ele>
        <time>2022-01-21T04:08:22.000Z</time>
      </trkpt>
      <trkpt lat="45.19152" lon="5.74136">
        <ele>209.60000610352</ele>
        <time>2022-01-21T04:08:25.000Z</time>
      </trkpt>
      <trkpt lat="45.19145" lon="5.74137">
        <ele>210</ele>
        <time>2022-01-21T04:08:28.000Z</time>
      </trkpt>
      <trkpt lat="45.19141" lon="5.74138">
        <ele>210</ele>
        <time>2022-01-21T04:08:30.000Z</time>
      </trkpt>
      <trkpt lat="45.19135" lon="5.74139">
        <ele>210.39999389648</ele>
        <time>2022-01-21T04:08:32.000Z</time>
      </trkpt>
      <trkpt lat="45.19125" lon="5.74142">
        <ele>210.39999389648</ele>
        <time>2022-01-21T04:08:35.000Z</time>
      </trkpt>
      <trkpt lat="45.19121" lon="5.74142">
        <ele>210.80000305176</ele>
        <time>2022-01-21T04:08:37.000Z</time>
      </trkpt>
      <trkpt lat="45.19109" lon="5.74146">
        <ele>210.80000305176</ele>
        <time>2022-01-21T04:08:41.000Z</time>
      </trkpt>
      <trkpt lat="45.19101" lon="5.74149">
        <ele>211</ele>
        <time>2022-01-21T04:08:45.000Z</time>
      </trkpt>
      <trkpt lat="45.19099" lon="5.74148">
        <ele>211</ele>
        <time>2022-01-21T04:08:46.000Z</time>
      </trkpt>
      <trkpt lat="45.19095" lon="5.74147">
        <ele>211</ele>
        <time>2022-01-21T04:08:49.000Z</time>
      </trkpt>
      <trkpt lat="45.1909" lon="5.74148">
        <ele>211</ele>
        <time>2022-01-21T04:08:52.000Z</time>
      </trkpt>
      <trkpt lat="45.19083" lon="5.74144">
        <ele>210.60000610352</ele>
        <time>2022-01-21T04:08:58.000Z</time>
      </trkpt>
      <trkpt lat="45.19091" lon="5.74136">
        <ele>210.80000305176</ele>
        <time>2022-01-21T04:09:04.000Z</time>
      </trkpt>
      <trkpt lat="45.191" lon="5.74132">
        <ele>210.80000305176</ele>
        <time>2022-01-21T04:09:10.000Z</time>
      </trkpt>
      <trkpt lat="45.19113" lon="5.74123">
        <ele>210.60000610352</ele>
        <time>2022-01-21T04:09:16.000Z</time>
      </trkpt>
      <trkpt lat="45.19115" lon="5.74122">
        <ele>210.60000610352</ele>
        <time>2022-01-21T04:09:17.000Z</time>
      </trkpt>
      <trkpt lat="45.19126" lon="5.74118">
        <ele>210.19999694824</ele>
        <time>2022-01-21T04:09:23.000Z</time>
      </trkpt>
      <trkpt lat="45.19133" lon="5.74116">
        <ele>210</ele>
        <time>2022-01-21T04:09:26.000Z</time>
      </trkpt>
      <trkpt lat="45.19135" lon="5.74116">
        <ele>209.39999389648</ele>
        <time>2022-01-21T04:09:27.000Z</time>
      </trkpt>
      <trkpt lat="45.19148" lon="5.74117">
        <ele>208.80000305176</ele>
        <time>2022-01-21T04:09:33.000Z</time>
      </trkpt>
      <trkpt lat="45.19152" lon="5.74118">
        <ele>209</ele>
        <time>2022-01-21T04:09:36.000Z</time>
      </trkpt>
      <trkpt lat="45.19172" lon="5.74115">
        <ele>209.39999389648</ele>
        <time>2022-01-21T04:09:42.000Z</time>
      </trkpt>
      <trkpt lat="45.1918" lon="5.74115">
        <ele>210.39999389648</ele>
        <time>2022-01-21T04:09:45.000Z</time>
      </trkpt>
      <trkpt lat="45.19188" lon="5.74118">
        <ele>211</ele>
        <time>2022-01-21T04:09:48.000Z</time>
      </trkpt>
      <trkpt lat="45.19194" lon="5.74118">
        <ele>211</ele>
        <time>2022-01-21T04:09:50.000Z</time>
      </trkpt>
      <trkpt lat="45.192" lon="5.74116">
        <ele>210.80000305176</ele>
        <time>2022-01-21T04:09:52.000Z</time>
      </trkpt>
      <trkpt lat="45.19202" lon="5.74114">
        <ele>210.60000610352</ele>
        <time>2022-01-21T04:09:53.000Z</time>
      </trkpt>
      <trkpt lat="45.19207" lon="5.74115">
        <ele>210.60000610352</ele>
        <time>2022-01-21T04:09:55.000Z</time>
      </trkpt>
      <trkpt lat="45.19212" lon="5.74122">
        <ele>210.60000610352</ele>
        <time>2022-01-21T04:09:58.000Z</time>
      </trkpt>
      <trkpt lat="45.19229" lon="5.74124">
        <ele>210.39999389648</ele>
        <time>2022-01-21T04:10:04.000Z</time>
      </trkpt>
      <trkpt lat="45.19247" lon="5.74123">
        <ele>210.80000305176</ele>
        <time>2022-01-21T04:10:10.000Z</time>
      </trkpt>
      <trkpt lat="45.1925" lon="5.74122">
        <ele>210.80000305176</ele>
        <time>2022-01-21T04:10:11.000Z</time>
      </trkpt>
      <trkpt lat="45.19267" lon="5.74126">
        <ele>210.60000610352</ele>
        <time>2022-01-21T04:10:17.000Z</time>
      </trkpt>
      <trkpt lat="45.1927" lon="5.74126">
        <ele>210.80000305176</ele>
        <time>2022-01-21T04:10:18.000Z</time>
      </trkpt>
      <trkpt lat="45.19286" lon="5.74124">
        <ele>210.39999389648</ele>
        <time>2022-01-21T04:10:24.000Z</time>
      </trkpt>
      <trkpt lat="45.19296" lon="5.74124">
        <ele>210.39999389648</ele>
        <time>2022-01-21T04:10:28.000Z</time>
      </trkpt>
      <trkpt lat="45.19312" lon="5.74129">
        <ele>211</ele>
        <time>2022-01-21T04:10:34.000Z</time>
      </trkpt>
      <trkpt lat="45.19318" lon="5.74131">
        <ele>210.60000610352</ele>
        <time>2022-01-21T04:10:36.000Z</time>
      </trkpt>
      <trkpt lat="45.19332" lon="5.74137">
        <ele>210.60000610352</ele>
        <time>2022-01-21T04:10:42.000Z</time>
      </trkpt>
      <trkpt lat="45.19342" lon="5.7414">
        <ele>210.39999389648</ele>
        <time>2022-01-21T04:10:46.000Z</time>
      </trkpt>
      <trkpt lat="45.19357" lon="5.74145">
        <ele>210.19999694824</ele>
        <time>2022-01-21T04:10:52.000Z</time>
      </trkpt>
      <trkpt lat="45.19359" lon="5.74146">
        <ele>210.39999389648</ele>
        <time>2022-01-21T04:10:53.000Z</time>
      </trkpt>
      <trkpt lat="45.19374" lon="5.74149">
        <ele>210.19999694824</ele>
        <time>2022-01-21T04:10:59.000Z</time>
      </trkpt>
      <trkpt lat="45.1938" lon="5.74151">
        <ele>210.19999694824</ele>
        <time>2022-01-21T04:11:01.000Z</time>
      </trkpt>
      <trkpt lat="45.19395" lon="5.74155">
        <ele>210.60000610352</ele>
        <time>2022-01-21T04:11:07.000Z</time>
      </trkpt>
      <trkpt lat="45.19398" lon="5.74156">
        <ele>211.19999694824</ele>
        <time>2022-01-21T04:11:08.000Z</time>
      </trkpt>
      <trkpt lat="45.19413" lon="5.74163">
        <ele>211.19999694824</ele>
        <time>2022-01-21T04:11:14.000Z</time>
      </trkpt>
      <trkpt lat="45.19419" lon="5.74164">
        <ele>211.19999694824</ele>
        <time>2022-01-21T04:11:16.000Z</time>
      </trkpt>
      <trkpt lat="45.19434" lon="5.74167">
        <ele>211.19999694824</ele>
        <time>2022-01-21T04:11:22.000Z</time>
      </trkpt>
      <trkpt lat="45.1945" lon="5.74169">
        <ele>210.80000305176</ele>
        <time>2022-01-21T04:11:28.000Z</time>
      </trkpt>
      <trkpt lat="45.19466" lon="5.74176">
        <ele>211</ele>
        <time>2022-01-21T04:11:34.000Z</time>
      </trkpt>
      <trkpt lat="45.19474" lon="5.74177">
        <ele>211</ele>
        <time>2022-01-21T04:11:37.000Z</time>
      </trkpt>
      <trkpt lat="45.1949" lon="5.74182">
        <ele>209.60000610352</ele>
        <time>2022-01-21T04:11:43.000Z</time>
      </trkpt>
      <trkpt lat="45.19493" lon="5.74183">
        <ele>209.39999389648</ele>
        <time>2022-01-21T04:11:44.000Z</time>
      </trkpt>
      <trkpt lat="45.19501" lon="5.74186">
        <ele>209.19999694824</ele>
        <time>2022-01-21T04:11:47.000Z</time>
      </trkpt>
      <trkpt lat="45.19509" lon="5.7419">
        <ele>209</ele>
        <time>2022-01-21T04:11:50.000Z</time>
      </trkpt>
      <trkpt lat="45.19524" lon="5.74199">
        <ele>208.80000305176</ele>
        <time>2022-01-21T04:11:56.000Z</time>
      </trkpt>
      <trkpt lat="45.19527" lon="5.742">
        <ele>208.60000610352</ele>
        <time>2022-01-21T04:11:57.000Z</time>
      </trkpt>
      <trkpt lat="45.19543" lon="5.74208">
        <ele>208.80000305176</ele>
        <time>2022-01-21T04:12:03.000Z</time>
      </trkpt>
      <trkpt lat="45.19549" lon="5.7421">
        <ele>208.80000305176</ele>
        <time>2022-01-21T04:12:05.000Z</time>
      </trkpt>
      <trkpt lat="45.19564" lon="5.74212">
        <ele>208.60000610352</ele>
        <time>2022-01-21T04:12:11.000Z</time>
      </trkpt>
      <trkpt lat="45.19569" lon="5.74213">
        <ele>208.60000610352</ele>
        <time>2022-01-21T04:12:13.000Z</time>
      </trkpt>
      <trkpt lat="45.19586" lon="5.74217">
        <ele>208.39999389648</ele>
        <time>2022-01-21T04:12:19.000Z</time>
      </trkpt>
      <trkpt lat="45.19588" lon="5.74218">
        <ele>208.39999389648</ele>
        <time>2022-01-21T04:12:20.000Z</time>
      </trkpt>
      <trkpt lat="45.19603" lon="5.74222">
        <ele>208.39999389648</ele>
        <time>2022-01-21T04:12:26.000Z</time>
      </trkpt>
      <trkpt lat="45.19606" lon="5.74222">
        <ele>208.19999694824</ele>
        <time>2022-01-21T04:12:27.000Z</time>
      </trkpt>
      <trkpt lat="45.19621" lon="5.74224">
        <ele>208.39999389648</ele>
        <time>2022-01-21T04:12:33.000Z</time>
      </trkpt>
      <trkpt lat="45.19627" lon="5.74225">
        <ele>207.60000610352</ele>
        <time>2022-01-21T04:12:35.000Z</time>
      </trkpt>
      <trkpt lat="45.19635" lon="5.74226">
        <ele>207.60000610352</ele>
        <time>2022-01-21T04:12:38.000Z</time>
      </trkpt>
      <trkpt lat="45.19639" lon="5.74226">
        <ele>207.60000610352</ele>
        <time>2022-01-21T04:12:40.000Z</time>
      </trkpt>
      <trkpt lat="45.19642" lon="5.74227">
        <ele>207.39999389648</ele>
        <time>2022-01-21T04:12:41.000Z</time>
      </trkpt>
      <trkpt lat="45.19649" lon="5.74227">
        <ele>207.39999389648</ele>
        <time>2022-01-21T04:12:44.000Z</time>
      </trkpt>
      <trkpt lat="45.19664" lon="5.7423">
        <ele>207.60000610352</ele>
        <time>2022-01-21T04:12:50.000Z</time>
      </trkpt>
      <trkpt lat="45.19666" lon="5.7423">
        <ele>207.60000610352</ele>
        <time>2022-01-21T04:12:51.000Z</time>
      </trkpt>
      <trkpt lat="45.19682" lon="5.7423">
        <ele>208</ele>
        <time>2022-01-21T04:12:57.000Z</time>
      </trkpt>
      <trkpt lat="45.19692" lon="5.7423">
        <ele>207.19999694824</ele>
        <time>2022-01-21T04:13:01.000Z</time>
      </trkpt>
      <trkpt lat="45.19707" lon="5.7423">
        <ele>207.39999389648</ele>
        <time>2022-01-21T04:13:07.000Z</time>
      </trkpt>
      <trkpt lat="45.1971" lon="5.7423">
        <ele>207.39999389648</ele>
        <time>2022-01-21T04:13:08.000Z</time>
      </trkpt>
      <trkpt lat="45.19725" lon="5.74229">
        <ele>207.60000610352</ele>
        <time>2022-01-21T04:13:14.000Z</time>
      </trkpt>
      <trkpt lat="45.19728" lon="5.74229">
        <ele>207.60000610352</ele>
        <time>2022-01-21T04:13:15.000Z</time>
      </trkpt>
      <trkpt lat="45.19743" lon="5.74228">
        <ele>207.19999694824</ele>
        <time>2022-01-21T04:13:21.000Z</time>
      </trkpt>
      <trkpt lat="45.19751" lon="5.74228">
        <ele>207.39999389648</ele>
        <time>2022-01-21T04:13:24.000Z</time>
      </trkpt>
      <trkpt lat="45.19766" lon="5.74228">
        <ele>207.60000610352</ele>
        <time>2022-01-21T04:13:30.000Z</time>
      </trkpt>
      <trkpt lat="45.19774" lon="5.74228">
        <ele>207.60000610352</ele>
        <time>2022-01-21T04:13:33.000Z</time>
      </trkpt>
      <trkpt lat="45.19784" lon="5.74229">
        <ele>207.39999389648</ele>
        <time>2022-01-21T04:13:39.000Z</time>
      </trkpt>
      <trkpt lat="45.19787" lon="5.74229">
        <ele>207.39999389648</ele>
        <time>2022-01-21T04:13:41.000Z</time>
      </trkpt>
      <trkpt lat="45.19802" lon="5.74221">
        <ele>207.19999694824</ele>
        <time>2022-01-21T04:13:47.000Z</time>
      </trkpt>
      <trkpt lat="45.19808" lon="5.74218">
        <ele>207.39999389648</ele>
        <time>2022-01-21T04:13:49.000Z</time>
      </trkpt>
      <trkpt lat="45.19818" lon="5.74213">
        <ele>207.39999389648</ele>
        <time>2022-01-21T04:13:54.000Z</time>
      </trkpt>
      <trkpt lat="45.19832" lon="5.74208">
        <ele>207.39999389648</ele>
        <time>2022-01-21T04:14:00.000Z</time>
      </trkpt>
      <trkpt lat="45.1985" lon="5.742">
        <ele>207.60000610352</ele>
        <time>2022-01-21T04:14:06.000Z</time>
      </trkpt>
      <trkpt lat="45.19858" lon="5.74197">
        <ele>207.60000610352</ele>
        <time>2022-01-21T04:14:09.000Z</time>
      </trkpt>
      <trkpt lat="45.19876" lon="5.7419">
        <ele>207.80000305176</ele>
        <time>2022-01-21T04:14:15.000Z</time>
      </trkpt>
      <trkpt lat="45.19891" lon="5.74184">
        <ele>207.80000305176</ele>
        <time>2022-01-21T04:14:21.000Z</time>
      </trkpt>
      <trkpt lat="45.19896" lon="5.74183">
        <ele>207.80000305176</ele>
        <time>2022-01-21T04:14:23.000Z</time>
      </trkpt>
      <trkpt lat="45.19907" lon="5.74177">
        <ele>207.80000305176</ele>
        <time>2022-01-21T04:14:27.000Z</time>
      </trkpt>
      <trkpt lat="45.19919" lon="5.7417">
        <ele>207.80000305176</ele>
        <time>2022-01-21T04:14:32.000Z</time>
      </trkpt>
      <trkpt lat="45.19933" lon="5.74162">
        <ele>208.19999694824</ele>
        <time>2022-01-21T04:14:38.000Z</time>
      </trkpt>
      <trkpt lat="45.19935" lon="5.74161">
        <ele>208.19999694824</ele>
        <time>2022-01-21T04:14:39.000Z</time>
      </trkpt>
      <trkpt lat="45.1995" lon="5.74152">
        <ele>208</ele>
        <time>2022-01-21T04:14:45.000Z</time>
      </trkpt>
      <trkpt lat="45.19955" lon="5.74148">
        <ele>208</ele>
        <time>2022-01-21T04:14:47.000Z</time>
      </trkpt>
      <trkpt lat="45.19968" lon="5.74134">
        <ele>208</ele>
        <time>2022-01-21T04:14:53.000Z</time>
      </trkpt>
      <trkpt lat="45.1997" lon="5.74131">
        <ele>208</ele>
        <time>2022-01-21T04:14:54.000Z</time>
      </trkpt>
      <trkpt lat="45.19977" lon="5.74124">
        <ele>208.19999694824</ele>
        <time>2022-01-21T04:14:57.000Z</time>
      </trkpt>
      <trkpt lat="45.19982" lon="5.74122">
        <ele>208.19999694824</ele>
        <time>2022-01-21T04:14:59.000Z</time>
      </trkpt>
      <trkpt lat="45.19994" lon="5.74109">
        <ele>207.19999694824</ele>
        <time>2022-01-21T04:15:05.000Z</time>
      </trkpt>
      <trkpt lat="45.2" lon="5.74101">
        <ele>206</ele>
        <time>2022-01-21T04:15:08.000Z</time>
      </trkpt>
      <trkpt lat="45.20006" lon="5.74095">
        <ele>205.80000305176</ele>
        <time>2022-01-21T04:15:11.000Z</time>
      </trkpt>
      <trkpt lat="45.20018" lon="5.74083">
        <ele>205.60000610352</ele>
        <time>2022-01-21T04:15:16.000Z</time>
      </trkpt>
      <trkpt lat="45.20022" lon="5.74083">
        <ele>205.60000610352</ele>
        <time>2022-01-21T04:15:18.000Z</time>
      </trkpt>
      <trkpt lat="45.20027" lon="5.74081">
        <ele>205.39999389648</ele>
        <time>2022-01-21T04:15:22.000Z</time>
      </trkpt>
      <trkpt lat="45.20031" lon="5.74075">
        <ele>205.19999694824</ele>
        <time>2022-01-21T04:15:25.000Z</time>
      </trkpt>
      <trkpt lat="45.20034" lon="5.7407">
        <ele>205.19999694824</ele>
        <time>2022-01-21T04:15:28.000Z</time>
      </trkpt>
      <trkpt lat="45.20035" lon="5.74067">
        <ele>205.80000305176</ele>
        <time>2022-01-21T04:15:30.000Z</time>
      </trkpt>
      <trkpt lat="45.20039" lon="5.7406">
        <ele>206.60000610352</ele>
        <time>2022-01-21T04:15:33.000Z</time>
      </trkpt>
      <trkpt lat="45.20044" lon="5.74054">
        <ele>207.19999694824</ele>
        <time>2022-01-21T04:15:37.000Z</time>
      </trkpt>
      <trkpt lat="45.20052" lon="5.74036">
        <ele>208</ele>
        <time>2022-01-21T04:15:43.000Z</time>
      </trkpt>
      <trkpt lat="45.20064" lon="5.74016">
        <ele>207.80000305176</ele>
        <time>2022-01-21T04:15:49.000Z</time>
      </trkpt>
      <trkpt lat="45.20067" lon="5.74014">
        <ele>207.39999389648</ele>
        <time>2022-01-21T04:15:50.000Z</time>
      </trkpt>
      <trkpt lat="45.20083" lon="5.74001">
        <ele>207.19999694824</ele>
        <time>2022-01-21T04:15:56.000Z</time>
      </trkpt>
      <trkpt lat="45.20085" lon="5.73999">
        <ele>207.19999694824</ele>
        <time>2022-01-21T04:15:57.000Z</time>
      </trkpt>
      <trkpt lat="45.20097" lon="5.73981">
        <ele>207</ele>
        <time>2022-01-21T04:16:03.000Z</time>
      </trkpt>
      <trkpt lat="45.20099" lon="5.73978">
        <ele>207</ele>
        <time>2022-01-21T04:16:04.000Z</time>
      </trkpt>
      <trkpt lat="45.20111" lon="5.7396">
        <ele>206.80000305176</ele>
        <time>2022-01-21T04:16:10.000Z</time>
      </trkpt>
      <trkpt lat="45.20115" lon="5.73954">
        <ele>206.80000305176</ele>
        <time>2022-01-21T04:16:12.000Z</time>
      </trkpt>
      <trkpt lat="45.20127" lon="5.73936">
        <ele>206.80000305176</ele>
        <time>2022-01-21T04:16:18.000Z</time>
      </trkpt>
      <trkpt lat="45.20137" lon="5.7392">
        <ele>207.39999389648</ele>
        <time>2022-01-21T04:16:24.000Z</time>
      </trkpt>
      <trkpt lat="45.20148" lon="5.73901">
        <ele>207.60000610352</ele>
        <time>2022-01-21T04:16:30.000Z</time>
      </trkpt>
      <trkpt lat="45.20154" lon="5.73889">
        <ele>207.39999389648</ele>
        <time>2022-01-21T04:16:34.000Z</time>
      </trkpt>
      <trkpt lat="45.20163" lon="5.7387">
        <ele>207.19999694824</ele>
        <time>2022-01-21T04:16:40.000Z</time>
      </trkpt>
      <trkpt lat="45.20167" lon="5.7386">
        <ele>207.19999694824</ele>
        <time>2022-01-21T04:16:43.000Z</time>
      </trkpt>
      <trkpt lat="45.20174" lon="5.73839">
        <ele>207</ele>
        <time>2022-01-21T04:16:49.000Z</time>
      </trkpt>
      <trkpt lat="45.20174" lon="5.73835">
        <ele>207</ele>
        <time>2022-01-21T04:16:50.000Z</time>
      </trkpt>
      <trkpt lat="45.20176" lon="5.73813">
        <ele>206.80000305176</ele>
        <time>2022-01-21T04:16:56.000Z</time>
      </trkpt>
      <trkpt lat="45.20176" lon="5.7381">
        <ele>206.80000305176</ele>
        <time>2022-01-21T04:16:57.000Z</time>
      </trkpt>
      <trkpt lat="45.20176" lon="5.73799">
        <ele>206.80000305176</ele>
        <time>2022-01-21T04:17:00.000Z</time>
      </trkpt>
      <trkpt lat="45.20176" lon="5.73776">
        <ele>207.19999694824</ele>
        <time>2022-01-21T04:17:06.000Z</time>
      </trkpt>
      <trkpt lat="45.20176" lon="5.73772">
        <ele>207.19999694824</ele>
        <time>2022-01-21T04:17:07.000Z</time>
      </trkpt>
      <trkpt lat="45.20174" lon="5.73751">
        <ele>207.19999694824</ele>
        <time>2022-01-21T04:17:13.000Z</time>
      </trkpt>
      <trkpt lat="45.20173" lon="5.73748">
        <ele>206.80000305176</ele>
        <time>2022-01-21T04:17:14.000Z</time>
      </trkpt>
      <trkpt lat="45.20171" lon="5.73726">
        <ele>207.39999389648</ele>
        <time>2022-01-21T04:17:20.000Z</time>
      </trkpt>
      <trkpt lat="45.2017" lon="5.73722">
        <ele>207.39999389648</ele>
        <time>2022-01-21T04:17:21.000Z</time>
      </trkpt>
      <trkpt lat="45.20166" lon="5.737">
        <ele>207.60000610352</ele>
        <time>2022-01-21T04:17:27.000Z</time>
      </trkpt>
      <trkpt lat="45.20164" lon="5.73693">
        <ele>207.39999389648</ele>
        <time>2022-01-21T04:17:29.000Z</time>
      </trkpt>
      <trkpt lat="45.20163" lon="5.73686">
        <ele>207.39999389648</ele>
        <time>2022-01-21T04:17:31.000Z</time>
      </trkpt>
      <trkpt lat="45.20161" lon="5.73679">
        <ele>207.39999389648</ele>
        <time>2022-01-21T04:17:33.000Z</time>
      </trkpt>
      <trkpt lat="45.20157" lon="5.73656">
        <ele>207.39999389648</ele>
        <time>2022-01-21T04:17:39.000Z</time>
      </trkpt>
      <trkpt lat="45.20156" lon="5.73652">
        <ele>207.39999389648</ele>
        <time>2022-01-21T04:17:40.000Z</time>
      </trkpt>
      <trkpt lat="45.20147" lon="5.73631">
        <ele>207.39999389648</ele>
        <time>2022-01-21T04:17:46.000Z</time>
      </trkpt>
      <trkpt lat="45.20139" lon="5.73613">
        <ele>207.80000305176</ele>
        <time>2022-01-21T04:17:52.000Z</time>
      </trkpt>
      <trkpt lat="45.20134" lon="5.73604">
        <ele>207.80000305176</ele>
        <time>2022-01-21T04:17:55.000Z</time>
      </trkpt>
      <trkpt lat="45.20127" lon="5.73587">
        <ele>207.60000610352</ele>
        <time>2022-01-21T04:18:01.000Z</time>
      </trkpt>
      <trkpt lat="45.20113" lon="5.73573">
        <ele>207.60000610352</ele>
        <time>2022-01-21T04:18:07.000Z</time>
      </trkpt>
      <trkpt lat="45.20104" lon="5.73562">
        <ele>207.39999389648</ele>
        <time>2022-01-21T04:18:11.000Z</time>
      </trkpt>
      <trkpt lat="45.20092" lon="5.73548">
        <ele>207.60000610352</ele>
        <time>2022-01-21T04:18:17.000Z</time>
      </trkpt>
      <trkpt lat="45.20089" lon="5.73544">
        <ele>207.60000610352</ele>
        <time>2022-01-21T04:18:18.000Z</time>
      </trkpt>
      <trkpt lat="45.20079" lon="5.73526">
        <ele>207.39999389648</ele>
        <time>2022-01-21T04:18:24.000Z</time>
      </trkpt>
      <trkpt lat="45.20077" lon="5.73523">
        <ele>207.39999389648</ele>
        <time>2022-01-21T04:18:25.000Z</time>
      </trkpt>
      <trkpt lat="45.20071" lon="5.73514">
        <ele>207.60000610352</ele>
        <time>2022-01-21T04:18:29.000Z</time>
      </trkpt>
      <trkpt lat="45.20068" lon="5.73513">
        <ele>207.60000610352</ele>
        <time>2022-01-21T04:18:30.000Z</time>
      </trkpt>
      <trkpt lat="45.20062" lon="5.7351">
        <ele>207.60000610352</ele>
        <time>2022-01-21T04:18:32.000Z</time>
      </trkpt>
      <trkpt lat="45.20047" lon="5.73504">
        <ele>207.60000610352</ele>
        <time>2022-01-21T04:18:37.000Z</time>
      </trkpt>
      <trkpt lat="45.20046" lon="5.73502">
        <ele>207.39999389648</ele>
        <time>2022-01-21T04:18:38.000Z</time>
      </trkpt>
      <trkpt lat="45.20046" lon="5.73499">
        <ele>207.60000610352</ele>
        <time>2022-01-21T04:18:39.000Z</time>
      </trkpt>
      <trkpt lat="45.20041" lon="5.73495">
        <ele>207.39999389648</ele>
        <time>2022-01-21T04:18:41.000Z</time>
      </trkpt>
      <trkpt lat="45.2003" lon="5.73488">
        <ele>207.19999694824</ele>
        <time>2022-01-21T04:18:45.000Z</time>
      </trkpt>
      <trkpt lat="45.20026" lon="5.73481">
        <ele>207</ele>
        <time>2022-01-21T04:18:48.000Z</time>
      </trkpt>
      <trkpt lat="45.20016" lon="5.73468">
        <ele>206.60000610352</ele>
        <time>2022-01-21T04:18:54.000Z</time>
      </trkpt>
      <trkpt lat="45.20002" lon="5.7346">
        <ele>207.19999694824</ele>
        <time>2022-01-21T04:19:00.000Z</time>
      </trkpt>
      <trkpt lat="45.19999" lon="5.73459">
        <ele>207.19999694824</ele>
        <time>2022-01-21T04:19:01.000Z</time>
      </trkpt>
      <trkpt lat="45.19984" lon="5.73448">
        <ele>207.60000610352</ele>
        <time>2022-01-21T04:19:07.000Z</time>
      </trkpt>
      <trkpt lat="45.19981" lon="5.73446">
        <ele>207.60000610352</ele>
        <time>2022-01-21T04:19:08.000Z</time>
      </trkpt>
      <trkpt lat="45.19969" lon="5.73442">
        <ele>207.60000610352</ele>
        <time>2022-01-21T04:19:13.000Z</time>
      </trkpt>
      <trkpt lat="45.19953" lon="5.73438">
        <ele>207.60000610352</ele>
        <time>2022-01-21T04:19:19.000Z</time>
      </trkpt>
      <trkpt lat="45.1995" lon="5.73437">
        <ele>207.60000610352</ele>
        <time>2022-01-21T04:19:20.000Z</time>
      </trkpt>
      <trkpt lat="45.19932" lon="5.73432">
        <ele>207.19999694824</ele>
        <time>2022-01-21T04:19:26.000Z</time>
      </trkpt>
      <trkpt lat="45.1993" lon="5.73431">
        <ele>207.19999694824</ele>
        <time>2022-01-21T04:19:27.000Z</time>
      </trkpt>
      <trkpt lat="45.19929" lon="5.73429">
        <ele>207</ele>
        <time>2022-01-21T04:19:28.000Z</time>
      </trkpt>
      <trkpt lat="45.19923" lon="5.73426">
        <ele>207</ele>
        <time>2022-01-21T04:19:31.000Z</time>
      </trkpt>
      <trkpt lat="45.19913" lon="5.73422">
        <ele>207.19999694824</ele>
        <time>2022-01-21T04:19:35.000Z</time>
      </trkpt>
      <trkpt lat="45.19898" lon="5.73418">
        <ele>207.60000610352</ele>
        <time>2022-01-21T04:19:41.000Z</time>
      </trkpt>
      <trkpt lat="45.19887" lon="5.73415">
        <ele>207.19999694824</ele>
        <time>2022-01-21T04:19:46.000Z</time>
      </trkpt>
      <trkpt lat="45.19884" lon="5.73414">
        <ele>207.19999694824</ele>
        <time>2022-01-21T04:19:47.000Z</time>
      </trkpt>
      <trkpt lat="45.1987" lon="5.73409">
        <ele>207.39999389648</ele>
        <time>2022-01-21T04:19:52.000Z</time>
      </trkpt>
      <trkpt lat="45.19852" lon="5.73405">
        <ele>207.60000610352</ele>
        <time>2022-01-21T04:19:58.000Z</time>
      </trkpt>
      <trkpt lat="45.19838" lon="5.73401">
        <ele>207.60000610352</ele>
        <time>2022-01-21T04:20:03.000Z</time>
      </trkpt>
      <trkpt lat="45.19825" lon="5.73397">
        <ele>207.39999389648</ele>
        <time>2022-01-21T04:20:09.000Z</time>
      </trkpt>
      <trkpt lat="45.19812" lon="5.7339">
        <ele>207.39999389648</ele>
        <time>2022-01-21T04:20:15.000Z</time>
      </trkpt>
      <trkpt lat="45.19806" lon="5.73389">
        <ele>207.19999694824</ele>
        <time>2022-01-21T04:20:17.000Z</time>
      </trkpt>
      <trkpt lat="45.19791" lon="5.73385">
        <ele>207.39999389648</ele>
        <time>2022-01-21T04:20:23.000Z</time>
      </trkpt>
      <trkpt lat="45.19778" lon="5.73383">
        <ele>207.39999389648</ele>
        <time>2022-01-21T04:20:27.000Z</time>
      </trkpt>
      <trkpt lat="45.19761" lon="5.73378">
        <ele>207.39999389648</ele>
        <time>2022-01-21T04:20:33.000Z</time>
      </trkpt>
      <trkpt lat="45.19748" lon="5.73375">
        <ele>208.19999694824</ele>
        <time>2022-01-21T04:20:39.000Z</time>
      </trkpt>
      <trkpt lat="45.19733" lon="5.73372">
        <ele>208.60000610352</ele>
        <time>2022-01-21T04:20:45.000Z</time>
      </trkpt>
      <trkpt lat="45.19728" lon="5.73371">
        <ele>208.80000305176</ele>
        <time>2022-01-21T04:20:47.000Z</time>
      </trkpt>
      <trkpt lat="45.19726" lon="5.7337">
        <ele>209</ele>
        <time>2022-01-21T04:20:48.000Z</time>
      </trkpt>
      <trkpt lat="45.19726" lon="5.73367">
        <ele>209.19999694824</ele>
        <time>2022-01-21T04:20:50.000Z</time>
      </trkpt>
      <trkpt lat="45.19726" lon="5.73365">
        <ele>209.39999389648</ele>
        <time>2022-01-21T04:20:51.000Z</time>
      </trkpt>
      <trkpt lat="45.19726" lon="5.73361">
        <ele>209.39999389648</ele>
        <time>2022-01-21T04:20:53.000Z</time>
      </trkpt>
      <trkpt lat="45.19724" lon="5.73356">
        <ele>209.39999389648</ele>
        <time>2022-01-21T04:20:55.000Z</time>
      </trkpt>
      <trkpt lat="45.19721" lon="5.73343">
        <ele>209.60000610352</ele>
        <time>2022-01-21T04:21:00.000Z</time>
      </trkpt>
      <trkpt lat="45.19721" lon="5.73341">
        <ele>209.60000610352</ele>
        <time>2022-01-21T04:21:02.000Z</time>
      </trkpt>
      <trkpt lat="45.1972" lon="5.7334">
        <ele>209.80000305176</ele>
        <time>2022-01-21T04:21:05.000Z</time>
      </trkpt>
      <trkpt lat="45.1972" lon="5.7334">
        <ele>209.80000305176</ele>
        <time>2022-01-21T04:21:07.000Z</time>
      </trkpt>
      <trkpt lat="45.1972" lon="5.7334">
        <ele>209.80000305176</ele>
        <time>2022-01-21T04:21:09.000Z</time>
      </trkpt>
      <trkpt lat="45.1972" lon="5.7334">
        <ele>209.80000305176</ele>
        <time>2022-01-21T04:21:10.000Z</time>
      </trkpt>
      <trkpt lat="45.1972" lon="5.73339">
        <ele>209.80000305176</ele>
        <time>2022-01-21T04:21:13.000Z</time>
      </trkpt>
      <trkpt lat="45.1972" lon="5.73338">
        <ele>209.80000305176</ele>
        <time>2022-01-21T04:21:15.000Z</time>
      </trkpt>
      <trkpt lat="45.1972" lon="5.73338">
        <ele>209.80000305176</ele>
        <time>2022-01-21T04:21:18.000Z</time>
      </trkpt>
      <trkpt lat="45.1972" lon="5.73338">
        <ele>209.80000305176</ele>
        <time>2022-01-21T04:21:21.000Z</time>
      </trkpt>
      <trkpt lat="45.1972" lon="5.73338">
        <ele>209.80000305176</ele>
        <time>2022-01-21T04:21:25.000Z</time>
      </trkpt>
      <trkpt lat="45.19721" lon="5.73338">
        <ele>209.80000305176</ele>
        <time>2022-01-21T04:21:30.000Z</time>
      </trkpt>
      <trkpt lat="45.19724" lon="5.73334">
        <ele>209.80000305176</ele>
        <time>2022-01-21T04:21:35.000Z</time>
      </trkpt>
      <trkpt lat="45.19724" lon="5.73334">
        <ele>209.80000305176</ele>
        <time>2022-01-21T04:21:37.000Z</time>
      </trkpt>
      <trkpt lat="45.19724" lon="5.73333">
        <ele>209.80000305176</ele>
        <time>2022-01-21T04:21:42.000Z</time>
      </trkpt>
      <trkpt lat="45.19725" lon="5.73333">
        <ele>209.80000305176</ele>
        <time>2022-01-21T04:21:48.000Z</time>
      </trkpt>
      <trkpt lat="45.19725" lon="5.73333">
        <ele>209.80000305176</ele>
        <time>2022-01-21T04:21:49.000Z</time>
      </trkpt>
      <trkpt lat="45.19726" lon="5.73332">
        <ele>209.80000305176</ele>
        <time>2022-01-21T04:21:51.000Z</time>
      </trkpt>
      <trkpt lat="45.19727" lon="5.73331">
        <ele>209.80000305176</ele>
        <time>2022-01-21T04:21:53.000Z</time>
      </trkpt>
      <trkpt lat="45.19727" lon="5.73331">
        <ele>209.80000305176</ele>
        <time>2022-01-21T04:21:55.000Z</time>
      </trkpt>
      <trkpt lat="45.19727" lon="5.73331">
        <ele>209.80000305176</ele>
        <time>2022-01-21T04:21:59.000Z</time>
      </trkpt>
      <trkpt lat="45.19727" lon="5.73331">
        <ele>209.80000305176</ele>
        <time>2022-01-21T04:22:01.000Z</time>
      </trkpt>
      <trkpt lat="45.19727" lon="5.73331">
        <ele>209.80000305176</ele>
        <time>2022-01-21T04:22:02.000Z</time>
      </trkpt>
      <trkpt lat="45.19726" lon="5.73341">
        <ele>209.80000305176</ele>
        <time>2022-01-21T04:22:05.000Z</time>
      </trkpt>
      <trkpt lat="45.19724" lon="5.73346">
        <ele>209.80000305176</ele>
        <time>2022-01-21T04:22:07.000Z</time>
      </trkpt>
      <trkpt lat="45.19722" lon="5.73348">
        <ele>209.80000305176</ele>
        <time>2022-01-21T04:22:08.000Z</time>
      </trkpt>
      <trkpt lat="45.19718" lon="5.73349">
        <ele>209.80000305176</ele>
        <time>2022-01-21T04:22:10.000Z</time>
      </trkpt>
      <trkpt lat="45.19703" lon="5.73347">
        <ele>209.80000305176</ele>
        <time>2022-01-21T04:22:16.000Z</time>
      </trkpt>
      <trkpt lat="45.19701" lon="5.73347">
        <ele>209.80000305176</ele>
        <time>2022-01-21T04:22:17.000Z</time>
      </trkpt>
      <trkpt lat="45.19691" lon="5.73343">
        <ele>209.39999389648</ele>
        <time>2022-01-21T04:22:22.000Z</time>
      </trkpt>
      <trkpt lat="45.19676" lon="5.73336">
        <ele>208.80000305176</ele>
        <time>2022-01-21T04:22:28.000Z</time>
      </trkpt>
      <trkpt lat="45.19663" lon="5.73332">
        <ele>209</ele>
        <time>2022-01-21T04:22:34.000Z</time>
      </trkpt>
      <trkpt lat="45.19647" lon="5.73321">
        <ele>209.19999694824</ele>
        <time>2022-01-21T04:22:40.000Z</time>
      </trkpt>
      <trkpt lat="45.19645" lon="5.73319">
        <ele>209.19999694824</ele>
        <time>2022-01-21T04:22:41.000Z</time>
      </trkpt>
      <trkpt lat="45.19632" lon="5.73308">
        <ele>209</ele>
        <time>2022-01-21T04:22:46.000Z</time>
      </trkpt>
      <trkpt lat="45.1962" lon="5.73292">
        <ele>209</ele>
        <time>2022-01-21T04:22:52.000Z</time>
      </trkpt>
      <trkpt lat="45.19615" lon="5.7328">
        <ele>209.19999694824</ele>
        <time>2022-01-21T04:22:56.000Z</time>
      </trkpt>
      <trkpt lat="45.19612" lon="5.73276">
        <ele>209.19999694824</ele>
        <time>2022-01-21T04:22:58.000Z</time>
      </trkpt>
      <trkpt lat="45.19603" lon="5.73261">
        <ele>209.19999694824</ele>
        <time>2022-01-21T04:23:04.000Z</time>
      </trkpt>
      <trkpt lat="45.19603" lon="5.73257">
        <ele>209.19999694824</ele>
        <time>2022-01-21T04:23:05.000Z</time>
      </trkpt>
      <trkpt lat="45.1959" lon="5.7324">
        <ele>209.39999389648</ele>
        <time>2022-01-21T04:23:11.000Z</time>
      </trkpt>
      <trkpt lat="45.19589" lon="5.73237">
        <ele>209.39999389648</ele>
        <time>2022-01-21T04:23:12.000Z</time>
      </trkpt>
      <trkpt lat="45.19579" lon="5.7322">
        <ele>209.80000305176</ele>
        <time>2022-01-21T04:23:18.000Z</time>
      </trkpt>
      <trkpt lat="45.19572" lon="5.73211">
        <ele>210</ele>
        <time>2022-01-21T04:23:21.000Z</time>
      </trkpt>
      <trkpt lat="45.19562" lon="5.73197">
        <ele>210.19999694824</ele>
        <time>2022-01-21T04:23:26.000Z</time>
      </trkpt>
      <trkpt lat="45.1956" lon="5.73196">
        <ele>210.19999694824</ele>
        <time>2022-01-21T04:23:27.000Z</time>
      </trkpt>
      <trkpt lat="45.19557" lon="5.7319">
        <ele>210.19999694824</ele>
        <time>2022-01-21T04:23:29.000Z</time>
      </trkpt>
      <trkpt lat="45.19555" lon="5.73188">
        <ele>210.19999694824</ele>
        <time>2022-01-21T04:23:30.000Z</time>
      </trkpt>
      <trkpt lat="45.19554" lon="5.73185">
        <ele>210.39999389648</ele>
        <time>2022-01-21T04:23:31.000Z</time>
      </trkpt>
      <trkpt lat="45.19546" lon="5.73167">
        <ele>210.39999389648</ele>
        <time>2022-01-21T04:23:37.000Z</time>
      </trkpt>
      <trkpt lat="45.19542" lon="5.73162">
        <ele>210.60000610352</ele>
        <time>2022-01-21T04:23:39.000Z</time>
      </trkpt>
      <trkpt lat="45.1953" lon="5.73147">
        <ele>210.80000305176</ele>
        <time>2022-01-21T04:23:45.000Z</time>
      </trkpt>
      <trkpt lat="45.19519" lon="5.7313">
        <ele>210.80000305176</ele>
        <time>2022-01-21T04:23:51.000Z</time>
      </trkpt>
      <trkpt lat="45.19509" lon="5.73114">
        <ele>211</ele>
        <time>2022-01-21T04:23:57.000Z</time>
      </trkpt>
      <trkpt lat="45.19498" lon="5.73101">
        <ele>211.19999694824</ele>
        <time>2022-01-21T04:24:02.000Z</time>
      </trkpt>
      <trkpt lat="45.19491" lon="5.73094">
        <ele>211.39999389648</ele>
        <time>2022-01-21T04:24:05.000Z</time>
      </trkpt>
      <trkpt lat="45.19489" lon="5.73091">
        <ele>211.19999694824</ele>
        <time>2022-01-21T04:24:06.000Z</time>
      </trkpt>
      <trkpt lat="45.19478" lon="5.73077">
        <ele>211.39999389648</ele>
        <time>2022-01-21T04:24:12.000Z</time>
      </trkpt>
      <trkpt lat="45.19478" lon="5.73074">
        <ele>211.39999389648</ele>
        <time>2022-01-21T04:24:13.000Z</time>
      </trkpt>
      <trkpt lat="45.19476" lon="5.73066">
        <ele>211.39999389648</ele>
        <time>2022-01-21T04:24:16.000Z</time>
      </trkpt>
      <trkpt lat="45.19477" lon="5.73062">
        <ele>211.60000610352</ele>
        <time>2022-01-21T04:24:17.000Z</time>
      </trkpt>
      <trkpt lat="45.19485" lon="5.73052">
        <ele>211.80000305176</ele>
        <time>2022-01-21T04:24:20.000Z</time>
      </trkpt>
      <trkpt lat="45.19496" lon="5.73039">
        <ele>212.19999694824</ele>
        <time>2022-01-21T04:24:25.000Z</time>
      </trkpt>
      <trkpt lat="45.19509" lon="5.73024">
        <ele>212.19999694824</ele>
        <time>2022-01-21T04:24:31.000Z</time>
      </trkpt>
      <trkpt lat="45.19518" lon="5.73013">
        <ele>212</ele>
        <time>2022-01-21T04:24:37.000Z</time>
      </trkpt>
      <trkpt lat="45.19518" lon="5.73012">
        <ele>212</ele>
        <time>2022-01-21T04:24:41.000Z</time>
      </trkpt>
      <trkpt lat="45.19519" lon="5.73012">
        <ele>211.80000305176</ele>
        <time>2022-01-21T04:24:43.000Z</time>
      </trkpt>
      <trkpt lat="45.1952" lon="5.73011">
        <ele>212</ele>
        <time>2022-01-21T04:24:46.000Z</time>
      </trkpt>
      <trkpt lat="45.19519" lon="5.73011">
        <ele>212</ele>
        <time>2022-01-21T04:24:49.000Z</time>
      </trkpt>
      <trkpt lat="45.19519" lon="5.73011">
        <ele>212</ele>
        <time>2022-01-21T04:24:51.000Z</time>
      </trkpt>
      <trkpt lat="45.19519" lon="5.73011">
        <ele>212</ele>
        <time>2022-01-21T04:24:52.000Z</time>
      </trkpt>
      <trkpt lat="45.19519" lon="5.73011">
        <ele>212</ele>
        <time>2022-01-21T04:24:54.000Z</time>
      </trkpt>
      <trkpt lat="45.19519" lon="5.73011">
        <ele>212</ele>
        <time>2022-01-21T04:24:56.000Z</time>
      </trkpt>
      <trkpt lat="45.19519" lon="5.73011">
        <ele>212</ele>
        <time>2022-01-21T04:24:59.000Z</time>
      </trkpt>
      <trkpt lat="45.19519" lon="5.73012">
        <ele>211.60000610352</ele>
        <time>2022-01-21T04:25:01.000Z</time>
      </trkpt>
      <trkpt lat="45.19522" lon="5.73007">
        <ele>211.60000610352</ele>
        <time>2022-01-21T04:25:03.000Z</time>
      </trkpt>
      <trkpt lat="45.19524" lon="5.73004">
        <ele>211.19999694824</ele>
        <time>2022-01-21T04:25:04.000Z</time>
      </trkpt>
      <trkpt lat="45.19533" lon="5.7299">
        <ele>211</ele>
        <time>2022-01-21T04:25:10.000Z</time>
      </trkpt>
      <trkpt lat="45.19534" lon="5.72988">
        <ele>210.80000305176</ele>
        <time>2022-01-21T04:25:11.000Z</time>
      </trkpt>
      <trkpt lat="45.19529" lon="5.72979">
        <ele>210.80000305176</ele>
        <time>2022-01-21T04:25:15.000Z</time>
      </trkpt>
      <trkpt lat="45.19519" lon="5.72965">
        <ele>210.60000610352</ele>
        <time>2022-01-21T04:25:21.000Z</time>
      </trkpt>
      <trkpt lat="45.19514" lon="5.72958">
        <ele>210.60000610352</ele>
        <time>2022-01-21T04:25:24.000Z</time>
      </trkpt>
      <trkpt lat="45.19499" lon="5.72944">
        <ele>210.60000610352</ele>
        <time>2022-01-21T04:25:30.000Z</time>
      </trkpt>
      <trkpt lat="45.19492" lon="5.72935">
        <ele>210.39999389648</ele>
        <time>2022-01-21T04:25:33.000Z</time>
      </trkpt>
      <trkpt lat="45.19486" lon="5.72914">
        <ele>210</ele>
        <time>2022-01-21T04:25:39.000Z</time>
      </trkpt>
      <trkpt lat="45.19478" lon="5.72902">
        <ele>210</ele>
        <time>2022-01-21T04:25:43.000Z</time>
      </trkpt>
      <trkpt lat="45.19467" lon="5.72884">
        <ele>210</ele>
        <time>2022-01-21T04:25:49.000Z</time>
      </trkpt>
      <trkpt lat="45.19462" lon="5.72876">
        <ele>210</ele>
        <time>2022-01-21T04:25:52.000Z</time>
      </trkpt>
      <trkpt lat="45.19456" lon="5.72866">
        <ele>209.60000610352</ele>
        <time>2022-01-21T04:25:55.000Z</time>
      </trkpt>
      <trkpt lat="45.19452" lon="5.72856">
        <ele>209.19999694824</ele>
        <time>2022-01-21T04:25:58.000Z</time>
      </trkpt>
      <trkpt lat="45.19444" lon="5.72845">
        <ele>209.19999694824</ele>
        <time>2022-01-21T04:26:02.000Z</time>
      </trkpt>
      <trkpt lat="45.19436" lon="5.72829">
        <ele>209.19999694824</ele>
        <time>2022-01-21T04:26:07.000Z</time>
      </trkpt>
      <trkpt lat="45.19435" lon="5.72825">
        <ele>209</ele>
        <time>2022-01-21T04:26:08.000Z</time>
      </trkpt>
      <trkpt lat="45.19427" lon="5.72802">
        <ele>209</ele>
        <time>2022-01-21T04:26:14.000Z</time>
      </trkpt>
      <trkpt lat="45.19427" lon="5.72798">
        <ele>209</ele>
        <time>2022-01-21T04:26:15.000Z</time>
      </trkpt>
      <trkpt lat="45.19424" lon="5.72775">
        <ele>208.60000610352</ele>
        <time>2022-01-21T04:26:21.000Z</time>
      </trkpt>
      <trkpt lat="45.19422" lon="5.72765">
        <ele>208.39999389648</ele>
        <time>2022-01-21T04:26:24.000Z</time>
      </trkpt>
      <trkpt lat="45.19421" lon="5.72757">
        <ele>208.19999694824</ele>
        <time>2022-01-21T04:26:26.000Z</time>
      </trkpt>
      <trkpt lat="45.19417" lon="5.72743">
        <ele>208</ele>
        <time>2022-01-21T04:26:30.000Z</time>
      </trkpt>
      <trkpt lat="45.19413" lon="5.7272">
        <ele>207.19999694824</ele>
        <time>2022-01-21T04:26:36.000Z</time>
      </trkpt>
      <trkpt lat="45.19413" lon="5.72717">
        <ele>206.80000305176</ele>
        <time>2022-01-21T04:26:37.000Z</time>
      </trkpt>
      <trkpt lat="45.19412" lon="5.72713">
        <ele>206.60000610352</ele>
        <time>2022-01-21T04:26:38.000Z</time>
      </trkpt>
      <trkpt lat="45.19408" lon="5.72694">
        <ele>205.80000305176</ele>
        <time>2022-01-21T04:26:43.000Z</time>
      </trkpt>
      <trkpt lat="45.19408" lon="5.7269">
        <ele>205.60000610352</ele>
        <time>2022-01-21T04:26:44.000Z</time>
      </trkpt>
      <trkpt lat="45.19404" lon="5.72672">
        <ele>205.60000610352</ele>
        <time>2022-01-21T04:26:49.000Z</time>
      </trkpt>
      <trkpt lat="45.19395" lon="5.72654">
        <ele>205.60000610352</ele>
        <time>2022-01-21T04:26:55.000Z</time>
      </trkpt>
      <trkpt lat="45.19395" lon="5.72651">
        <ele>205.60000610352</ele>
        <time>2022-01-21T04:26:56.000Z</time>
      </trkpt>
      <trkpt lat="45.19389" lon="5.72631">
        <ele>205.39999389648</ele>
        <time>2022-01-21T04:27:02.000Z</time>
      </trkpt>
      <trkpt lat="45.19388" lon="5.72624">
        <ele>205.39999389648</ele>
        <time>2022-01-21T04:27:04.000Z</time>
      </trkpt>
      <trkpt lat="45.19386" lon="5.72603">
        <ele>205.80000305176</ele>
        <time>2022-01-21T04:27:10.000Z</time>
      </trkpt>
      <trkpt lat="45.19385" lon="5.72599">
        <ele>205.60000610352</ele>
        <time>2022-01-21T04:27:11.000Z</time>
      </trkpt>
      <trkpt lat="45.19384" lon="5.72595">
        <ele>205.80000305176</ele>
        <time>2022-01-21T04:27:12.000Z</time>
      </trkpt>
      <trkpt lat="45.1938" lon="5.72584">
        <ele>205.80000305176</ele>
        <time>2022-01-21T04:27:15.000Z</time>
      </trkpt>
      <trkpt lat="45.19377" lon="5.72565">
        <ele>206.19999694824</ele>
        <time>2022-01-21T04:27:20.000Z</time>
      </trkpt>
      <trkpt lat="45.19377" lon="5.72562">
        <ele>206.19999694824</ele>
        <time>2022-01-21T04:27:21.000Z</time>
      </trkpt>
      <trkpt lat="45.19377" lon="5.72559">
        <ele>206.19999694824</ele>
        <time>2022-01-21T04:27:22.000Z</time>
      </trkpt>
      <trkpt lat="45.19376" lon="5.72548">
        <ele>206.80000305176</ele>
        <time>2022-01-21T04:27:25.000Z</time>
      </trkpt>
      <trkpt lat="45.19373" lon="5.72538">
        <ele>207.19999694824</ele>
        <time>2022-01-21T04:27:28.000Z</time>
      </trkpt>
      <trkpt lat="45.19372" lon="5.72524">
        <ele>207.80000305176</ele>
        <time>2022-01-21T04:27:32.000Z</time>
      </trkpt>
      <trkpt lat="45.19371" lon="5.72514">
        <ele>208.19999694824</ele>
        <time>2022-01-21T04:27:35.000Z</time>
      </trkpt>
      <trkpt lat="45.19369" lon="5.72491">
        <ele>208.60000610352</ele>
        <time>2022-01-21T04:27:41.000Z</time>
      </trkpt>
      <trkpt lat="45.19365" lon="5.72481">
        <ele>209</ele>
        <time>2022-01-21T04:27:44.000Z</time>
      </trkpt>
      <trkpt lat="45.19361" lon="5.72459">
        <ele>209.19999694824</ele>
        <time>2022-01-21T04:27:50.000Z</time>
      </trkpt>
      <trkpt lat="45.1936" lon="5.72457">
        <ele>209.19999694824</ele>
        <time>2022-01-21T04:27:51.000Z</time>
      </trkpt>
      <trkpt lat="45.19356" lon="5.72435">
        <ele>210</ele>
        <time>2022-01-21T04:27:57.000Z</time>
      </trkpt>
      <trkpt lat="45.19359" lon="5.72418">
        <ele>210.19999694824</ele>
        <time>2022-01-21T04:28:02.000Z</time>
      </trkpt>
      <trkpt lat="45.19356" lon="5.72399">
        <ele>210.19999694824</ele>
        <time>2022-01-21T04:28:08.000Z</time>
      </trkpt>
      <trkpt lat="45.19354" lon="5.72378">
        <ele>210.80000305176</ele>
        <time>2022-01-21T04:28:14.000Z</time>
      </trkpt>
      <trkpt lat="45.19354" lon="5.72374">
        <ele>211</ele>
        <time>2022-01-21T04:28:15.000Z</time>
      </trkpt>
      <trkpt lat="45.19353" lon="5.72367">
        <ele>211</ele>
        <time>2022-01-21T04:28:17.000Z</time>
      </trkpt>
      <trkpt lat="45.19354" lon="5.72352">
        <ele>211.39999389648</ele>
        <time>2022-01-21T04:28:21.000Z</time>
      </trkpt>
      <trkpt lat="45.19356" lon="5.72338">
        <ele>211.60000610352</ele>
        <time>2022-01-21T04:28:25.000Z</time>
      </trkpt>
      <trkpt lat="45.19356" lon="5.72316">
        <ele>211.60000610352</ele>
        <time>2022-01-21T04:28:31.000Z</time>
      </trkpt>
      <trkpt lat="45.19356" lon="5.72312">
        <ele>212.19999694824</ele>
        <time>2022-01-21T04:28:32.000Z</time>
      </trkpt>
      <trkpt lat="45.19354" lon="5.72289">
        <ele>212.19999694824</ele>
        <time>2022-01-21T04:28:38.000Z</time>
      </trkpt>
      <trkpt lat="45.19352" lon="5.72269">
        <ele>212.39999389648</ele>
        <time>2022-01-21T04:28:43.000Z</time>
      </trkpt>
      <trkpt lat="45.19352" lon="5.72266">
        <ele>212.39999389648</ele>
        <time>2022-01-21T04:28:44.000Z</time>
      </trkpt>
      <trkpt lat="45.1935" lon="5.72242">
        <ele>212</ele>
        <time>2022-01-21T04:28:50.000Z</time>
      </trkpt>
      <trkpt lat="45.1935" lon="5.72234">
        <ele>212</ele>
        <time>2022-01-21T04:28:52.000Z</time>
      </trkpt>
      <trkpt lat="45.19349" lon="5.7223">
        <ele>211.80000305176</ele>
        <time>2022-01-21T04:28:53.000Z</time>
      </trkpt>
      <trkpt lat="45.19348" lon="5.72214">
        <ele>211.80000305176</ele>
        <time>2022-01-21T04:28:57.000Z</time>
      </trkpt>
      <trkpt lat="45.19345" lon="5.72206">
        <ele>211.80000305176</ele>
        <time>2022-01-21T04:28:59.000Z</time>
      </trkpt>
      <trkpt lat="45.19342" lon="5.72182">
        <ele>211.80000305176</ele>
        <time>2022-01-21T04:29:05.000Z</time>
      </trkpt>
      <trkpt lat="45.19339" lon="5.72158">
        <ele>211.60000610352</ele>
        <time>2022-01-21T04:29:11.000Z</time>
      </trkpt>
      <trkpt lat="45.19339" lon="5.72154">
        <ele>211.39999389648</ele>
        <time>2022-01-21T04:29:12.000Z</time>
      </trkpt>
      <trkpt lat="45.19338" lon="5.72138">
        <ele>211.19999694824</ele>
        <time>2022-01-21T04:29:16.000Z</time>
      </trkpt>
      <trkpt lat="45.19339" lon="5.72127">
        <ele>211.19999694824</ele>
        <time>2022-01-21T04:29:19.000Z</time>
      </trkpt>
      <trkpt lat="45.19341" lon="5.72119">
        <ele>211.19999694824</ele>
        <time>2022-01-21T04:29:21.000Z</time>
      </trkpt>
      <trkpt lat="45.19341" lon="5.72098">
        <ele>210.80000305176</ele>
        <time>2022-01-21T04:29:27.000Z</time>
      </trkpt>
      <trkpt lat="45.19344" lon="5.72074">
        <ele>210.60000610352</ele>
        <time>2022-01-21T04:29:33.000Z</time>
      </trkpt>
      <trkpt lat="45.19344" lon="5.72065">
        <ele>210.39999389648</ele>
        <time>2022-01-21T04:29:35.000Z</time>
      </trkpt>
      <trkpt lat="45.19344" lon="5.72041">
        <ele>210.39999389648</ele>
        <time>2022-01-21T04:29:41.000Z</time>
      </trkpt>
      <trkpt lat="45.19344" lon="5.72018">
        <ele>210</ele>
        <time>2022-01-21T04:29:47.000Z</time>
      </trkpt>
      <trkpt lat="45.19352" lon="5.71993">
        <ele>210</ele>
        <time>2022-01-21T04:29:53.000Z</time>
      </trkpt>
      <trkpt lat="45.19353" lon="5.7199">
        <ele>210</ele>
        <time>2022-01-21T04:29:54.000Z</time>
      </trkpt>
      <trkpt lat="45.19362" lon="5.71969">
        <ele>209.60000610352</ele>
        <time>2022-01-21T04:30:00.000Z</time>
      </trkpt>
      <trkpt lat="45.19366" lon="5.71963">
        <ele>209.60000610352</ele>
        <time>2022-01-21T04:30:02.000Z</time>
      </trkpt>
      <trkpt lat="45.1937" lon="5.71957">
        <ele>208.80000305176</ele>
        <time>2022-01-21T04:30:04.000Z</time>
      </trkpt>
      <trkpt lat="45.19377" lon="5.71943">
        <ele>208.80000305176</ele>
        <time>2022-01-21T04:30:08.000Z</time>
      </trkpt>
      <trkpt lat="45.1938" lon="5.71938">
        <ele>210.19999694824</ele>
        <time>2022-01-21T04:30:10.000Z</time>
      </trkpt>
      <trkpt lat="45.19392" lon="5.71927">
        <ele>209.39999389648</ele>
        <time>2022-01-21T04:30:15.000Z</time>
      </trkpt>
      <trkpt lat="45.19408" lon="5.71922">
        <ele>208.80000305176</ele>
        <time>2022-01-21T04:30:20.000Z</time>
      </trkpt>
      <trkpt lat="45.19425" lon="5.71921">
        <ele>208.39999389648</ele>
        <time>2022-01-21T04:30:26.000Z</time>
      </trkpt>
      <trkpt lat="45.19428" lon="5.71921">
        <ele>208.60000610352</ele>
        <time>2022-01-21T04:30:27.000Z</time>
      </trkpt>
      <trkpt lat="45.19441" lon="5.71922">
        <ele>207.60000610352</ele>
        <time>2022-01-21T04:30:32.000Z</time>
      </trkpt>
      <trkpt lat="45.19457" lon="5.7192">
        <ele>208.19999694824</ele>
        <time>2022-01-21T04:30:38.000Z</time>
      </trkpt>
      <trkpt lat="45.1946" lon="5.71919">
        <ele>208.19999694824</ele>
        <time>2022-01-21T04:30:39.000Z</time>
      </trkpt>
      <trkpt lat="45.19476" lon="5.71916">
        <ele>207.39999389648</ele>
        <time>2022-01-21T04:30:45.000Z</time>
      </trkpt>
      <trkpt lat="45.19479" lon="5.71916">
        <ele>207.80000305176</ele>
        <time>2022-01-21T04:30:46.000Z</time>
      </trkpt>
      <trkpt lat="45.19496" lon="5.71918">
        <ele>208</ele>
        <time>2022-01-21T04:30:52.000Z</time>
      </trkpt>
      <trkpt lat="45.19504" lon="5.71916">
        <ele>208</ele>
        <time>2022-01-21T04:30:55.000Z</time>
      </trkpt>
      <trkpt lat="45.19512" lon="5.71914">
        <ele>208.19999694824</ele>
        <time>2022-01-21T04:30:58.000Z</time>
      </trkpt>
      <trkpt lat="45.19519" lon="5.71915">
        <ele>208.19999694824</ele>
        <time>2022-01-21T04:31:01.000Z</time>
      </trkpt>
      <trkpt lat="45.19531" lon="5.71914">
        <ele>208.19999694824</ele>
        <time>2022-01-21T04:31:06.000Z</time>
      </trkpt>
      <trkpt lat="45.19546" lon="5.71911">
        <ele>208.19999694824</ele>
        <time>2022-01-21T04:31:12.000Z</time>
      </trkpt>
      <trkpt lat="45.19549" lon="5.7191">
        <ele>208.19999694824</ele>
        <time>2022-01-21T04:31:13.000Z</time>
      </trkpt>
      <trkpt lat="45.19555" lon="5.7191">
        <ele>208.39999389648</ele>
        <time>2022-01-21T04:31:16.000Z</time>
      </trkpt>
      <trkpt lat="45.19557" lon="5.71912">
        <ele>208.39999389648</ele>
        <time>2022-01-21T04:31:17.000Z</time>
      </trkpt>
      <trkpt lat="45.19558" lon="5.71919">
        <ele>209</ele>
        <time>2022-01-21T04:31:19.000Z</time>
      </trkpt>
      <trkpt lat="45.19559" lon="5.71923">
        <ele>209.80000305176</ele>
        <time>2022-01-21T04:31:22.000Z</time>
      </trkpt>
      <trkpt lat="45.1956" lon="5.71924">
        <ele>210.19999694824</ele>
        <time>2022-01-21T04:31:23.000Z</time>
      </trkpt>
      <trkpt lat="45.19562" lon="5.71924">
        <ele>210.80000305176</ele>
        <time>2022-01-21T04:31:24.000Z</time>
      </trkpt>
      <trkpt lat="45.19566" lon="5.71923">
        <ele>211.39999389648</ele>
        <time>2022-01-21T04:31:27.000Z</time>
      </trkpt>
      <trkpt lat="45.19572" lon="5.71923">
        <ele>212.39999389648</ele>
        <time>2022-01-21T04:31:30.000Z</time>
      </trkpt>
      <trkpt lat="45.19572" lon="5.71925">
        <ele>213</ele>
        <time>2022-01-21T04:31:31.000Z</time>
      </trkpt>
      <trkpt lat="45.19571" lon="5.7193">
        <ele>213.19999694824</ele>
        <time>2022-01-21T04:31:33.000Z</time>
      </trkpt>
      <trkpt lat="45.19571" lon="5.71933">
        <ele>213.39999389648</ele>
        <time>2022-01-21T04:31:34.000Z</time>
      </trkpt>
      <trkpt lat="45.19572" lon="5.71935">
        <ele>214</ele>
        <time>2022-01-21T04:31:35.000Z</time>
      </trkpt>
      <trkpt lat="45.19571" lon="5.71937">
        <ele>214.19999694824</ele>
        <time>2022-01-21T04:31:36.000Z</time>
      </trkpt>
      <trkpt lat="45.19569" lon="5.71945">
        <ele>215</ele>
        <time>2022-01-21T04:31:39.000Z</time>
      </trkpt>
      <trkpt lat="45.19571" lon="5.71947">
        <ele>215.19999694824</ele>
        <time>2022-01-21T04:31:40.000Z</time>
      </trkpt>
      <trkpt lat="45.19574" lon="5.71953">
        <ele>216.19999694824</ele>
        <time>2022-01-21T04:31:43.000Z</time>
      </trkpt>
      <trkpt lat="45.19574" lon="5.71954">
        <ele>216.60000610352</ele>
        <time>2022-01-21T04:31:44.000Z</time>
      </trkpt>
      <trkpt lat="45.19574" lon="5.71956">
        <ele>216.80000305176</ele>
        <time>2022-01-21T04:31:45.000Z</time>
      </trkpt>
      <trkpt lat="45.19575" lon="5.71958">
        <ele>217.60000610352</ele>
        <time>2022-01-21T04:31:46.000Z</time>
      </trkpt>
      <trkpt lat="45.19578" lon="5.71959">
        <ele>218.19999694824</ele>
        <time>2022-01-21T04:31:48.000Z</time>
      </trkpt>
      <trkpt lat="45.1958" lon="5.71966">
        <ele>219</ele>
        <time>2022-01-21T04:31:52.000Z</time>
      </trkpt>
      <trkpt lat="45.19581" lon="5.71968">
        <ele>219.19999694824</ele>
        <time>2022-01-21T04:31:54.000Z</time>
      </trkpt>
      <trkpt lat="45.19584" lon="5.7197">
        <ele>220.39999389648</ele>
        <time>2022-01-21T04:31:56.000Z</time>
      </trkpt>
      <trkpt lat="45.19589" lon="5.71974">
        <ele>221.39999389648</ele>
        <time>2022-01-21T04:32:00.000Z</time>
      </trkpt>
      <trkpt lat="45.19596" lon="5.7198">
        <ele>223.19999694824</ele>
        <time>2022-01-21T04:32:05.000Z</time>
      </trkpt>
      <trkpt lat="45.19602" lon="5.71982">
        <ele>224</ele>
        <time>2022-01-21T04:32:08.000Z</time>
      </trkpt>
      <trkpt lat="45.19605" lon="5.71981">
        <ele>224.60000610352</ele>
        <time>2022-01-21T04:32:10.000Z</time>
      </trkpt>
      <trkpt lat="45.19608" lon="5.71984">
        <ele>225.60000610352</ele>
        <time>2022-01-21T04:32:14.000Z</time>
      </trkpt>
      <trkpt lat="45.19611" lon="5.71987">
        <ele>227</ele>
        <time>2022-01-21T04:32:17.000Z</time>
      </trkpt>
      <trkpt lat="45.19615" lon="5.71988">
        <ele>227.39999389648</ele>
        <time>2022-01-21T04:32:20.000Z</time>
      </trkpt>
      <trkpt lat="45.19616" lon="5.71989">
        <ele>228</ele>
        <time>2022-01-21T04:32:21.000Z</time>
      </trkpt>
      <trkpt lat="45.19622" lon="5.71992">
        <ele>229.60000610352</ele>
        <time>2022-01-21T04:32:26.000Z</time>
      </trkpt>
      <trkpt lat="45.19624" lon="5.71995">
        <ele>230.19999694824</ele>
        <time>2022-01-21T04:32:29.000Z</time>
      </trkpt>
      <trkpt lat="45.19625" lon="5.71997">
        <ele>231.19999694824</ele>
        <time>2022-01-21T04:32:30.000Z</time>
      </trkpt>
      <trkpt lat="45.1963" lon="5.72002">
        <ele>232.60000610352</ele>
        <time>2022-01-21T04:32:35.000Z</time>
      </trkpt>
      <trkpt lat="45.19633" lon="5.72005">
        <ele>233.19999694824</ele>
        <time>2022-01-21T04:32:37.000Z</time>
      </trkpt>
      <trkpt lat="45.19634" lon="5.72007">
        <ele>234</ele>
        <time>2022-01-21T04:32:39.000Z</time>
      </trkpt>
      <trkpt lat="45.19634" lon="5.72011">
        <ele>234.80000305176</ele>
        <time>2022-01-21T04:32:42.000Z</time>
      </trkpt>
      <trkpt lat="45.19635" lon="5.72012">
        <ele>235.19999694824</ele>
        <time>2022-01-21T04:32:43.000Z</time>
      </trkpt>
      <trkpt lat="45.19636" lon="5.72013">
        <ele>236.19999694824</ele>
        <time>2022-01-21T04:32:44.000Z</time>
      </trkpt>
      <trkpt lat="45.19637" lon="5.72014">
        <ele>236.60000610352</ele>
        <time>2022-01-21T04:32:45.000Z</time>
      </trkpt>
      <trkpt lat="45.19637" lon="5.72015">
        <ele>237.19999694824</ele>
        <time>2022-01-21T04:32:46.000Z</time>
      </trkpt>
      <trkpt lat="45.19636" lon="5.72016">
        <ele>237.80000305176</ele>
        <time>2022-01-21T04:32:47.000Z</time>
      </trkpt>
      <trkpt lat="45.19636" lon="5.72018">
        <ele>238</ele>
        <time>2022-01-21T04:32:48.000Z</time>
      </trkpt>
      <trkpt lat="45.19636" lon="5.72019">
        <ele>238.80000305176</ele>
        <time>2022-01-21T04:32:49.000Z</time>
      </trkpt>
      <trkpt lat="45.19637" lon="5.7202">
        <ele>239.39999389648</ele>
        <time>2022-01-21T04:32:51.000Z</time>
      </trkpt>
      <trkpt lat="45.19637" lon="5.7202">
        <ele>240</ele>
        <time>2022-01-21T04:32:52.000Z</time>
      </trkpt>
      <trkpt lat="45.19639" lon="5.72021">
        <ele>240.60000610352</ele>
        <time>2022-01-21T04:32:54.000Z</time>
      </trkpt>
      <trkpt lat="45.19641" lon="5.72022">
        <ele>241.60000610352</ele>
        <time>2022-01-21T04:32:56.000Z</time>
      </trkpt>
      <trkpt lat="45.19642" lon="5.72028">
        <ele>242</ele>
        <time>2022-01-21T04:33:00.000Z</time>
      </trkpt>
      <trkpt lat="45.19643" lon="5.72032">
        <ele>242.39999389648</ele>
        <time>2022-01-21T04:33:02.000Z</time>
      </trkpt>
      <trkpt lat="45.19644" lon="5.72033">
        <ele>242.60000610352</ele>
        <time>2022-01-21T04:33:03.000Z</time>
      </trkpt>
      <trkpt lat="45.19645" lon="5.72035">
        <ele>243</ele>
        <time>2022-01-21T04:33:04.000Z</time>
      </trkpt>
      <trkpt lat="45.19648" lon="5.72037">
        <ele>243.39999389648</ele>
        <time>2022-01-21T04:33:06.000Z</time>
      </trkpt>
      <trkpt lat="45.19649" lon="5.72039">
        <ele>243.80000305176</ele>
        <time>2022-01-21T04:33:07.000Z</time>
      </trkpt>
      <trkpt lat="45.1965" lon="5.72042">
        <ele>244</ele>
        <time>2022-01-21T04:33:09.000Z</time>
      </trkpt>
      <trkpt lat="45.1965" lon="5.72044">
        <ele>244.19999694824</ele>
        <time>2022-01-21T04:33:10.000Z</time>
      </trkpt>
      <trkpt lat="45.19649" lon="5.72047">
        <ele>245</ele>
        <time>2022-01-21T04:33:12.000Z</time>
      </trkpt>
      <trkpt lat="45.19644" lon="5.72054">
        <ele>245.60000610352</ele>
        <time>2022-01-21T04:33:18.000Z</time>
      </trkpt>
      <trkpt lat="45.19643" lon="5.72055">
        <ele>246</ele>
        <time>2022-01-21T04:33:19.000Z</time>
      </trkpt>
      <trkpt lat="45.19643" lon="5.72057">
        <ele>246.19999694824</ele>
        <time>2022-01-21T04:33:20.000Z</time>
      </trkpt>
      <trkpt lat="45.1964" lon="5.72062">
        <ele>247.39999389648</ele>
        <time>2022-01-21T04:33:24.000Z</time>
      </trkpt>
      <trkpt lat="45.1964" lon="5.72063">
        <ele>247.60000610352</ele>
        <time>2022-01-21T04:33:25.000Z</time>
      </trkpt>
      <trkpt lat="45.19636" lon="5.72071">
        <ele>248.39999389648</ele>
        <time>2022-01-21T04:33:29.000Z</time>
      </trkpt>
      <trkpt lat="45.19636" lon="5.72073">
        <ele>248.39999389648</ele>
        <time>2022-01-21T04:33:30.000Z</time>
      </trkpt>
      <trkpt lat="45.19636" lon="5.72074">
        <ele>248.60000610352</ele>
        <time>2022-01-21T04:33:31.000Z</time>
      </trkpt>
      <trkpt lat="45.19637" lon="5.72075">
        <ele>249.60000610352</ele>
        <time>2022-01-21T04:33:33.000Z</time>
      </trkpt>
      <trkpt lat="45.19638" lon="5.72075">
        <ele>250</ele>
        <time>2022-01-21T04:33:34.000Z</time>
      </trkpt>
      <trkpt lat="45.1964" lon="5.72074">
        <ele>250.19999694824</ele>
        <time>2022-01-21T04:33:36.000Z</time>
      </trkpt>
      <trkpt lat="45.19643" lon="5.72073">
        <ele>251</ele>
        <time>2022-01-21T04:33:38.000Z</time>
      </trkpt>
      <trkpt lat="45.19644" lon="5.72073">
        <ele>251.19999694824</ele>
        <time>2022-01-21T04:33:39.000Z</time>
      </trkpt>
      <trkpt lat="45.19646" lon="5.72073">
        <ele>251.80000305176</ele>
        <time>2022-01-21T04:33:41.000Z</time>
      </trkpt>
      <trkpt lat="45.19648" lon="5.72073">
        <ele>252.19999694824</ele>
        <time>2022-01-21T04:33:42.000Z</time>
      </trkpt>
      <trkpt lat="45.19649" lon="5.72073">
        <ele>252.80000305176</ele>
        <time>2022-01-21T04:33:44.000Z</time>
      </trkpt>
      <trkpt lat="45.19651" lon="5.72072">
        <ele>253</ele>
        <time>2022-01-21T04:33:45.000Z</time>
      </trkpt>
      <trkpt lat="45.19653" lon="5.72072">
        <ele>253.39999389648</ele>
        <time>2022-01-21T04:33:47.000Z</time>
      </trkpt>
      <trkpt lat="45.19655" lon="5.72072">
        <ele>253.39999389648</ele>
        <time>2022-01-21T04:33:48.000Z</time>
      </trkpt>
      <trkpt lat="45.19656" lon="5.72073">
        <ele>254.19999694824</ele>
        <time>2022-01-21T04:33:49.000Z</time>
      </trkpt>
      <trkpt lat="45.19657" lon="5.72073">
        <ele>254.39999389648</ele>
        <time>2022-01-21T04:33:50.000Z</time>
      </trkpt>
      <trkpt lat="45.19657" lon="5.72075">
        <ele>254.80000305176</ele>
        <time>2022-01-21T04:33:51.000Z</time>
      </trkpt>
      <trkpt lat="45.19657" lon="5.72079">
        <ele>255.39999389648</ele>
        <time>2022-01-21T04:33:53.000Z</time>
      </trkpt>
      <trkpt lat="45.19653" lon="5.72084">
        <ele>256.39999389648</ele>
        <time>2022-01-21T04:33:56.000Z</time>
      </trkpt>
      <trkpt lat="45.19651" lon="5.72084">
        <ele>256.39999389648</ele>
        <time>2022-01-21T04:33:57.000Z</time>
      </trkpt>
      <trkpt lat="45.19651" lon="5.72084">
        <ele>256.39999389648</ele>
        <time>2022-01-21T04:33:58.000Z</time>
      </trkpt>
      <trkpt lat="45.19652" lon="5.72084">
        <ele>256.79998779297</ele>
        <time>2022-01-21T04:33:59.000Z</time>
      </trkpt>
      <trkpt lat="45.19656" lon="5.72083">
        <ele>257.39999389648</ele>
        <time>2022-01-21T04:34:02.000Z</time>
      </trkpt>
      <trkpt lat="45.19657" lon="5.72084">
        <ele>257.60000610352</ele>
        <time>2022-01-21T04:34:03.000Z</time>
      </trkpt>
      <trkpt lat="45.19659" lon="5.72083">
        <ele>258.20001220703</ele>
        <time>2022-01-21T04:34:04.000Z</time>
      </trkpt>
      <trkpt lat="45.1966" lon="5.72083">
        <ele>258.79998779297</ele>
        <time>2022-01-21T04:34:05.000Z</time>
      </trkpt>
      <trkpt lat="45.19664" lon="5.72083">
        <ele>260.20001220703</ele>
        <time>2022-01-21T04:34:09.000Z</time>
      </trkpt>
      <trkpt lat="45.19665" lon="5.72082">
        <ele>260.39999389648</ele>
        <time>2022-01-21T04:34:10.000Z</time>
      </trkpt>
      <trkpt lat="45.19667" lon="5.72083">
        <ele>260.39999389648</ele>
        <time>2022-01-21T04:34:12.000Z</time>
      </trkpt>
      <trkpt lat="45.19668" lon="5.72084">
        <ele>261</ele>
        <time>2022-01-21T04:34:14.000Z</time>
      </trkpt>
      <trkpt lat="45.19668" lon="5.72087">
        <ele>261.60000610352</ele>
        <time>2022-01-21T04:34:15.000Z</time>
      </trkpt>
      <trkpt lat="45.19668" lon="5.72091">
        <ele>262.20001220703</ele>
        <time>2022-01-21T04:34:17.000Z</time>
      </trkpt>
      <trkpt lat="45.19668" lon="5.72095">
        <ele>262.79998779297</ele>
        <time>2022-01-21T04:34:20.000Z</time>
      </trkpt>
      <trkpt lat="45.19667" lon="5.72096">
        <ele>263.39999389648</ele>
        <time>2022-01-21T04:34:21.000Z</time>
      </trkpt>
      <trkpt lat="45.19667" lon="5.72097">
        <ele>264.39999389648</ele>
        <time>2022-01-21T04:34:22.000Z</time>
      </trkpt>
      <trkpt lat="45.19665" lon="5.72102">
        <ele>265.79998779297</ele>
        <time>2022-01-21T04:34:26.000Z</time>
      </trkpt>
      <trkpt lat="45.19663" lon="5.72104">
        <ele>267</ele>
        <time>2022-01-21T04:34:31.000Z</time>
      </trkpt>
      <trkpt lat="45.19662" lon="5.72105">
        <ele>267.60000610352</ele>
        <time>2022-01-21T04:34:33.000Z</time>
      </trkpt>
      <trkpt lat="45.1966" lon="5.72106">
        <ele>268</ele>
        <time>2022-01-21T04:34:36.000Z</time>
      </trkpt>
      <trkpt lat="45.1966" lon="5.72108">
        <ele>269.20001220703</ele>
        <time>2022-01-21T04:34:38.000Z</time>
      </trkpt>
      <trkpt lat="45.19659" lon="5.72109">
        <ele>269.60000610352</ele>
        <time>2022-01-21T04:34:39.000Z</time>
      </trkpt>
      <trkpt lat="45.19656" lon="5.72119">
        <ele>270.39999389648</ele>
        <time>2022-01-21T04:34:44.000Z</time>
      </trkpt>
      <trkpt lat="45.19656" lon="5.72125">
        <ele>270.79998779297</ele>
        <time>2022-01-21T04:34:46.000Z</time>
      </trkpt>
      <trkpt lat="45.19651" lon="5.72139">
        <ele>271.20001220703</ele>
        <time>2022-01-21T04:34:51.000Z</time>
      </trkpt>
      <trkpt lat="45.19649" lon="5.7214">
        <ele>271.20001220703</ele>
        <time>2022-01-21T04:34:52.000Z</time>
      </trkpt>
      <trkpt lat="45.19639" lon="5.72143">
        <ele>271</ele>
        <time>2022-01-21T04:34:57.000Z</time>
      </trkpt>
      <trkpt lat="45.19628" lon="5.72145">
        <ele>270.39999389648</ele>
        <time>2022-01-21T04:35:03.000Z</time>
      </trkpt>
      <trkpt lat="45.19624" lon="5.72146">
        <ele>270.20001220703</ele>
        <time>2022-01-21T04:35:05.000Z</time>
      </trkpt>
      <trkpt lat="45.19609" lon="5.7215">
        <ele>269.39999389648</ele>
        <time>2022-01-21T04:35:11.000Z</time>
      </trkpt>
      <trkpt lat="45.19605" lon="5.72151">
        <ele>269.20001220703</ele>
        <time>2022-01-21T04:35:12.000Z</time>
      </trkpt>
      <trkpt lat="45.196" lon="5.72153">
        <ele>268.39999389648</ele>
        <time>2022-01-21T04:35:14.000Z</time>
      </trkpt>
      <trkpt lat="45.19587" lon="5.7216">
        <ele>268.39999389648</ele>
        <time>2022-01-21T04:35:19.000Z</time>
      </trkpt>
      <trkpt lat="45.19575" lon="5.7217">
        <ele>268.39999389648</ele>
        <time>2022-01-21T04:35:25.000Z</time>
      </trkpt>
      <trkpt lat="45.19572" lon="5.72171">
        <ele>268.60000610352</ele>
        <time>2022-01-21T04:35:26.000Z</time>
      </trkpt>
      <trkpt lat="45.19567" lon="5.7218">
        <ele>269.39999389648</ele>
        <time>2022-01-21T04:35:31.000Z</time>
      </trkpt>
      <trkpt lat="45.19566" lon="5.72182">
        <ele>270.39999389648</ele>
        <time>2022-01-21T04:35:33.000Z</time>
      </trkpt>
      <trkpt lat="45.19565" lon="5.72185">
        <ele>271.39999389648</ele>
        <time>2022-01-21T04:35:35.000Z</time>
      </trkpt>
      <trkpt lat="45.19563" lon="5.72186">
        <ele>271.79998779297</ele>
        <time>2022-01-21T04:35:36.000Z</time>
      </trkpt>
      <trkpt lat="45.19554" lon="5.72187">
        <ele>273.39999389648</ele>
        <time>2022-01-21T04:35:41.000Z</time>
      </trkpt>
      <trkpt lat="45.19552" lon="5.72187">
        <ele>273.39999389648</ele>
        <time>2022-01-21T04:35:42.000Z</time>
      </trkpt>
      <trkpt lat="45.19547" lon="5.72183">
        <ele>274.39999389648</ele>
        <time>2022-01-21T04:35:46.000Z</time>
      </trkpt>
      <trkpt lat="45.19543" lon="5.72182">
        <ele>274.60000610352</ele>
        <time>2022-01-21T04:35:48.000Z</time>
      </trkpt>
      <trkpt lat="45.19531" lon="5.7218">
        <ele>274</ele>
        <time>2022-01-21T04:35:54.000Z</time>
      </trkpt>
      <trkpt lat="45.19527" lon="5.72178">
        <ele>273.79998779297</ele>
        <time>2022-01-21T04:35:56.000Z</time>
      </trkpt>
      <trkpt lat="45.19517" lon="5.72173">
        <ele>274.20001220703</ele>
        <time>2022-01-21T04:36:02.000Z</time>
      </trkpt>
      <trkpt lat="45.19505" lon="5.72168">
        <ele>275</ele>
        <time>2022-01-21T04:36:08.000Z</time>
      </trkpt>
      <trkpt lat="45.19503" lon="5.72167">
        <ele>275.20001220703</ele>
        <time>2022-01-21T04:36:09.000Z</time>
      </trkpt>
      <trkpt lat="45.19501" lon="5.72166">
        <ele>275.60000610352</ele>
        <time>2022-01-21T04:36:10.000Z</time>
      </trkpt>
      <trkpt lat="45.19492" lon="5.72165">
        <ele>276.60000610352</ele>
        <time>2022-01-21T04:36:15.000Z</time>
      </trkpt>
      <trkpt lat="45.1949" lon="5.72166">
        <ele>276.60000610352</ele>
        <time>2022-01-21T04:36:16.000Z</time>
      </trkpt>
      <trkpt lat="45.19482" lon="5.72164">
        <ele>277.79998779297</ele>
        <time>2022-01-21T04:36:21.000Z</time>
      </trkpt>
      <trkpt lat="45.19481" lon="5.72164">
        <ele>278.60000610352</ele>
        <time>2022-01-21T04:36:23.000Z</time>
      </trkpt>
      <trkpt lat="45.19478" lon="5.72166">
        <ele>278.79998779297</ele>
        <time>2022-01-21T04:36:25.000Z</time>
      </trkpt>
      <trkpt lat="45.19474" lon="5.72167">
        <ele>279.79998779297</ele>
        <time>2022-01-21T04:36:27.000Z</time>
      </trkpt>
      <trkpt lat="45.1947" lon="5.7217">
        <ele>281</ele>
        <time>2022-01-21T04:36:30.000Z</time>
      </trkpt>
      <trkpt lat="45.19469" lon="5.7217">
        <ele>281</ele>
        <time>2022-01-21T04:36:31.000Z</time>
      </trkpt>
      <trkpt lat="45.19468" lon="5.72169">
        <ele>281</ele>
        <time>2022-01-21T04:36:33.000Z</time>
      </trkpt>
      <trkpt lat="45.19465" lon="5.72166">
        <ele>280.39999389648</ele>
        <time>2022-01-21T04:36:36.000Z</time>
      </trkpt>
      <trkpt lat="45.19464" lon="5.72165">
        <ele>279.79998779297</ele>
        <time>2022-01-21T04:36:37.000Z</time>
      </trkpt>
      <trkpt lat="45.19457" lon="5.72161">
        <ele>278.39999389648</ele>
        <time>2022-01-21T04:36:42.000Z</time>
      </trkpt>
      <trkpt lat="45.19457" lon="5.7216">
        <ele>278.20001220703</ele>
        <time>2022-01-21T04:36:43.000Z</time>
      </trkpt>
      <trkpt lat="45.19455" lon="5.72157">
        <ele>277</ele>
        <time>2022-01-21T04:36:46.000Z</time>
      </trkpt>
      <trkpt lat="45.19454" lon="5.72158">
        <ele>276.60000610352</ele>
        <time>2022-01-21T04:36:48.000Z</time>
      </trkpt>
      <trkpt lat="45.19452" lon="5.72161">
        <ele>276</ele>
        <time>2022-01-21T04:36:52.000Z</time>
      </trkpt>
      <trkpt lat="45.19451" lon="5.7216">
        <ele>276</ele>
        <time>2022-01-21T04:36:53.000Z</time>
      </trkpt>
      <trkpt lat="45.1945" lon="5.72159">
        <ele>276</ele>
        <time>2022-01-21T04:36:54.000Z</time>
      </trkpt>
      <trkpt lat="45.19449" lon="5.72159">
        <ele>275.79998779297</ele>
        <time>2022-01-21T04:36:56.000Z</time>
      </trkpt>
      <trkpt lat="45.19449" lon="5.7216">
        <ele>275.79998779297</ele>
        <time>2022-01-21T04:36:58.000Z</time>
      </trkpt>
      <trkpt lat="45.19448" lon="5.7216">
        <ele>275.79998779297</ele>
        <time>2022-01-21T04:37:00.000Z</time>
      </trkpt>
      <trkpt lat="45.19446" lon="5.72162">
        <ele>275.60000610352</ele>
        <time>2022-01-21T04:37:06.000Z</time>
      </trkpt>
      <trkpt lat="45.19447" lon="5.72162">
        <ele>275.60000610352</ele>
        <time>2022-01-21T04:37:10.000Z</time>
      </trkpt>
      <trkpt lat="45.19447" lon="5.72162">
        <ele>275.60000610352</ele>
        <time>2022-01-21T04:37:12.000Z</time>
      </trkpt>
      <trkpt lat="45.19447" lon="5.72162">
        <ele>275.60000610352</ele>
        <time>2022-01-21T04:37:14.000Z</time>
      </trkpt>
      <trkpt lat="45.19447" lon="5.72162">
        <ele>275.79998779297</ele>
        <time>2022-01-21T04:37:16.000Z</time>
      </trkpt>
      <trkpt lat="45.19447" lon="5.72162">
        <ele>275.60000610352</ele>
        <time>2022-01-21T04:37:19.000Z</time>
      </trkpt>
      <trkpt lat="45.19448" lon="5.72162">
        <ele>275.39999389648</ele>
        <time>2022-01-21T04:37:24.000Z</time>
      </trkpt>
      <trkpt lat="45.19448" lon="5.72162">
        <ele>275.39999389648</ele>
        <time>2022-01-21T04:37:25.000Z</time>
      </trkpt>
      <trkpt lat="45.19448" lon="5.72162">
        <ele>275.39999389648</ele>
        <time>2022-01-21T04:37:26.000Z</time>
      </trkpt>
      <trkpt lat="45.19448" lon="5.72162">
        <ele>275.20001220703</ele>
        <time>2022-01-21T04:37:27.000Z</time>
      </trkpt>
      <trkpt lat="45.19449" lon="5.72162">
        <ele>275.20001220703</ele>
        <time>2022-01-21T04:37:29.000Z</time>
      </trkpt>
      <trkpt lat="45.19452" lon="5.7216">
        <ele>275.79998779297</ele>
        <time>2022-01-21T04:37:31.000Z</time>
      </trkpt>
      <trkpt lat="45.19455" lon="5.72162">
        <ele>277.20001220703</ele>
        <time>2022-01-21T04:37:36.000Z</time>
      </trkpt>
      <trkpt lat="45.19458" lon="5.72165">
        <ele>278.20001220703</ele>
        <time>2022-01-21T04:37:41.000Z</time>
      </trkpt>
      <trkpt lat="45.19458" lon="5.72165">
        <ele>278.20001220703</ele>
        <time>2022-01-21T04:37:42.000Z</time>
      </trkpt>
      <trkpt lat="45.19459" lon="5.72167">
        <ele>279</ele>
        <time>2022-01-21T04:37:48.000Z</time>
      </trkpt>
      <trkpt lat="45.19459" lon="5.72167">
        <ele>279</ele>
        <time>2022-01-21T04:37:49.000Z</time>
      </trkpt>
      <trkpt lat="45.19458" lon="5.72166">
        <ele>279</ele>
        <time>2022-01-21T04:37:51.000Z</time>
      </trkpt>
      <trkpt lat="45.19458" lon="5.72166">
        <ele>278.79998779297</ele>
        <time>2022-01-21T04:37:55.000Z</time>
      </trkpt>
      <trkpt lat="45.19458" lon="5.72166">
        <ele>278.60000610352</ele>
        <time>2022-01-21T04:38:01.000Z</time>
      </trkpt>
      <trkpt lat="45.19458" lon="5.72166">
        <ele>278.60000610352</ele>
        <time>2022-01-21T04:38:06.000Z</time>
      </trkpt>
      <trkpt lat="45.19458" lon="5.72166">
        <ele>278.60000610352</ele>
        <time>2022-01-21T04:38:09.000Z</time>
      </trkpt>
      <trkpt lat="45.19458" lon="5.72166">
        <ele>278.60000610352</ele>
        <time>2022-01-21T04:38:10.000Z</time>
      </trkpt>
      <trkpt lat="45.19458" lon="5.72166">
        <ele>278.60000610352</ele>
        <time>2022-01-21T04:38:12.000Z</time>
      </trkpt>
      <trkpt lat="45.19458" lon="5.72166">
        <ele>278.60000610352</ele>
        <time>2022-01-21T04:38:14.000Z</time>
      </trkpt>
      <trkpt lat="45.19457" lon="5.72166">
        <ele>278.60000610352</ele>
        <time>2022-01-21T04:38:20.000Z</time>
      </trkpt>
      <trkpt lat="45.19455" lon="5.72167">
        <ele>278.20001220703</ele>
        <time>2022-01-21T04:38:25.000Z</time>
      </trkpt>
      <trkpt lat="45.19455" lon="5.72168">
        <ele>278.20001220703</ele>
        <time>2022-01-21T04:38:28.000Z</time>
      </trkpt>
      <trkpt lat="45.19455" lon="5.72168">
        <ele>278.20001220703</ele>
        <time>2022-01-21T04:38:30.000Z</time>
      </trkpt>
      <trkpt lat="45.19455" lon="5.72169">
        <ele>278.39999389648</ele>
        <time>2022-01-21T04:38:32.000Z</time>
      </trkpt>
      <trkpt lat="45.19457" lon="5.7217">
        <ele>279</ele>
        <time>2022-01-21T04:38:35.000Z</time>
      </trkpt>
      <trkpt lat="45.19461" lon="5.72173">
        <ele>279.39999389648</ele>
        <time>2022-01-21T04:38:37.000Z</time>
      </trkpt>
      <trkpt lat="45.19462" lon="5.72175">
        <ele>279.60000610352</ele>
        <time>2022-01-21T04:38:38.000Z</time>
      </trkpt>
      <trkpt lat="45.19465" lon="5.72178">
        <ele>280.60000610352</ele>
        <time>2022-01-21T04:38:40.000Z</time>
      </trkpt>
      <trkpt lat="45.19471" lon="5.72185">
        <ele>281</ele>
        <time>2022-01-21T04:38:44.000Z</time>
      </trkpt>
      <trkpt lat="45.19471" lon="5.72186">
        <ele>281.60000610352</ele>
        <time>2022-01-21T04:38:45.000Z</time>
      </trkpt>
      <trkpt lat="45.19472" lon="5.72188">
        <ele>281.79998779297</ele>
        <time>2022-01-21T04:38:46.000Z</time>
      </trkpt>
      <trkpt lat="45.19475" lon="5.72191">
        <ele>282.60000610352</ele>
        <time>2022-01-21T04:38:49.000Z</time>
      </trkpt>
      <trkpt lat="45.19478" lon="5.72195">
        <ele>283.79998779297</ele>
        <time>2022-01-21T04:38:53.000Z</time>
      </trkpt>
      <trkpt lat="45.19479" lon="5.72196">
        <ele>284.20001220703</ele>
        <time>2022-01-21T04:38:54.000Z</time>
      </trkpt>
      <trkpt lat="45.1948" lon="5.72197">
        <ele>284.60000610352</ele>
        <time>2022-01-21T04:38:55.000Z</time>
      </trkpt>
      <trkpt lat="45.19482" lon="5.72198">
        <ele>285.20001220703</ele>
        <time>2022-01-21T04:38:56.000Z</time>
      </trkpt>
      <trkpt lat="45.19484" lon="5.72199">
        <ele>286.20001220703</ele>
        <time>2022-01-21T04:38:58.000Z</time>
      </trkpt>
      <trkpt lat="45.19486" lon="5.72199">
        <ele>286.60000610352</ele>
        <time>2022-01-21T04:39:00.000Z</time>
      </trkpt>
      <trkpt lat="45.19489" lon="5.72198">
        <ele>287.79998779297</ele>
        <time>2022-01-21T04:39:02.000Z</time>
      </trkpt>
      <trkpt lat="45.19497" lon="5.72198">
        <ele>288.60000610352</ele>
        <time>2022-01-21T04:39:07.000Z</time>
      </trkpt>
      <trkpt lat="45.19499" lon="5.72199">
        <ele>289</ele>
        <time>2022-01-21T04:39:08.000Z</time>
      </trkpt>
      <trkpt lat="45.195" lon="5.72199">
        <ele>289.39999389648</ele>
        <time>2022-01-21T04:39:09.000Z</time>
      </trkpt>
      <trkpt lat="45.19505" lon="5.72201">
        <ele>289.79998779297</ele>
        <time>2022-01-21T04:39:12.000Z</time>
      </trkpt>
      <trkpt lat="45.19507" lon="5.72202">
        <ele>290</ele>
        <time>2022-01-21T04:39:13.000Z</time>
      </trkpt>
      <trkpt lat="45.19512" lon="5.72207">
        <ele>290.79998779297</ele>
        <time>2022-01-21T04:39:17.000Z</time>
      </trkpt>
      <trkpt lat="45.19515" lon="5.7221">
        <ele>291</ele>
        <time>2022-01-21T04:39:19.000Z</time>
      </trkpt>
      <trkpt lat="45.19519" lon="5.72212">
        <ele>291.60000610352</ele>
        <time>2022-01-21T04:39:21.000Z</time>
      </trkpt>
      <trkpt lat="45.19522" lon="5.72215">
        <ele>291.79998779297</ele>
        <time>2022-01-21T04:39:23.000Z</time>
      </trkpt>
      <trkpt lat="45.19525" lon="5.72217">
        <ele>292.20001220703</ele>
        <time>2022-01-21T04:39:25.000Z</time>
      </trkpt>
      <trkpt lat="45.19529" lon="5.72223">
        <ele>293.20001220703</ele>
        <time>2022-01-21T04:39:29.000Z</time>
      </trkpt>
      <trkpt lat="45.1953" lon="5.72224">
        <ele>293.60000610352</ele>
        <time>2022-01-21T04:39:30.000Z</time>
      </trkpt>
      <trkpt lat="45.19533" lon="5.72227">
        <ele>295.20001220703</ele>
        <time>2022-01-21T04:39:34.000Z</time>
      </trkpt>
      <trkpt lat="45.19534" lon="5.72229">
        <ele>295.60000610352</ele>
        <time>2022-01-21T04:39:36.000Z</time>
      </trkpt>
      <trkpt lat="45.19535" lon="5.7223">
        <ele>297.20001220703</ele>
        <time>2022-01-21T04:39:38.000Z</time>
      </trkpt>
      <trkpt lat="45.19538" lon="5.72231">
        <ele>299.60000610352</ele>
        <time>2022-01-21T04:39:42.000Z</time>
      </trkpt>
      <trkpt lat="45.19539" lon="5.7223">
        <ele>299.60000610352</ele>
        <time>2022-01-21T04:39:43.000Z</time>
      </trkpt>
      <trkpt lat="45.19541" lon="5.72229">
        <ele>299.60000610352</ele>
        <time>2022-01-21T04:39:45.000Z</time>
      </trkpt>
      <trkpt lat="45.19544" lon="5.72228">
        <ele>299.79998779297</ele>
        <time>2022-01-21T04:39:47.000Z</time>
      </trkpt>
      <trkpt lat="45.19554" lon="5.72231">
        <ele>300.20001220703</ele>
        <time>2022-01-21T04:39:53.000Z</time>
      </trkpt>
      <trkpt lat="45.19559" lon="5.72238">
        <ele>301</ele>
        <time>2022-01-21T04:39:57.000Z</time>
      </trkpt>
      <trkpt lat="45.19561" lon="5.72239">
        <ele>301.39999389648</ele>
        <time>2022-01-21T04:39:59.000Z</time>
      </trkpt>
      <trkpt lat="45.19563" lon="5.72241">
        <ele>302</ele>
        <time>2022-01-21T04:40:01.000Z</time>
      </trkpt>
      <trkpt lat="45.19565" lon="5.72242">
        <ele>302.20001220703</ele>
        <time>2022-01-21T04:40:02.000Z</time>
      </trkpt>
      <trkpt lat="45.19565" lon="5.72244">
        <ele>302.20001220703</ele>
        <time>2022-01-21T04:40:03.000Z</time>
      </trkpt>
      <trkpt lat="45.19567" lon="5.72245">
        <ele>302.20001220703</ele>
        <time>2022-01-21T04:40:04.000Z</time>
      </trkpt>
      <trkpt lat="45.1957" lon="5.72247">
        <ele>303.60000610352</ele>
        <time>2022-01-21T04:40:07.000Z</time>
      </trkpt>
      <trkpt lat="45.19572" lon="5.7225">
        <ele>303.79998779297</ele>
        <time>2022-01-21T04:40:09.000Z</time>
      </trkpt>
      <trkpt lat="45.19578" lon="5.72256">
        <ele>304.60000610352</ele>
        <time>2022-01-21T04:40:14.000Z</time>
      </trkpt>
      <trkpt lat="45.19582" lon="5.72259">
        <ele>305.60000610352</ele>
        <time>2022-01-21T04:40:17.000Z</time>
      </trkpt>
      <trkpt lat="45.19583" lon="5.72259">
        <ele>305.79998779297</ele>
        <time>2022-01-21T04:40:18.000Z</time>
      </trkpt>
      <trkpt lat="45.19587" lon="5.7226">
        <ele>306.79998779297</ele>
        <time>2022-01-21T04:40:21.000Z</time>
      </trkpt>
      <trkpt lat="45.19589" lon="5.72261">
        <ele>306.79998779297</ele>
        <time>2022-01-21T04:40:22.000Z</time>
      </trkpt>
      <trkpt lat="45.1959" lon="5.72262">
        <ele>306.79998779297</ele>
        <time>2022-01-21T04:40:23.000Z</time>
      </trkpt>
      <trkpt lat="45.19592" lon="5.72262">
        <ele>307</ele>
        <time>2022-01-21T04:40:24.000Z</time>
      </trkpt>
      <trkpt lat="45.19598" lon="5.72263">
        <ele>307.60000610352</ele>
        <time>2022-01-21T04:40:28.000Z</time>
      </trkpt>
      <trkpt lat="45.19602" lon="5.72264">
        <ele>308.20001220703</ele>
        <time>2022-01-21T04:40:30.000Z</time>
      </trkpt>
      <trkpt lat="45.19605" lon="5.72264">
        <ele>308.39999389648</ele>
        <time>2022-01-21T04:40:32.000Z</time>
      </trkpt>
      <trkpt lat="45.19609" lon="5.72265">
        <ele>308.79998779297</ele>
        <time>2022-01-21T04:40:34.000Z</time>
      </trkpt>
      <trkpt lat="45.19617" lon="5.72266">
        <ele>309.60000610352</ele>
        <time>2022-01-21T04:40:40.000Z</time>
      </trkpt>
      <trkpt lat="45.19627" lon="5.72266">
        <ele>310.60000610352</ele>
        <time>2022-01-21T04:40:46.000Z</time>
      </trkpt>
      <trkpt lat="45.19629" lon="5.72266">
        <ele>310.60000610352</ele>
        <time>2022-01-21T04:40:47.000Z</time>
      </trkpt>
      <trkpt lat="45.1963" lon="5.72266">
        <ele>310.79998779297</ele>
        <time>2022-01-21T04:40:48.000Z</time>
      </trkpt>
      <trkpt lat="45.19632" lon="5.72265">
        <ele>310.79998779297</ele>
        <time>2022-01-21T04:40:49.000Z</time>
      </trkpt>
      <trkpt lat="45.19638" lon="5.72266">
        <ele>312.20001220703</ele>
        <time>2022-01-21T04:40:53.000Z</time>
      </trkpt>
      <trkpt lat="45.19648" lon="5.72266">
        <ele>313.20001220703</ele>
        <time>2022-01-21T04:40:59.000Z</time>
      </trkpt>
      <trkpt lat="45.1965" lon="5.72266">
        <ele>313.39999389648</ele>
        <time>2022-01-21T04:41:00.000Z</time>
      </trkpt>
      <trkpt lat="45.19657" lon="5.72262">
        <ele>314.20001220703</ele>
        <time>2022-01-21T04:41:04.000Z</time>
      </trkpt>
      <trkpt lat="45.19661" lon="5.7226">
        <ele>314.60000610352</ele>
        <time>2022-01-21T04:41:06.000Z</time>
      </trkpt>
      <trkpt lat="45.19671" lon="5.7226">
        <ele>315.60000610352</ele>
        <time>2022-01-21T04:41:12.000Z</time>
      </trkpt>
      <trkpt lat="45.19674" lon="5.72259">
        <ele>316.20001220703</ele>
        <time>2022-01-21T04:41:14.000Z</time>
      </trkpt>
      <trkpt lat="45.19677" lon="5.72254">
        <ele>316.60000610352</ele>
        <time>2022-01-21T04:41:17.000Z</time>
      </trkpt>
      <trkpt lat="45.19679" lon="5.72252">
        <ele>317</ele>
        <time>2022-01-21T04:41:18.000Z</time>
      </trkpt>
      <trkpt lat="45.19685" lon="5.72241">
        <ele>318</ele>
        <time>2022-01-21T04:41:24.000Z</time>
      </trkpt>
      <trkpt lat="45.19685" lon="5.72238">
        <ele>318</ele>
        <time>2022-01-21T04:41:25.000Z</time>
      </trkpt>
      <trkpt lat="45.19689" lon="5.72224">
        <ele>319.20001220703</ele>
        <time>2022-01-21T04:41:31.000Z</time>
      </trkpt>
      <trkpt lat="45.19694" lon="5.72213">
        <ele>320.20001220703</ele>
        <time>2022-01-21T04:41:37.000Z</time>
      </trkpt>
      <trkpt lat="45.19701" lon="5.72203">
        <ele>321.39999389648</ele>
        <time>2022-01-21T04:41:42.000Z</time>
      </trkpt>
      <trkpt lat="45.19704" lon="5.722">
        <ele>321.60000610352</ele>
        <time>2022-01-21T04:41:44.000Z</time>
      </trkpt>
      <trkpt lat="45.19706" lon="5.722">
        <ele>321.60000610352</ele>
        <time>2022-01-21T04:41:45.000Z</time>
      </trkpt>
      <trkpt lat="45.19712" lon="5.72197">
        <ele>322.60000610352</ele>
        <time>2022-01-21T04:41:49.000Z</time>
      </trkpt>
      <trkpt lat="45.19717" lon="5.72195">
        <ele>323.20001220703</ele>
        <time>2022-01-21T04:41:52.000Z</time>
      </trkpt>
      <trkpt lat="45.19722" lon="5.72194">
        <ele>323.60000610352</ele>
        <time>2022-01-21T04:41:55.000Z</time>
      </trkpt>
      <trkpt lat="45.19725" lon="5.72197">
        <ele>323.79998779297</ele>
        <time>2022-01-21T04:41:58.000Z</time>
      </trkpt>
      <trkpt lat="45.19725" lon="5.72202">
        <ele>324.39999389648</ele>
        <time>2022-01-21T04:42:00.000Z</time>
      </trkpt>
      <trkpt lat="45.19724" lon="5.72204">
        <ele>324.60000610352</ele>
        <time>2022-01-21T04:42:01.000Z</time>
      </trkpt>
      <trkpt lat="45.19724" lon="5.72205">
        <ele>324.60000610352</ele>
        <time>2022-01-21T04:42:02.000Z</time>
      </trkpt>
      <trkpt lat="45.1972" lon="5.72209">
        <ele>325.79998779297</ele>
        <time>2022-01-21T04:42:06.000Z</time>
      </trkpt>
      <trkpt lat="45.19717" lon="5.72213">
        <ele>326.79998779297</ele>
        <time>2022-01-21T04:42:09.000Z</time>
      </trkpt>
      <trkpt lat="45.19716" lon="5.72216">
        <ele>327</ele>
        <time>2022-01-21T04:42:11.000Z</time>
      </trkpt>
      <trkpt lat="45.19715" lon="5.72219">
        <ele>327.79998779297</ele>
        <time>2022-01-21T04:42:13.000Z</time>
      </trkpt>
      <trkpt lat="45.19708" lon="5.72226">
        <ele>329.20001220703</ele>
        <time>2022-01-21T04:42:19.000Z</time>
      </trkpt>
      <trkpt lat="45.19708" lon="5.72228">
        <ele>329.20001220703</ele>
        <time>2022-01-21T04:42:20.000Z</time>
      </trkpt>
      <trkpt lat="45.19703" lon="5.72234">
        <ele>330.20001220703</ele>
        <time>2022-01-21T04:42:25.000Z</time>
      </trkpt>
      <trkpt lat="45.19699" lon="5.72237">
        <ele>330.60000610352</ele>
        <time>2022-01-21T04:42:27.000Z</time>
      </trkpt>
      <trkpt lat="45.19694" lon="5.72242">
        <ele>331</ele>
        <time>2022-01-21T04:42:31.000Z</time>
      </trkpt>
      <trkpt lat="45.19692" lon="5.72243">
        <ele>331</ele>
        <time>2022-01-21T04:42:33.000Z</time>
      </trkpt>
      <trkpt lat="45.1969" lon="5.72243">
        <ele>331.20001220703</ele>
        <time>2022-01-21T04:42:35.000Z</time>
      </trkpt>
      <trkpt lat="45.19691" lon="5.72241">
        <ele>331.39999389648</ele>
        <time>2022-01-21T04:42:41.000Z</time>
      </trkpt>
      <trkpt lat="45.19691" lon="5.7224">
        <ele>331.20001220703</ele>
        <time>2022-01-21T04:42:45.000Z</time>
      </trkpt>
      <trkpt lat="45.19691" lon="5.7224">
        <ele>331.39999389648</ele>
        <time>2022-01-21T04:42:51.000Z</time>
      </trkpt>
      <trkpt lat="45.19691" lon="5.7224">
        <ele>331.39999389648</ele>
        <time>2022-01-21T04:42:53.000Z</time>
      </trkpt>
      <trkpt lat="45.19691" lon="5.7224">
        <ele>331.39999389648</ele>
        <time>2022-01-21T04:42:55.000Z</time>
      </trkpt>
      <trkpt lat="45.19691" lon="5.7224">
        <ele>331.20001220703</ele>
        <time>2022-01-21T04:42:57.000Z</time>
      </trkpt>
      <trkpt lat="45.19691" lon="5.72239">
        <ele>331.20001220703</ele>
        <time>2022-01-21T04:43:03.000Z</time>
      </trkpt>
      <trkpt lat="45.19691" lon="5.72239">
        <ele>331.20001220703</ele>
        <time>2022-01-21T04:43:04.000Z</time>
      </trkpt>
      <trkpt lat="45.1969" lon="5.72239">
        <ele>331.20001220703</ele>
        <time>2022-01-21T04:43:05.000Z</time>
      </trkpt>
      <trkpt lat="45.1969" lon="5.72239">
        <ele>331.20001220703</ele>
        <time>2022-01-21T04:43:07.000Z</time>
      </trkpt>
      <trkpt lat="45.1969" lon="5.72239">
        <ele>331.20001220703</ele>
        <time>2022-01-21T04:43:09.000Z</time>
      </trkpt>
      <trkpt lat="45.1969" lon="5.72239">
        <ele>331.20001220703</ele>
        <time>2022-01-21T04:43:10.000Z</time>
      </trkpt>
      <trkpt lat="45.19692" lon="5.7224">
        <ele>331.39999389648</ele>
        <time>2022-01-21T04:43:12.000Z</time>
      </trkpt>
      <trkpt lat="45.19694" lon="5.7224">
        <ele>331.79998779297</ele>
        <time>2022-01-21T04:43:14.000Z</time>
      </trkpt>
      <trkpt lat="45.19701" lon="5.72242">
        <ele>332.39999389648</ele>
        <time>2022-01-21T04:43:19.000Z</time>
      </trkpt>
      <trkpt lat="45.19706" lon="5.72241">
        <ele>333.60000610352</ele>
        <time>2022-01-21T04:43:22.000Z</time>
      </trkpt>
      <trkpt lat="45.19709" lon="5.72242">
        <ele>333.60000610352</ele>
        <time>2022-01-21T04:43:24.000Z</time>
      </trkpt>
      <trkpt lat="45.19713" lon="5.72241">
        <ele>334.79998779297</ele>
        <time>2022-01-21T04:43:28.000Z</time>
      </trkpt>
      <trkpt lat="45.19719" lon="5.72241">
        <ele>336</ele>
        <time>2022-01-21T04:43:33.000Z</time>
      </trkpt>
      <trkpt lat="45.19721" lon="5.7224">
        <ele>336.60000610352</ele>
        <time>2022-01-21T04:43:35.000Z</time>
      </trkpt>
      <trkpt lat="45.19722" lon="5.72239">
        <ele>336.79998779297</ele>
        <time>2022-01-21T04:43:36.000Z</time>
      </trkpt>
      <trkpt lat="45.19724" lon="5.72239">
        <ele>337</ele>
        <time>2022-01-21T04:43:37.000Z</time>
      </trkpt>
      <trkpt lat="45.1973" lon="5.72237">
        <ele>337.60000610352</ele>
        <time>2022-01-21T04:43:40.000Z</time>
      </trkpt>
      <trkpt lat="45.19733" lon="5.72236">
        <ele>338.20001220703</ele>
        <time>2022-01-21T04:43:42.000Z</time>
      </trkpt>
      <trkpt lat="45.19739" lon="5.72238">
        <ele>338.60000610352</ele>
        <time>2022-01-21T04:43:46.000Z</time>
      </trkpt>
      <trkpt lat="45.19742" lon="5.72236">
        <ele>339.20001220703</ele>
        <time>2022-01-21T04:43:48.000Z</time>
      </trkpt>
      <trkpt lat="45.19748" lon="5.72235">
        <ele>339.60000610352</ele>
        <time>2022-01-21T04:43:51.000Z</time>
      </trkpt>
      <trkpt lat="45.19749" lon="5.72235">
        <ele>340</ele>
        <time>2022-01-21T04:43:52.000Z</time>
      </trkpt>
      <trkpt lat="45.19753" lon="5.72234">
        <ele>340.20001220703</ele>
        <time>2022-01-21T04:43:55.000Z</time>
      </trkpt>
      <trkpt lat="45.19757" lon="5.72232">
        <ele>341</ele>
        <time>2022-01-21T04:43:57.000Z</time>
      </trkpt>
      <trkpt lat="45.1976" lon="5.72232">
        <ele>341.39999389648</ele>
        <time>2022-01-21T04:43:59.000Z</time>
      </trkpt>
      <trkpt lat="45.19768" lon="5.72233">
        <ele>342</ele>
        <time>2022-01-21T04:44:03.000Z</time>
      </trkpt>
      <trkpt lat="45.19771" lon="5.72232">
        <ele>342.79998779297</ele>
        <time>2022-01-21T04:44:05.000Z</time>
      </trkpt>
      <trkpt lat="45.19774" lon="5.72232">
        <ele>343.20001220703</ele>
        <time>2022-01-21T04:44:07.000Z</time>
      </trkpt>
      <trkpt lat="45.19774" lon="5.72233">
        <ele>343.20001220703</ele>
        <time>2022-01-21T04:44:08.000Z</time>
      </trkpt>
      <trkpt lat="45.19773" lon="5.72234">
        <ele>344</ele>
        <time>2022-01-21T04:44:09.000Z</time>
      </trkpt>
      <trkpt lat="45.19772" lon="5.72236">
        <ele>344.20001220703</ele>
        <time>2022-01-21T04:44:10.000Z</time>
      </trkpt>
      <trkpt lat="45.19772" lon="5.72243">
        <ele>345</ele>
        <time>2022-01-21T04:44:13.000Z</time>
      </trkpt>
      <trkpt lat="45.19771" lon="5.72245">
        <ele>345.60000610352</ele>
        <time>2022-01-21T04:44:14.000Z</time>
      </trkpt>
      <trkpt lat="45.19771" lon="5.72248">
        <ele>345.60000610352</ele>
        <time>2022-01-21T04:44:16.000Z</time>
      </trkpt>
      <trkpt lat="45.19769" lon="5.7225">
        <ele>346.20001220703</ele>
        <time>2022-01-21T04:44:18.000Z</time>
      </trkpt>
      <trkpt lat="45.19772" lon="5.72249">
        <ele>346.60000610352</ele>
        <time>2022-01-21T04:44:21.000Z</time>
      </trkpt>
      <trkpt lat="45.19773" lon="5.72248">
        <ele>346.79998779297</ele>
        <time>2022-01-21T04:44:22.000Z</time>
      </trkpt>
      <trkpt lat="45.19774" lon="5.72246">
        <ele>347</ele>
        <time>2022-01-21T04:44:24.000Z</time>
      </trkpt>
      <trkpt lat="45.19776" lon="5.72242">
        <ele>347.79998779297</ele>
        <time>2022-01-21T04:44:27.000Z</time>
      </trkpt>
      <trkpt lat="45.19777" lon="5.72241">
        <ele>348</ele>
        <time>2022-01-21T04:44:29.000Z</time>
      </trkpt>
      <trkpt lat="45.19778" lon="5.72236">
        <ele>348.39999389648</ele>
        <time>2022-01-21T04:44:31.000Z</time>
      </trkpt>
      <trkpt lat="45.19779" lon="5.72233">
        <ele>348.39999389648</ele>
        <time>2022-01-21T04:44:33.000Z</time>
      </trkpt>
      <trkpt lat="45.19781" lon="5.72232">
        <ele>349</ele>
        <time>2022-01-21T04:44:35.000Z</time>
      </trkpt>
      <trkpt lat="45.19778" lon="5.72236">
        <ele>349.20001220703</ele>
        <time>2022-01-21T04:44:37.000Z</time>
      </trkpt>
      <trkpt lat="45.19777" lon="5.72238">
        <ele>349.79998779297</ele>
        <time>2022-01-21T04:44:39.000Z</time>
      </trkpt>
      <trkpt lat="45.19779" lon="5.72236">
        <ele>350</ele>
        <time>2022-01-21T04:44:42.000Z</time>
      </trkpt>
      <trkpt lat="45.1978" lon="5.72235">
        <ele>350.79998779297</ele>
        <time>2022-01-21T04:44:43.000Z</time>
      </trkpt>
      <trkpt lat="45.19783" lon="5.72233">
        <ele>351</ele>
        <time>2022-01-21T04:44:45.000Z</time>
      </trkpt>
      <trkpt lat="45.19784" lon="5.72234">
        <ele>351.39999389648</ele>
        <time>2022-01-21T04:44:46.000Z</time>
      </trkpt>
      <trkpt lat="45.19785" lon="5.72235">
        <ele>351.60000610352</ele>
        <time>2022-01-21T04:44:47.000Z</time>
      </trkpt>
      <trkpt lat="45.19785" lon="5.72239">
        <ele>352.60000610352</ele>
        <time>2022-01-21T04:44:51.000Z</time>
      </trkpt>
      <trkpt lat="45.19784" lon="5.72241">
        <ele>352.79998779297</ele>
        <time>2022-01-21T04:44:53.000Z</time>
      </trkpt>
      <trkpt lat="45.19784" lon="5.72242">
        <ele>352.79998779297</ele>
        <time>2022-01-21T04:44:54.000Z</time>
      </trkpt>
      <trkpt lat="45.19784" lon="5.72242">
        <ele>353.20001220703</ele>
        <time>2022-01-21T04:44:56.000Z</time>
      </trkpt>
      <trkpt lat="45.19787" lon="5.72238">
        <ele>354.20001220703</ele>
        <time>2022-01-21T04:44:59.000Z</time>
      </trkpt>
      <trkpt lat="45.1979" lon="5.72235">
        <ele>354.60000610352</ele>
        <time>2022-01-21T04:45:02.000Z</time>
      </trkpt>
      <trkpt lat="45.19789" lon="5.72239">
        <ele>355</ele>
        <time>2022-01-21T04:45:05.000Z</time>
      </trkpt>
      <trkpt lat="45.19789" lon="5.7224">
        <ele>355.39999389648</ele>
        <time>2022-01-21T04:45:06.000Z</time>
      </trkpt>
      <trkpt lat="45.19788" lon="5.72241">
        <ele>355.39999389648</ele>
        <time>2022-01-21T04:45:07.000Z</time>
      </trkpt>
      <trkpt lat="45.19785" lon="5.72243">
        <ele>356.39999389648</ele>
        <time>2022-01-21T04:45:10.000Z</time>
      </trkpt>
      <trkpt lat="45.19786" lon="5.72244">
        <ele>357</ele>
        <time>2022-01-21T04:45:12.000Z</time>
      </trkpt>
      <trkpt lat="45.19787" lon="5.72243">
        <ele>357.20001220703</ele>
        <time>2022-01-21T04:45:13.000Z</time>
      </trkpt>
      <trkpt lat="45.19794" lon="5.72239">
        <ele>358.20001220703</ele>
        <time>2022-01-21T04:45:18.000Z</time>
      </trkpt>
      <trkpt lat="45.19795" lon="5.7224">
        <ele>358.60000610352</ele>
        <time>2022-01-21T04:45:19.000Z</time>
      </trkpt>
      <trkpt lat="45.19793" lon="5.72243">
        <ele>359.20001220703</ele>
        <time>2022-01-21T04:45:23.000Z</time>
      </trkpt>
      <trkpt lat="45.19792" lon="5.72244">
        <ele>359.20001220703</ele>
        <time>2022-01-21T04:45:24.000Z</time>
      </trkpt>
      <trkpt lat="45.1979" lon="5.72247">
        <ele>359.79998779297</ele>
        <time>2022-01-21T04:45:27.000Z</time>
      </trkpt>
      <trkpt lat="45.19791" lon="5.72246">
        <ele>360</ele>
        <time>2022-01-21T04:45:29.000Z</time>
      </trkpt>
      <trkpt lat="45.19792" lon="5.72245">
        <ele>360.39999389648</ele>
        <time>2022-01-21T04:45:30.000Z</time>
      </trkpt>
      <trkpt lat="45.19793" lon="5.72244">
        <ele>360.60000610352</ele>
        <time>2022-01-21T04:45:32.000Z</time>
      </trkpt>
      <trkpt lat="45.19793" lon="5.72245">
        <ele>360.79998779297</ele>
        <time>2022-01-21T04:45:33.000Z</time>
      </trkpt>
      <trkpt lat="45.19793" lon="5.72246">
        <ele>361</ele>
        <time>2022-01-21T04:45:34.000Z</time>
      </trkpt>
      <trkpt lat="45.19794" lon="5.72247">
        <ele>361.39999389648</ele>
        <time>2022-01-21T04:45:35.000Z</time>
      </trkpt>
      <trkpt lat="45.19794" lon="5.72249">
        <ele>362</ele>
        <time>2022-01-21T04:45:37.000Z</time>
      </trkpt>
      <trkpt lat="45.19793" lon="5.72249">
        <ele>362.79998779297</ele>
        <time>2022-01-21T04:45:38.000Z</time>
      </trkpt>
      <trkpt lat="45.19794" lon="5.72251">
        <ele>363.20001220703</ele>
        <time>2022-01-21T04:45:40.000Z</time>
      </trkpt>
      <trkpt lat="45.19794" lon="5.72252">
        <ele>363.39999389648</ele>
        <time>2022-01-21T04:45:41.000Z</time>
      </trkpt>
      <trkpt lat="45.19795" lon="5.72248">
        <ele>364.20001220703</ele>
        <time>2022-01-21T04:45:46.000Z</time>
      </trkpt>
      <trkpt lat="45.19797" lon="5.72248">
        <ele>364.79998779297</ele>
        <time>2022-01-21T04:45:47.000Z</time>
      </trkpt>
      <trkpt lat="45.19797" lon="5.72248">
        <ele>365.20001220703</ele>
        <time>2022-01-21T04:45:48.000Z</time>
      </trkpt>
      <trkpt lat="45.19796" lon="5.72251">
        <ele>365.39999389648</ele>
        <time>2022-01-21T04:45:51.000Z</time>
      </trkpt>
      <trkpt lat="45.19795" lon="5.72252">
        <ele>366</ele>
        <time>2022-01-21T04:45:52.000Z</time>
      </trkpt>
      <trkpt lat="45.19791" lon="5.72253">
        <ele>366.39999389648</ele>
        <time>2022-01-21T04:45:54.000Z</time>
      </trkpt>
      <trkpt lat="45.19791" lon="5.72253">
        <ele>367</ele>
        <time>2022-01-21T04:45:56.000Z</time>
      </trkpt>
      <trkpt lat="45.19791" lon="5.72252">
        <ele>367</ele>
        <time>2022-01-21T04:45:57.000Z</time>
      </trkpt>
      <trkpt lat="45.19792" lon="5.7225">
        <ele>367.60000610352</ele>
        <time>2022-01-21T04:45:59.000Z</time>
      </trkpt>
      <trkpt lat="45.19794" lon="5.72249">
        <ele>367.79998779297</ele>
        <time>2022-01-21T04:46:00.000Z</time>
      </trkpt>
      <trkpt lat="45.19795" lon="5.72251">
        <ele>368.79998779297</ele>
        <time>2022-01-21T04:46:03.000Z</time>
      </trkpt>
      <trkpt lat="45.19796" lon="5.7225">
        <ele>369.79998779297</ele>
        <time>2022-01-21T04:46:06.000Z</time>
      </trkpt>
      <trkpt lat="45.19797" lon="5.7225">
        <ele>370.39999389648</ele>
        <time>2022-01-21T04:46:08.000Z</time>
      </trkpt>
      <trkpt lat="45.19797" lon="5.7225">
        <ele>371</ele>
        <time>2022-01-21T04:46:10.000Z</time>
      </trkpt>
      <trkpt lat="45.19796" lon="5.7225">
        <ele>372.20001220703</ele>
        <time>2022-01-21T04:46:13.000Z</time>
      </trkpt>
      <trkpt lat="45.19796" lon="5.72249">
        <ele>372.60000610352</ele>
        <time>2022-01-21T04:46:15.000Z</time>
      </trkpt>
      <trkpt lat="45.19796" lon="5.72248">
        <ele>372.60000610352</ele>
        <time>2022-01-21T04:46:16.000Z</time>
      </trkpt>
      <trkpt lat="45.19797" lon="5.72249">
        <ele>373.79998779297</ele>
        <time>2022-01-21T04:46:19.000Z</time>
      </trkpt>
      <trkpt lat="45.198" lon="5.72249">
        <ele>374.60000610352</ele>
        <time>2022-01-21T04:46:20.000Z</time>
      </trkpt>
      <trkpt lat="45.19802" lon="5.72249">
        <ele>374.79998779297</ele>
        <time>2022-01-21T04:46:21.000Z</time>
      </trkpt>
      <trkpt lat="45.19803" lon="5.72249">
        <ele>375.20001220703</ele>
        <time>2022-01-21T04:46:22.000Z</time>
      </trkpt>
      <trkpt lat="45.19805" lon="5.72247">
        <ele>376</ele>
        <time>2022-01-21T04:46:24.000Z</time>
      </trkpt>
      <trkpt lat="45.19805" lon="5.72247">
        <ele>376.79998779297</ele>
        <time>2022-01-21T04:46:25.000Z</time>
      </trkpt>
      <trkpt lat="45.19806" lon="5.72245">
        <ele>377.39999389648</ele>
        <time>2022-01-21T04:46:27.000Z</time>
      </trkpt>
      <trkpt lat="45.19807" lon="5.72242">
        <ele>377.79998779297</ele>
        <time>2022-01-21T04:46:29.000Z</time>
      </trkpt>
      <trkpt lat="45.19807" lon="5.7224">
        <ele>378</ele>
        <time>2022-01-21T04:46:31.000Z</time>
      </trkpt>
      <trkpt lat="45.19806" lon="5.72239">
        <ele>378</ele>
        <time>2022-01-21T04:46:34.000Z</time>
      </trkpt>
      <trkpt lat="45.19806" lon="5.7224">
        <ele>378.20001220703</ele>
        <time>2022-01-21T04:46:40.000Z</time>
      </trkpt>
      <trkpt lat="45.19803" lon="5.72243">
        <ele>378.39999389648</ele>
        <time>2022-01-21T04:46:46.000Z</time>
      </trkpt>
      <trkpt lat="45.19803" lon="5.72243">
        <ele>378.20001220703</ele>
        <time>2022-01-21T04:46:49.000Z</time>
      </trkpt>
      <trkpt lat="45.19803" lon="5.72243">
        <ele>378.20001220703</ele>
        <time>2022-01-21T04:46:54.000Z</time>
      </trkpt>
      <trkpt lat="45.19803" lon="5.72243">
        <ele>378.20001220703</ele>
        <time>2022-01-21T04:46:57.000Z</time>
      </trkpt>
      <trkpt lat="45.19803" lon="5.72243">
        <ele>378.20001220703</ele>
        <time>2022-01-21T04:46:59.000Z</time>
      </trkpt>
      <trkpt lat="45.19802" lon="5.72243">
        <ele>378.20001220703</ele>
        <time>2022-01-21T04:47:04.000Z</time>
      </trkpt>
      <trkpt lat="45.19802" lon="5.72242">
        <ele>378.20001220703</ele>
        <time>2022-01-21T04:47:10.000Z</time>
      </trkpt>
      <trkpt lat="45.19801" lon="5.72242">
        <ele>378</ele>
        <time>2022-01-21T04:47:14.000Z</time>
      </trkpt>
      <trkpt lat="45.19801" lon="5.72242">
        <ele>378</ele>
        <time>2022-01-21T04:47:17.000Z</time>
      </trkpt>
      <trkpt lat="45.19801" lon="5.72242">
        <ele>378</ele>
        <time>2022-01-21T04:47:23.000Z</time>
      </trkpt>
      <trkpt lat="45.198" lon="5.72242">
        <ele>377.79998779297</ele>
        <time>2022-01-21T04:47:29.000Z</time>
      </trkpt>
      <trkpt lat="45.198" lon="5.72242">
        <ele>377.79998779297</ele>
        <time>2022-01-21T04:47:31.000Z</time>
      </trkpt>
      <trkpt lat="45.198" lon="5.72242">
        <ele>377.79998779297</ele>
        <time>2022-01-21T04:47:32.000Z</time>
      </trkpt>
      <trkpt lat="45.198" lon="5.72242">
        <ele>377.79998779297</ele>
        <time>2022-01-21T04:47:34.000Z</time>
      </trkpt>
      <trkpt lat="45.198" lon="5.72242">
        <ele>377.60000610352</ele>
        <time>2022-01-21T04:47:40.000Z</time>
      </trkpt>
      <trkpt lat="45.198" lon="5.72241">
        <ele>377.60000610352</ele>
        <time>2022-01-21T04:47:42.000Z</time>
      </trkpt>
      <trkpt lat="45.19801" lon="5.7224">
        <ele>377.60000610352</ele>
        <time>2022-01-21T04:47:44.000Z</time>
      </trkpt>
      <trkpt lat="45.19803" lon="5.72233">
        <ele>377.60000610352</ele>
        <time>2022-01-21T04:47:47.000Z</time>
      </trkpt>
      <trkpt lat="45.19805" lon="5.72231">
        <ele>377.60000610352</ele>
        <time>2022-01-21T04:47:48.000Z</time>
      </trkpt>
      <trkpt lat="45.19813" lon="5.72223">
        <ele>377.60000610352</ele>
        <time>2022-01-21T04:47:53.000Z</time>
      </trkpt>
      <trkpt lat="45.19818" lon="5.72227">
        <ele>378.20001220703</ele>
        <time>2022-01-21T04:47:57.000Z</time>
      </trkpt>
      <trkpt lat="45.1982" lon="5.72229">
        <ele>379.39999389648</ele>
        <time>2022-01-21T04:47:59.000Z</time>
      </trkpt>
      <trkpt lat="45.19823" lon="5.72231">
        <ele>380.60000610352</ele>
        <time>2022-01-21T04:48:02.000Z</time>
      </trkpt>
      <trkpt lat="45.19823" lon="5.72235">
        <ele>382.39999389648</ele>
        <time>2022-01-21T04:48:05.000Z</time>
      </trkpt>
      <trkpt lat="45.19824" lon="5.72236">
        <ele>382.79998779297</ele>
        <time>2022-01-21T04:48:06.000Z</time>
      </trkpt>
      <trkpt lat="45.19823" lon="5.7224">
        <ele>383.79998779297</ele>
        <time>2022-01-21T04:48:10.000Z</time>
      </trkpt>
      <trkpt lat="45.19823" lon="5.72244">
        <ele>384.20001220703</ele>
        <time>2022-01-21T04:48:12.000Z</time>
      </trkpt>
      <trkpt lat="45.19823" lon="5.72244">
        <ele>384.79998779297</ele>
        <time>2022-01-21T04:48:14.000Z</time>
      </trkpt>
      <trkpt lat="45.19823" lon="5.72245">
        <ele>385.20001220703</ele>
        <time>2022-01-21T04:48:15.000Z</time>
      </trkpt>
      <trkpt lat="45.19822" lon="5.72248">
        <ele>386</ele>
        <time>2022-01-21T04:48:17.000Z</time>
      </trkpt>
      <trkpt lat="45.19822" lon="5.72253">
        <ele>386.20001220703</ele>
        <time>2022-01-21T04:48:20.000Z</time>
      </trkpt>
      <trkpt lat="45.19823" lon="5.72258">
        <ele>386.39999389648</ele>
        <time>2022-01-21T04:48:22.000Z</time>
      </trkpt>
      <trkpt lat="45.19824" lon="5.72263">
        <ele>387.79998779297</ele>
        <time>2022-01-21T04:48:25.000Z</time>
      </trkpt>
      <trkpt lat="45.19824" lon="5.72265">
        <ele>388.39999389648</ele>
        <time>2022-01-21T04:48:27.000Z</time>
      </trkpt>
      <trkpt lat="45.19863" lon="5.72228">
        <ele>398</ele>
        <time>2022-01-21T04:48:54.000Z</time>
      </trkpt>
      <trkpt lat="45.19841" lon="5.72241">
        <ele>398.79998779297</ele>
        <time>2022-01-21T04:48:57.000Z</time>
      </trkpt>
      <trkpt lat="45.19839" lon="5.72241">
        <ele>399</ele>
        <time>2022-01-21T04:48:58.000Z</time>
      </trkpt>
      <trkpt lat="45.19838" lon="5.72243">
        <ele>400.79998779297</ele>
        <time>2022-01-21T04:49:00.000Z</time>
      </trkpt>
      <trkpt lat="45.19838" lon="5.72244">
        <ele>401.60000610352</ele>
        <time>2022-01-21T04:49:02.000Z</time>
      </trkpt>
      <trkpt lat="45.19838" lon="5.72247">
        <ele>401.79998779297</ele>
        <time>2022-01-21T04:49:05.000Z</time>
      </trkpt>
      <trkpt lat="45.19836" lon="5.72249">
        <ele>402</ele>
        <time>2022-01-21T04:49:06.000Z</time>
      </trkpt>
      <trkpt lat="45.19834" lon="5.72251">
        <ele>401.79998779297</ele>
        <time>2022-01-21T04:49:07.000Z</time>
      </trkpt>
      <trkpt lat="45.19829" lon="5.72264">
        <ele>402.20001220703</ele>
        <time>2022-01-21T04:49:13.000Z</time>
      </trkpt>
      <trkpt lat="45.19827" lon="5.72274">
        <ele>402.39999389648</ele>
        <time>2022-01-21T04:49:17.000Z</time>
      </trkpt>
      <trkpt lat="45.19826" lon="5.72279">
        <ele>402.79998779297</ele>
        <time>2022-01-21T04:49:19.000Z</time>
      </trkpt>
      <trkpt lat="45.19822" lon="5.72293">
        <ele>403.79998779297</ele>
        <time>2022-01-21T04:49:25.000Z</time>
      </trkpt>
      <trkpt lat="45.19821" lon="5.72295">
        <ele>403.79998779297</ele>
        <time>2022-01-21T04:49:26.000Z</time>
      </trkpt>
      <trkpt lat="45.19819" lon="5.72299">
        <ele>404</ele>
        <time>2022-01-21T04:49:28.000Z</time>
      </trkpt>
      <trkpt lat="45.19814" lon="5.72312">
        <ele>404.79998779297</ele>
        <time>2022-01-21T04:49:34.000Z</time>
      </trkpt>
      <trkpt lat="45.19813" lon="5.72315">
        <ele>405</ele>
        <time>2022-01-21T04:49:35.000Z</time>
      </trkpt>
      <trkpt lat="45.19811" lon="5.72328">
        <ele>405.39999389648</ele>
        <time>2022-01-21T04:49:41.000Z</time>
      </trkpt>
      <trkpt lat="45.19812" lon="5.72331">
        <ele>405.39999389648</ele>
        <time>2022-01-21T04:49:43.000Z</time>
      </trkpt>
      <trkpt lat="45.19817" lon="5.72338">
        <ele>415.79998779297</ele>
        <time>2022-01-21T04:50:22.000Z</time>
      </trkpt>
      <trkpt lat="45.19822" lon="5.72325">
        <ele>415.79998779297</ele>
        <time>2022-01-21T04:50:26.000Z</time>
      </trkpt>
      <trkpt lat="45.1982" lon="5.72318">
        <ele>415.79998779297</ele>
        <time>2022-01-21T04:50:28.000Z</time>
      </trkpt>
      <trkpt lat="45.19826" lon="5.72301">
        <ele>415.79998779297</ele>
        <time>2022-01-21T04:50:34.000Z</time>
      </trkpt>
      <trkpt lat="45.19824" lon="5.72299">
        <ele>415.60000610352</ele>
        <time>2022-01-21T04:50:37.000Z</time>
      </trkpt>
      <trkpt lat="45.19822" lon="5.723">
        <ele>415.79998779297</ele>
        <time>2022-01-21T04:50:39.000Z</time>
      </trkpt>
      <trkpt lat="45.1982" lon="5.723">
        <ele>415.79998779297</ele>
        <time>2022-01-21T04:50:43.000Z</time>
      </trkpt>
      <trkpt lat="45.19822" lon="5.72299">
        <ele>415.79998779297</ele>
        <time>2022-01-21T04:50:48.000Z</time>
      </trkpt>
      <trkpt lat="45.19822" lon="5.72299">
        <ele>415.79998779297</ele>
        <time>2022-01-21T04:50:51.000Z</time>
      </trkpt>
      <trkpt lat="45.19822" lon="5.72299">
        <ele>415.79998779297</ele>
        <time>2022-01-21T04:50:53.000Z</time>
      </trkpt>
      <trkpt lat="45.19822" lon="5.72299">
        <ele>415.79998779297</ele>
        <time>2022-01-21T04:50:56.000Z</time>
      </trkpt>
      <trkpt lat="45.19822" lon="5.72299">
        <ele>415.79998779297</ele>
        <time>2022-01-21T04:50:57.000Z</time>
      </trkpt>
      <trkpt lat="45.19822" lon="5.72299">
        <ele>415.79998779297</ele>
        <time>2022-01-21T04:50:58.000Z</time>
      </trkpt>
      <trkpt lat="45.19822" lon="5.72299">
        <ele>415.79998779297</ele>
        <time>2022-01-21T04:51:03.000Z</time>
      </trkpt>
      <trkpt lat="45.19822" lon="5.723">
        <ele>416.20001220703</ele>
        <time>2022-01-21T04:51:09.000Z</time>
      </trkpt>
      <trkpt lat="45.19822" lon="5.723">
        <ele>416.39999389648</ele>
        <time>2022-01-21T04:51:13.000Z</time>
      </trkpt>
      <trkpt lat="45.19822" lon="5.723">
        <ele>416.20001220703</ele>
        <time>2022-01-21T04:51:14.000Z</time>
      </trkpt>
      <trkpt lat="45.19822" lon="5.723">
        <ele>416.20001220703</ele>
        <time>2022-01-21T04:51:16.000Z</time>
      </trkpt>
      <trkpt lat="45.19822" lon="5.723">
        <ele>416.20001220703</ele>
        <time>2022-01-21T04:51:17.000Z</time>
      </trkpt>
      <trkpt lat="45.19822" lon="5.723">
        <ele>416.20001220703</ele>
        <time>2022-01-21T04:51:19.000Z</time>
      </trkpt>
      <trkpt lat="45.19822" lon="5.723">
        <ele>416.20001220703</ele>
        <time>2022-01-21T04:51:20.000Z</time>
      </trkpt>
      <trkpt lat="45.19821" lon="5.723">
        <ele>415.79998779297</ele>
        <time>2022-01-21T04:51:23.000Z</time>
      </trkpt>
      <trkpt lat="45.19821" lon="5.723">
        <ele>415.79998779297</ele>
        <time>2022-01-21T04:51:29.000Z</time>
      </trkpt>
      <trkpt lat="45.19821" lon="5.723">
        <ele>416</ele>
        <time>2022-01-21T04:51:31.000Z</time>
      </trkpt>
      <trkpt lat="45.19821" lon="5.723">
        <ele>415.79998779297</ele>
        <time>2022-01-21T04:51:33.000Z</time>
      </trkpt>
      <trkpt lat="45.19821" lon="5.723">
        <ele>415.79998779297</ele>
        <time>2022-01-21T04:51:35.000Z</time>
      </trkpt>
      <trkpt lat="45.19821" lon="5.72299">
        <ele>415.79998779297</ele>
        <time>2022-01-21T04:51:38.000Z</time>
      </trkpt>
      <trkpt lat="45.19821" lon="5.723">
        <ele>415.79998779297</ele>
        <time>2022-01-21T04:51:40.000Z</time>
      </trkpt>
      <trkpt lat="45.1982" lon="5.72302">
        <ele>415.60000610352</ele>
        <time>2022-01-21T04:51:41.000Z</time>
      </trkpt>
      <trkpt lat="45.19819" lon="5.72307">
        <ele>415.60000610352</ele>
        <time>2022-01-21T04:51:43.000Z</time>
      </trkpt>
      <trkpt lat="45.19819" lon="5.72309">
        <ele>415.79998779297</ele>
        <time>2022-01-21T04:51:44.000Z</time>
      </trkpt>
      <trkpt lat="45.19818" lon="5.72312">
        <ele>415.60000610352</ele>
        <time>2022-01-21T04:51:45.000Z</time>
      </trkpt>
      <trkpt lat="45.19815" lon="5.72322">
        <ele>415.79998779297</ele>
        <time>2022-01-21T04:51:49.000Z</time>
      </trkpt>
      <trkpt lat="45.19816" lon="5.72323">
        <ele>415.79998779297</ele>
        <time>2022-01-21T04:51:50.000Z</time>
      </trkpt>
      <trkpt lat="45.19818" lon="5.72328">
        <ele>416.60000610352</ele>
        <time>2022-01-21T04:51:53.000Z</time>
      </trkpt>
      <trkpt lat="45.19818" lon="5.7233">
        <ele>418.20001220703</ele>
        <time>2022-01-21T04:51:54.000Z</time>
      </trkpt>
      <trkpt lat="45.19818" lon="5.72332">
        <ele>418.20001220703</ele>
        <time>2022-01-21T04:51:56.000Z</time>
      </trkpt>
      <trkpt lat="45.19818" lon="5.72333">
        <ele>419.60000610352</ele>
        <time>2022-01-21T04:51:57.000Z</time>
      </trkpt>
      <trkpt lat="45.19819" lon="5.72336">
        <ele>421</ele>
        <time>2022-01-21T04:52:00.000Z</time>
      </trkpt>
      <trkpt lat="45.19819" lon="5.72338">
        <ele>421.39999389648</ele>
        <time>2022-01-21T04:52:02.000Z</time>
      </trkpt>
      <trkpt lat="45.1982" lon="5.7234">
        <ele>422.60000610352</ele>
        <time>2022-01-21T04:52:04.000Z</time>
      </trkpt>
      <trkpt lat="45.1982" lon="5.72343">
        <ele>423</ele>
        <time>2022-01-21T04:52:06.000Z</time>
      </trkpt>
      <trkpt lat="45.1982" lon="5.72345">
        <ele>423.79998779297</ele>
        <time>2022-01-21T04:52:07.000Z</time>
      </trkpt>
      <trkpt lat="45.1982" lon="5.72347">
        <ele>424.60000610352</ele>
        <time>2022-01-21T04:52:09.000Z</time>
      </trkpt>
      <trkpt lat="45.1982" lon="5.72348">
        <ele>424.79998779297</ele>
        <time>2022-01-21T04:52:10.000Z</time>
      </trkpt>
      <trkpt lat="45.19821" lon="5.7235">
        <ele>426.20001220703</ele>
        <time>2022-01-21T04:52:12.000Z</time>
      </trkpt>
      <trkpt lat="45.19822" lon="5.72355">
        <ele>426.79998779297</ele>
        <time>2022-01-21T04:52:15.000Z</time>
      </trkpt>
      <trkpt lat="45.19822" lon="5.72356">
        <ele>427.39999389648</ele>
        <time>2022-01-21T04:52:16.000Z</time>
      </trkpt>
      <trkpt lat="45.19822" lon="5.7236">
        <ele>428</ele>
        <time>2022-01-21T04:52:19.000Z</time>
      </trkpt>
      <trkpt lat="45.19821" lon="5.72369">
        <ele>428.20001220703</ele>
        <time>2022-01-21T04:52:22.000Z</time>
      </trkpt>
      <trkpt lat="45.1982" lon="5.72371">
        <ele>428.39999389648</ele>
        <time>2022-01-21T04:52:23.000Z</time>
      </trkpt>
      <trkpt lat="45.19819" lon="5.72374">
        <ele>428.39999389648</ele>
        <time>2022-01-21T04:52:24.000Z</time>
      </trkpt>
      <trkpt lat="45.19817" lon="5.72378">
        <ele>428.60000610352</ele>
        <time>2022-01-21T04:52:26.000Z</time>
      </trkpt>
      <trkpt lat="45.19819" lon="5.7238">
        <ele>428.60000610352</ele>
        <time>2022-01-21T04:52:28.000Z</time>
      </trkpt>
      <trkpt lat="45.19821" lon="5.72378">
        <ele>429</ele>
        <time>2022-01-21T04:52:30.000Z</time>
      </trkpt>
      <trkpt lat="45.19821" lon="5.72377">
        <ele>430</ele>
        <time>2022-01-21T04:52:31.000Z</time>
      </trkpt>
      <trkpt lat="45.19824" lon="5.72375">
        <ele>432.39999389648</ele>
        <time>2022-01-21T04:52:35.000Z</time>
      </trkpt>
      <trkpt lat="45.19824" lon="5.72375">
        <ele>433.39999389648</ele>
        <time>2022-01-21T04:52:39.000Z</time>
      </trkpt>
      <trkpt lat="45.19822" lon="5.72376">
        <ele>434.60000610352</ele>
        <time>2022-01-21T04:52:41.000Z</time>
      </trkpt>
      <trkpt lat="45.19821" lon="5.72378">
        <ele>435</ele>
        <time>2022-01-21T04:52:43.000Z</time>
      </trkpt>
      <trkpt lat="45.19821" lon="5.72379">
        <ele>435</ele>
        <time>2022-01-21T04:52:44.000Z</time>
      </trkpt>
      <trkpt lat="45.19821" lon="5.72382">
        <ele>435.20001220703</ele>
        <time>2022-01-21T04:52:45.000Z</time>
      </trkpt>
      <trkpt lat="45.19822" lon="5.72384">
        <ele>435.20001220703</ele>
        <time>2022-01-21T04:52:46.000Z</time>
      </trkpt>
      <trkpt lat="45.19825" lon="5.72388">
        <ele>435.60000610352</ele>
        <time>2022-01-21T04:52:48.000Z</time>
      </trkpt>
      <trkpt lat="45.1983" lon="5.72395">
        <ele>436.39999389648</ele>
        <time>2022-01-21T04:52:52.000Z</time>
      </trkpt>
      <trkpt lat="45.1983" lon="5.72396">
        <ele>436.60000610352</ele>
        <time>2022-01-21T04:52:53.000Z</time>
      </trkpt>
      <trkpt lat="45.19831" lon="5.72396">
        <ele>436.79998779297</ele>
        <time>2022-01-21T04:52:54.000Z</time>
      </trkpt>
      <trkpt lat="45.19833" lon="5.72394">
        <ele>437.20001220703</ele>
        <time>2022-01-21T04:52:56.000Z</time>
      </trkpt>
      <trkpt lat="45.19834" lon="5.72393">
        <ele>437.20001220703</ele>
        <time>2022-01-21T04:52:57.000Z</time>
      </trkpt>
      <trkpt lat="45.19834" lon="5.72392">
        <ele>437.79998779297</ele>
        <time>2022-01-21T04:52:58.000Z</time>
      </trkpt>
      <trkpt lat="45.19836" lon="5.72393">
        <ele>439</ele>
        <time>2022-01-21T04:53:00.000Z</time>
      </trkpt>
      <trkpt lat="45.19839" lon="5.72391">
        <ele>440.20001220703</ele>
        <time>2022-01-21T04:53:04.000Z</time>
      </trkpt>
      <trkpt lat="45.19841" lon="5.72391">
        <ele>440.20001220703</ele>
        <time>2022-01-21T04:53:05.000Z</time>
      </trkpt>
      <trkpt lat="45.19846" lon="5.72391">
        <ele>440.39999389648</ele>
        <time>2022-01-21T04:53:08.000Z</time>
      </trkpt>
      <trkpt lat="45.19847" lon="5.72393">
        <ele>440.79998779297</ele>
        <time>2022-01-21T04:53:11.000Z</time>
      </trkpt>
      <trkpt lat="45.19847" lon="5.72395">
        <ele>441.60000610352</ele>
        <time>2022-01-21T04:53:12.000Z</time>
      </trkpt>
      <trkpt lat="45.19849" lon="5.72398">
        <ele>442.79998779297</ele>
        <time>2022-01-21T04:53:15.000Z</time>
      </trkpt>
      <trkpt lat="45.19849" lon="5.72399">
        <ele>443.79998779297</ele>
        <time>2022-01-21T04:53:17.000Z</time>
      </trkpt>
      <trkpt lat="45.1985" lon="5.72395">
        <ele>445</ele>
        <time>2022-01-21T04:53:20.000Z</time>
      </trkpt>
      <trkpt lat="45.1985" lon="5.72394">
        <ele>445.39999389648</ele>
        <time>2022-01-21T04:53:21.000Z</time>
      </trkpt>
      <trkpt lat="45.1985" lon="5.72396">
        <ele>446</ele>
        <time>2022-01-21T04:53:25.000Z</time>
      </trkpt>
      <trkpt lat="45.1985" lon="5.724">
        <ele>447.20001220703</ele>
        <time>2022-01-21T04:53:28.000Z</time>
      </trkpt>
      <trkpt lat="45.1985" lon="5.72401">
        <ele>448.39999389648</ele>
        <time>2022-01-21T04:53:29.000Z</time>
      </trkpt>
      <trkpt lat="45.19851" lon="5.72404">
        <ele>449.60000610352</ele>
        <time>2022-01-21T04:53:32.000Z</time>
      </trkpt>
      <trkpt lat="45.1985" lon="5.72405">
        <ele>449.60000610352</ele>
        <time>2022-01-21T04:53:33.000Z</time>
      </trkpt>
      <trkpt lat="45.19849" lon="5.72405">
        <ele>451.20001220703</ele>
        <time>2022-01-21T04:53:36.000Z</time>
      </trkpt>
      <trkpt lat="45.19851" lon="5.72404">
        <ele>452.60000610352</ele>
        <time>2022-01-21T04:53:40.000Z</time>
      </trkpt>
      <trkpt lat="45.19852" lon="5.72403">
        <ele>453.60000610352</ele>
        <time>2022-01-21T04:53:42.000Z</time>
      </trkpt>
      <trkpt lat="45.19851" lon="5.72402">
        <ele>454.60000610352</ele>
        <time>2022-01-21T04:53:44.000Z</time>
      </trkpt>
      <trkpt lat="45.19853" lon="5.724">
        <ele>454.60000610352</ele>
        <time>2022-01-21T04:53:46.000Z</time>
      </trkpt>
      <trkpt lat="45.19853" lon="5.72399">
        <ele>454.79998779297</ele>
        <time>2022-01-21T04:53:47.000Z</time>
      </trkpt>
      <trkpt lat="45.19853" lon="5.72394">
        <ele>454.79998779297</ele>
        <time>2022-01-21T04:53:51.000Z</time>
      </trkpt>
      <trkpt lat="45.19853" lon="5.72394">
        <ele>454.79998779297</ele>
        <time>2022-01-21T04:53:52.000Z</time>
      </trkpt>
      <trkpt lat="45.19852" lon="5.72396">
        <ele>454.79998779297</ele>
        <time>2022-01-21T04:53:55.000Z</time>
      </trkpt>
      <trkpt lat="45.19852" lon="5.72401">
        <ele>454.79998779297</ele>
        <time>2022-01-21T04:53:58.000Z</time>
      </trkpt>
      <trkpt lat="45.19852" lon="5.72404">
        <ele>455.60000610352</ele>
        <time>2022-01-21T04:54:00.000Z</time>
      </trkpt>
      <trkpt lat="45.19852" lon="5.72406">
        <ele>455.79998779297</ele>
        <time>2022-01-21T04:54:01.000Z</time>
      </trkpt>
      <trkpt lat="45.19851" lon="5.72407">
        <ele>456.60000610352</ele>
        <time>2022-01-21T04:54:02.000Z</time>
      </trkpt>
      <trkpt lat="45.19851" lon="5.72411">
        <ele>457.20001220703</ele>
        <time>2022-01-21T04:54:05.000Z</time>
      </trkpt>
      <trkpt lat="45.1985" lon="5.72411">
        <ele>458.20001220703</ele>
        <time>2022-01-21T04:54:06.000Z</time>
      </trkpt>
      <trkpt lat="45.1985" lon="5.72414">
        <ele>459.20001220703</ele>
        <time>2022-01-21T04:54:09.000Z</time>
      </trkpt>
      <trkpt lat="45.1985" lon="5.72416">
        <ele>460.39999389648</ele>
        <time>2022-01-21T04:54:11.000Z</time>
      </trkpt>
      <trkpt lat="45.19849" lon="5.72417">
        <ele>461.20001220703</ele>
        <time>2022-01-21T04:54:12.000Z</time>
      </trkpt>
      <trkpt lat="45.1985" lon="5.72418">
        <ele>461.60000610352</ele>
        <time>2022-01-21T04:54:13.000Z</time>
      </trkpt>
      <trkpt lat="45.1985" lon="5.72422">
        <ele>462.60000610352</ele>
        <time>2022-01-21T04:54:16.000Z</time>
      </trkpt>
      <trkpt lat="45.19848" lon="5.72427">
        <ele>464.39999389648</ele>
        <time>2022-01-21T04:54:21.000Z</time>
      </trkpt>
      <trkpt lat="45.19847" lon="5.72436">
        <ele>465.39999389648</ele>
        <time>2022-01-21T04:54:27.000Z</time>
      </trkpt>
      <trkpt lat="45.19847" lon="5.72438">
        <ele>465.39999389648</ele>
        <time>2022-01-21T04:54:28.000Z</time>
      </trkpt>
      <trkpt lat="45.19847" lon="5.7244">
        <ele>465.39999389648</ele>
        <time>2022-01-21T04:54:29.000Z</time>
      </trkpt>
      <trkpt lat="45.19848" lon="5.72451">
        <ele>466.20001220703</ele>
        <time>2022-01-21T04:54:34.000Z</time>
      </trkpt>
      <trkpt lat="45.19848" lon="5.72456">
        <ele>466.60000610352</ele>
        <time>2022-01-21T04:54:36.000Z</time>
      </trkpt>
      <trkpt lat="45.19848" lon="5.7246">
        <ele>466.79998779297</ele>
        <time>2022-01-21T04:54:38.000Z</time>
      </trkpt>
      <trkpt lat="45.19847" lon="5.72464">
        <ele>467.39999389648</ele>
        <time>2022-01-21T04:54:40.000Z</time>
      </trkpt>
      <trkpt lat="45.19848" lon="5.72472">
        <ele>467.79998779297</ele>
        <time>2022-01-21T04:54:43.000Z</time>
      </trkpt>
      <trkpt lat="45.19849" lon="5.72478">
        <ele>468.20001220703</ele>
        <time>2022-01-21T04:54:46.000Z</time>
      </trkpt>
      <trkpt lat="45.1985" lon="5.72486">
        <ele>468.79998779297</ele>
        <time>2022-01-21T04:54:49.000Z</time>
      </trkpt>
      <trkpt lat="45.1985" lon="5.72493">
        <ele>469.20001220703</ele>
        <time>2022-01-21T04:54:52.000Z</time>
      </trkpt>
      <trkpt lat="45.1985" lon="5.72496">
        <ele>470</ele>
        <time>2022-01-21T04:54:53.000Z</time>
      </trkpt>
      <trkpt lat="45.19851" lon="5.7251">
        <ele>471</ele>
        <time>2022-01-21T04:54:59.000Z</time>
      </trkpt>
      <trkpt lat="45.1985" lon="5.72513">
        <ele>471.20001220703</ele>
        <time>2022-01-21T04:55:00.000Z</time>
      </trkpt>
      <trkpt lat="45.19852" lon="5.72526">
        <ele>472.20001220703</ele>
        <time>2022-01-21T04:55:05.000Z</time>
      </trkpt>
      <trkpt lat="45.19852" lon="5.7254">
        <ele>473.20001220703</ele>
        <time>2022-01-21T04:55:10.000Z</time>
      </trkpt>
      <trkpt lat="45.19852" lon="5.72543">
        <ele>473.60000610352</ele>
        <time>2022-01-21T04:55:11.000Z</time>
      </trkpt>
      <trkpt lat="45.19854" lon="5.72555">
        <ele>474.39999389648</ele>
        <time>2022-01-21T04:55:16.000Z</time>
      </trkpt>
      <trkpt lat="45.19856" lon="5.72555">
        <ele>474.39999389648</ele>
        <time>2022-01-21T04:55:18.000Z</time>
      </trkpt>
      <trkpt lat="45.19856" lon="5.72553">
        <ele>474.60000610352</ele>
        <time>2022-01-21T04:55:19.000Z</time>
      </trkpt>
      <trkpt lat="45.19856" lon="5.72543">
        <ele>476</ele>
        <time>2022-01-21T04:55:23.000Z</time>
      </trkpt>
      <trkpt lat="45.19855" lon="5.72533">
        <ele>476.60000610352</ele>
        <time>2022-01-21T04:55:27.000Z</time>
      </trkpt>
      <trkpt lat="45.19855" lon="5.72523">
        <ele>477.20001220703</ele>
        <time>2022-01-21T04:55:31.000Z</time>
      </trkpt>
      <trkpt lat="45.19855" lon="5.72517">
        <ele>477.79998779297</ele>
        <time>2022-01-21T04:55:33.000Z</time>
      </trkpt>
      <trkpt lat="45.19856" lon="5.72499">
        <ele>478.20001220703</ele>
        <time>2022-01-21T04:55:39.000Z</time>
      </trkpt>
      <trkpt lat="45.19857" lon="5.72498">
        <ele>478.20001220703</ele>
        <time>2022-01-21T04:55:40.000Z</time>
      </trkpt>
      <trkpt lat="45.19859" lon="5.72497">
        <ele>478.39999389648</ele>
        <time>2022-01-21T04:55:41.000Z</time>
      </trkpt>
      <trkpt lat="45.19861" lon="5.72497">
        <ele>478.60000610352</ele>
        <time>2022-01-21T04:55:43.000Z</time>
      </trkpt>
      <trkpt lat="45.19861" lon="5.72496">
        <ele>478.79998779297</ele>
        <time>2022-01-21T04:55:44.000Z</time>
      </trkpt>
      <trkpt lat="45.19862" lon="5.72495">
        <ele>479.20001220703</ele>
        <time>2022-01-21T04:55:45.000Z</time>
      </trkpt>
      <trkpt lat="45.19863" lon="5.72494">
        <ele>480.20001220703</ele>
        <time>2022-01-21T04:55:46.000Z</time>
      </trkpt>
      <trkpt lat="45.19865" lon="5.72493">
        <ele>481</ele>
        <time>2022-01-21T04:55:49.000Z</time>
      </trkpt>
      <trkpt lat="45.19865" lon="5.72493">
        <ele>482.20001220703</ele>
        <time>2022-01-21T04:55:50.000Z</time>
      </trkpt>
      <trkpt lat="45.19866" lon="5.72493">
        <ele>483.20001220703</ele>
        <time>2022-01-21T04:55:52.000Z</time>
      </trkpt>
      <trkpt lat="45.19869" lon="5.72492">
        <ele>484.60000610352</ele>
        <time>2022-01-21T04:55:55.000Z</time>
      </trkpt>
      <trkpt lat="45.19871" lon="5.7249">
        <ele>484.79998779297</ele>
        <time>2022-01-21T04:55:57.000Z</time>
      </trkpt>
      <trkpt lat="45.19873" lon="5.72487">
        <ele>485.79998779297</ele>
        <time>2022-01-21T04:56:00.000Z</time>
      </trkpt>
      <trkpt lat="45.19875" lon="5.72486">
        <ele>486.60000610352</ele>
        <time>2022-01-21T04:56:03.000Z</time>
      </trkpt>
      <trkpt lat="45.19876" lon="5.72486">
        <ele>487.39999389648</ele>
        <time>2022-01-21T04:56:04.000Z</time>
      </trkpt>
      <trkpt lat="45.19879" lon="5.72488">
        <ele>488.60000610352</ele>
        <time>2022-01-21T04:56:07.000Z</time>
      </trkpt>
      <trkpt lat="45.19879" lon="5.72492">
        <ele>488.79998779297</ele>
        <time>2022-01-21T04:56:09.000Z</time>
      </trkpt>
      <trkpt lat="45.19879" lon="5.72495">
        <ele>488.79998779297</ele>
        <time>2022-01-21T04:56:10.000Z</time>
      </trkpt>
      <trkpt lat="45.19876" lon="5.72507">
        <ele>488.60000610352</ele>
        <time>2022-01-21T04:56:15.000Z</time>
      </trkpt>
      <trkpt lat="45.19877" lon="5.72513">
        <ele>488.60000610352</ele>
        <time>2022-01-21T04:56:17.000Z</time>
      </trkpt>
      <trkpt lat="45.19879" lon="5.7253">
        <ele>489</ele>
        <time>2022-01-21T04:56:23.000Z</time>
      </trkpt>
      <trkpt lat="45.19879" lon="5.72533">
        <ele>489</ele>
        <time>2022-01-21T04:56:24.000Z</time>
      </trkpt>
      <trkpt lat="45.19881" lon="5.72538">
        <ele>489.60000610352</ele>
        <time>2022-01-21T04:56:27.000Z</time>
      </trkpt>
      <trkpt lat="45.1988" lon="5.72539">
        <ele>490.20001220703</ele>
        <time>2022-01-21T04:56:29.000Z</time>
      </trkpt>
      <trkpt lat="45.1988" lon="5.7254">
        <ele>491.20001220703</ele>
        <time>2022-01-21T04:56:30.000Z</time>
      </trkpt>
      <trkpt lat="45.1988" lon="5.72542">
        <ele>491.60000610352</ele>
        <time>2022-01-21T04:56:32.000Z</time>
      </trkpt>
      <trkpt lat="45.19879" lon="5.72546">
        <ele>492.60000610352</ele>
        <time>2022-01-21T04:56:35.000Z</time>
      </trkpt>
      <trkpt lat="45.19879" lon="5.72546">
        <ele>493.20001220703</ele>
        <time>2022-01-21T04:56:36.000Z</time>
      </trkpt>
      <trkpt lat="45.19879" lon="5.72547">
        <ele>493.60000610352</ele>
        <time>2022-01-21T04:56:38.000Z</time>
      </trkpt>
      <trkpt lat="45.19879" lon="5.72548">
        <ele>493.79998779297</ele>
        <time>2022-01-21T04:56:39.000Z</time>
      </trkpt>
      <trkpt lat="45.19879" lon="5.72558">
        <ele>494.20001220703</ele>
        <time>2022-01-21T04:56:45.000Z</time>
      </trkpt>
      <trkpt lat="45.19878" lon="5.72566">
        <ele>494.20001220703</ele>
        <time>2022-01-21T04:56:49.000Z</time>
      </trkpt>
      <trkpt lat="45.19876" lon="5.72566">
        <ele>494.20001220703</ele>
        <time>2022-01-21T04:56:50.000Z</time>
      </trkpt>
      <trkpt lat="45.19874" lon="5.72568">
        <ele>494.39999389648</ele>
        <time>2022-01-21T04:56:53.000Z</time>
      </trkpt>
      <trkpt lat="45.19874" lon="5.72568">
        <ele>494.39999389648</ele>
        <time>2022-01-21T04:56:55.000Z</time>
      </trkpt>
      <trkpt lat="45.19874" lon="5.72568">
        <ele>494.39999389648</ele>
        <time>2022-01-21T04:57:01.000Z</time>
      </trkpt>
      <trkpt lat="45.19874" lon="5.72567">
        <ele>494.39999389648</ele>
        <time>2022-01-21T04:57:02.000Z</time>
      </trkpt>
      <trkpt lat="45.19874" lon="5.72567">
        <ele>494.39999389648</ele>
        <time>2022-01-21T04:57:05.000Z</time>
      </trkpt>
      <trkpt lat="45.19874" lon="5.72567">
        <ele>494</ele>
        <time>2022-01-21T04:57:10.000Z</time>
      </trkpt>
      <trkpt lat="45.19874" lon="5.72567">
        <ele>493.60000610352</ele>
        <time>2022-01-21T04:57:16.000Z</time>
      </trkpt>
      <trkpt lat="45.19874" lon="5.72568">
        <ele>493.60000610352</ele>
        <time>2022-01-21T04:57:21.000Z</time>
      </trkpt>
      <trkpt lat="45.19872" lon="5.72568">
        <ele>494.39999389648</ele>
        <time>2022-01-21T04:57:27.000Z</time>
      </trkpt>
      <trkpt lat="45.1987" lon="5.72569">
        <ele>494.39999389648</ele>
        <time>2022-01-21T04:57:31.000Z</time>
      </trkpt>
      <trkpt lat="45.1987" lon="5.72569">
        <ele>494.39999389648</ele>
        <time>2022-01-21T04:57:32.000Z</time>
      </trkpt>
      <trkpt lat="45.1987" lon="5.72569">
        <ele>494.39999389648</ele>
        <time>2022-01-21T04:57:33.000Z</time>
      </trkpt>
      <trkpt lat="45.19869" lon="5.72569">
        <ele>495</ele>
        <time>2022-01-21T04:57:38.000Z</time>
      </trkpt>
      <trkpt lat="45.19869" lon="5.72569">
        <ele>495.20001220703</ele>
        <time>2022-01-21T04:57:44.000Z</time>
      </trkpt>
      <trkpt lat="45.19869" lon="5.72568">
        <ele>495.20001220703</ele>
        <time>2022-01-21T04:57:45.000Z</time>
      </trkpt>
      <trkpt lat="45.19869" lon="5.72568">
        <ele>495.20001220703</ele>
        <time>2022-01-21T04:57:47.000Z</time>
      </trkpt>
      <trkpt lat="45.19869" lon="5.72568">
        <ele>495.20001220703</ele>
        <time>2022-01-21T04:57:48.000Z</time>
      </trkpt>
      <trkpt lat="45.19869" lon="5.72568">
        <ele>495.20001220703</ele>
        <time>2022-01-21T04:57:50.000Z</time>
      </trkpt>
      <trkpt lat="45.19869" lon="5.72568">
        <ele>495</ele>
        <time>2022-01-21T04:57:51.000Z</time>
      </trkpt>
      <trkpt lat="45.19869" lon="5.72568">
        <ele>495</ele>
        <time>2022-01-21T04:57:52.000Z</time>
      </trkpt>
      <trkpt lat="45.19869" lon="5.72568">
        <ele>494.39999389648</ele>
        <time>2022-01-21T04:57:54.000Z</time>
      </trkpt>
      <trkpt lat="45.19869" lon="5.72568">
        <ele>494.39999389648</ele>
        <time>2022-01-21T04:57:55.000Z</time>
      </trkpt>
      <trkpt lat="45.19869" lon="5.72564">
        <ele>494.39999389648</ele>
        <time>2022-01-21T04:57:57.000Z</time>
      </trkpt>
      <trkpt lat="45.19869" lon="5.72557">
        <ele>494.39999389648</ele>
        <time>2022-01-21T04:57:59.000Z</time>
      </trkpt>
      <trkpt lat="45.19869" lon="5.72553">
        <ele>494.39999389648</ele>
        <time>2022-01-21T04:58:00.000Z</time>
      </trkpt>
      <trkpt lat="45.1987" lon="5.72548">
        <ele>494.60000610352</ele>
        <time>2022-01-21T04:58:01.000Z</time>
      </trkpt>
      <trkpt lat="45.1987" lon="5.72527">
        <ele>494.39999389648</ele>
        <time>2022-01-21T04:58:07.000Z</time>
      </trkpt>
      <trkpt lat="45.1987" lon="5.72524">
        <ele>494.39999389648</ele>
        <time>2022-01-21T04:58:08.000Z</time>
      </trkpt>
      <trkpt lat="45.19868" lon="5.72512">
        <ele>494</ele>
        <time>2022-01-21T04:58:14.000Z</time>
      </trkpt>
      <trkpt lat="45.19868" lon="5.72511">
        <ele>494</ele>
        <time>2022-01-21T04:58:15.000Z</time>
      </trkpt>
      <trkpt lat="45.19869" lon="5.72511">
        <ele>494.39999389648</ele>
        <time>2022-01-21T04:58:19.000Z</time>
      </trkpt>
      <trkpt lat="45.19869" lon="5.72511">
        <ele>494.39999389648</ele>
        <time>2022-01-21T04:58:20.000Z</time>
      </trkpt>
      <trkpt lat="45.19869" lon="5.72511">
        <ele>494.39999389648</ele>
        <time>2022-01-21T04:58:22.000Z</time>
      </trkpt>
      <trkpt lat="45.19869" lon="5.72511">
        <ele>494.39999389648</ele>
        <time>2022-01-21T04:58:23.000Z</time>
      </trkpt>
      <trkpt lat="45.19869" lon="5.72511">
        <ele>494.39999389648</ele>
        <time>2022-01-21T04:58:29.000Z</time>
      </trkpt>
      <trkpt lat="45.19869" lon="5.72511">
        <ele>493.79998779297</ele>
        <time>2022-01-21T04:58:34.000Z</time>
      </trkpt>
      <trkpt lat="45.19869" lon="5.72511">
        <ele>493.79998779297</ele>
        <time>2022-01-21T04:58:35.000Z</time>
      </trkpt>
      <trkpt lat="45.19869" lon="5.72511">
        <ele>493.79998779297</ele>
        <time>2022-01-21T04:58:37.000Z</time>
      </trkpt>
      <trkpt lat="45.19869" lon="5.72511">
        <ele>494</ele>
        <time>2022-01-21T04:58:40.000Z</time>
      </trkpt>
      <trkpt lat="45.19869" lon="5.72511">
        <ele>494</ele>
        <time>2022-01-21T04:58:41.000Z</time>
      </trkpt>
      <trkpt lat="45.19869" lon="5.72511">
        <ele>493.79998779297</ele>
        <time>2022-01-21T04:58:42.000Z</time>
      </trkpt>
      <trkpt lat="45.19868" lon="5.72511">
        <ele>493.60000610352</ele>
        <time>2022-01-21T04:58:45.000Z</time>
      </trkpt>
      <trkpt lat="45.19868" lon="5.72511">
        <ele>493.60000610352</ele>
        <time>2022-01-21T04:58:46.000Z</time>
      </trkpt>
      <trkpt lat="45.19868" lon="5.72511">
        <ele>493.79998779297</ele>
        <time>2022-01-21T04:58:52.000Z</time>
      </trkpt>
      <trkpt lat="45.19868" lon="5.72511">
        <ele>494</ele>
        <time>2022-01-21T04:58:54.000Z</time>
      </trkpt>
      <trkpt lat="45.19868" lon="5.72511">
        <ele>494.20001220703</ele>
        <time>2022-01-21T04:58:55.000Z</time>
      </trkpt>
      <trkpt lat="45.19868" lon="5.7251">
        <ele>494.20001220703</ele>
        <time>2022-01-21T04:58:57.000Z</time>
      </trkpt>
      <trkpt lat="45.19868" lon="5.72509">
        <ele>494.20001220703</ele>
        <time>2022-01-21T04:58:58.000Z</time>
      </trkpt>
      <trkpt lat="45.19868" lon="5.72508">
        <ele>494.20001220703</ele>
        <time>2022-01-21T04:58:59.000Z</time>
      </trkpt>
      <trkpt lat="45.19868" lon="5.72508">
        <ele>494.20001220703</ele>
        <time>2022-01-21T04:59:00.000Z</time>
      </trkpt>
      <trkpt lat="45.19868" lon="5.72505">
        <ele>494</ele>
        <time>2022-01-21T04:59:06.000Z</time>
      </trkpt>
      <trkpt lat="45.19868" lon="5.72505">
        <ele>493.79998779297</ele>
        <time>2022-01-21T04:59:09.000Z</time>
      </trkpt>
      <trkpt lat="45.19869" lon="5.72505">
        <ele>493.79998779297</ele>
        <time>2022-01-21T04:59:12.000Z</time>
      </trkpt>
      <trkpt lat="45.19869" lon="5.72504">
        <ele>493.60000610352</ele>
        <time>2022-01-21T04:59:15.000Z</time>
      </trkpt>
      <trkpt lat="45.19869" lon="5.72504">
        <ele>493.60000610352</ele>
        <time>2022-01-21T04:59:18.000Z</time>
      </trkpt>
      <trkpt lat="45.19869" lon="5.72504">
        <ele>493.60000610352</ele>
        <time>2022-01-21T04:59:21.000Z</time>
      </trkpt>
      <trkpt lat="45.19869" lon="5.72504">
        <ele>493.60000610352</ele>
        <time>2022-01-21T04:59:27.000Z</time>
      </trkpt>
      <trkpt lat="45.19868" lon="5.72504">
        <ele>493.60000610352</ele>
        <time>2022-01-21T04:59:29.000Z</time>
      </trkpt>
      <trkpt lat="45.19868" lon="5.72504">
        <ele>493.60000610352</ele>
        <time>2022-01-21T04:59:30.000Z</time>
      </trkpt>
      <trkpt lat="45.19868" lon="5.72504">
        <ele>493.60000610352</ele>
        <time>2022-01-21T04:59:31.000Z</time>
      </trkpt>
      <trkpt lat="45.19868" lon="5.72504">
        <ele>493.60000610352</ele>
        <time>2022-01-21T04:59:32.000Z</time>
      </trkpt>
      <trkpt lat="45.19871" lon="5.72505">
        <ele>493.60000610352</ele>
        <time>2022-01-21T04:59:34.000Z</time>
      </trkpt>
      <trkpt lat="45.19872" lon="5.72506">
        <ele>493.60000610352</ele>
        <time>2022-01-21T04:59:35.000Z</time>
      </trkpt>
      <trkpt lat="45.19873" lon="5.72514">
        <ele>493.60000610352</ele>
        <time>2022-01-21T04:59:39.000Z</time>
      </trkpt>
      <trkpt lat="45.19874" lon="5.72521">
        <ele>493.60000610352</ele>
        <time>2022-01-21T04:59:42.000Z</time>
      </trkpt>
      <trkpt lat="45.19874" lon="5.72534">
        <ele>493.60000610352</ele>
        <time>2022-01-21T04:59:47.000Z</time>
      </trkpt>
      <trkpt lat="45.19876" lon="5.72542">
        <ele>493.60000610352</ele>
        <time>2022-01-21T04:59:50.000Z</time>
      </trkpt>
      <trkpt lat="45.19877" lon="5.72549">
        <ele>494</ele>
        <time>2022-01-21T04:59:53.000Z</time>
      </trkpt>
      <trkpt lat="45.19878" lon="5.72548">
        <ele>493.60000610352</ele>
        <time>2022-01-21T04:59:56.000Z</time>
      </trkpt>
      <trkpt lat="45.19877" lon="5.72545">
        <ele>492.39999389648</ele>
        <time>2022-01-21T04:59:59.000Z</time>
      </trkpt>
      <trkpt lat="45.19877" lon="5.72541">
        <ele>491</ele>
        <time>2022-01-21T05:00:02.000Z</time>
      </trkpt>
      <trkpt lat="45.19879" lon="5.72538">
        <ele>489.79998779297</ele>
        <time>2022-01-21T05:00:05.000Z</time>
      </trkpt>
      <trkpt lat="45.19878" lon="5.72536">
        <ele>488.60000610352</ele>
        <time>2022-01-21T05:00:07.000Z</time>
      </trkpt>
      <trkpt lat="45.19879" lon="5.72536">
        <ele>488</ele>
        <time>2022-01-21T05:00:08.000Z</time>
      </trkpt>
      <trkpt lat="45.19882" lon="5.72553">
        <ele>488.20001220703</ele>
        <time>2022-01-21T05:00:14.000Z</time>
      </trkpt>
      <trkpt lat="45.19884" lon="5.72568">
        <ele>487.39999389648</ele>
        <time>2022-01-21T05:00:19.000Z</time>
      </trkpt>
      <trkpt lat="45.19885" lon="5.72574">
        <ele>487.39999389648</ele>
        <time>2022-01-21T05:00:21.000Z</time>
      </trkpt>
      <trkpt lat="45.19888" lon="5.72585">
        <ele>487.79998779297</ele>
        <time>2022-01-21T05:00:26.000Z</time>
      </trkpt>
      <trkpt lat="45.19889" lon="5.72584">
        <ele>488</ele>
        <time>2022-01-21T05:00:27.000Z</time>
      </trkpt>
      <trkpt lat="45.19893" lon="5.72577">
        <ele>488</ele>
        <time>2022-01-21T05:00:30.000Z</time>
      </trkpt>
      <trkpt lat="45.19893" lon="5.72575">
        <ele>488.20001220703</ele>
        <time>2022-01-21T05:00:31.000Z</time>
      </trkpt>
      <trkpt lat="45.19891" lon="5.72557">
        <ele>488</ele>
        <time>2022-01-21T05:00:37.000Z</time>
      </trkpt>
      <trkpt lat="45.1989" lon="5.72551">
        <ele>487.60000610352</ele>
        <time>2022-01-21T05:00:39.000Z</time>
      </trkpt>
      <trkpt lat="45.19889" lon="5.72532">
        <ele>487.60000610352</ele>
        <time>2022-01-21T05:00:45.000Z</time>
      </trkpt>
      <trkpt lat="45.19889" lon="5.72523">
        <ele>487.79998779297</ele>
        <time>2022-01-21T05:00:48.000Z</time>
      </trkpt>
      <trkpt lat="45.19888" lon="5.72505">
        <ele>487.79998779297</ele>
        <time>2022-01-21T05:00:54.000Z</time>
      </trkpt>
      <trkpt lat="45.19887" lon="5.72496">
        <ele>487.60000610352</ele>
        <time>2022-01-21T05:00:57.000Z</time>
      </trkpt>
      <trkpt lat="45.19887" lon="5.72493">
        <ele>487.79998779297</ele>
        <time>2022-01-21T05:00:58.000Z</time>
      </trkpt>
      <trkpt lat="45.19884" lon="5.7249">
        <ele>487.39999389648</ele>
        <time>2022-01-21T05:01:00.000Z</time>
      </trkpt>
      <trkpt lat="45.19882" lon="5.72489">
        <ele>487.39999389648</ele>
        <time>2022-01-21T05:01:01.000Z</time>
      </trkpt>
      <trkpt lat="45.19878" lon="5.7249">
        <ele>486.79998779297</ele>
        <time>2022-01-21T05:01:06.000Z</time>
      </trkpt>
      <trkpt lat="45.19877" lon="5.72491">
        <ele>486</ele>
        <time>2022-01-21T05:01:07.000Z</time>
      </trkpt>
      <trkpt lat="45.19876" lon="5.7249">
        <ele>484.20001220703</ele>
        <time>2022-01-21T05:01:10.000Z</time>
      </trkpt>
      <trkpt lat="45.19874" lon="5.7249">
        <ele>483.60000610352</ele>
        <time>2022-01-21T05:01:12.000Z</time>
      </trkpt>
      <trkpt lat="45.19873" lon="5.72492">
        <ele>483.20001220703</ele>
        <time>2022-01-21T05:01:14.000Z</time>
      </trkpt>
      <trkpt lat="45.19872" lon="5.72493">
        <ele>482</ele>
        <time>2022-01-21T05:01:17.000Z</time>
      </trkpt>
      <trkpt lat="45.1987" lon="5.72493">
        <ele>481.60000610352</ele>
        <time>2022-01-21T05:01:18.000Z</time>
      </trkpt>
      <trkpt lat="45.19869" lon="5.72493">
        <ele>480.79998779297</ele>
        <time>2022-01-21T05:01:19.000Z</time>
      </trkpt>
      <trkpt lat="45.19861" lon="5.72494">
        <ele>479.39999389648</ele>
        <time>2022-01-21T05:01:25.000Z</time>
      </trkpt>
      <trkpt lat="45.19859" lon="5.72495">
        <ele>479.20001220703</ele>
        <time>2022-01-21T05:01:26.000Z</time>
      </trkpt>
      <trkpt lat="45.19858" lon="5.72497">
        <ele>479.20001220703</ele>
        <time>2022-01-21T05:01:27.000Z</time>
      </trkpt>
      <trkpt lat="45.19856" lon="5.72504">
        <ele>478.79998779297</ele>
        <time>2022-01-21T05:01:30.000Z</time>
      </trkpt>
      <trkpt lat="45.19857" lon="5.72524">
        <ele>478.39999389648</ele>
        <time>2022-01-21T05:01:36.000Z</time>
      </trkpt>
      <trkpt lat="45.19858" lon="5.72527">
        <ele>477.79998779297</ele>
        <time>2022-01-21T05:01:37.000Z</time>
      </trkpt>
      <trkpt lat="45.1986" lon="5.7254">
        <ele>476.79998779297</ele>
        <time>2022-01-21T05:01:41.000Z</time>
      </trkpt>
      <trkpt lat="45.1986" lon="5.72543">
        <ele>476.79998779297</ele>
        <time>2022-01-21T05:01:42.000Z</time>
      </trkpt>
      <trkpt lat="45.19861" lon="5.72553">
        <ele>475.79998779297</ele>
        <time>2022-01-21T05:01:46.000Z</time>
      </trkpt>
      <trkpt lat="45.1986" lon="5.72555">
        <ele>475.39999389648</ele>
        <time>2022-01-21T05:01:47.000Z</time>
      </trkpt>
      <trkpt lat="45.19859" lon="5.72554">
        <ele>475.20001220703</ele>
        <time>2022-01-21T05:01:48.000Z</time>
      </trkpt>
      <trkpt lat="45.19857" lon="5.72539">
        <ele>474.39999389648</ele>
        <time>2022-01-21T05:01:53.000Z</time>
      </trkpt>
      <trkpt lat="45.19856" lon="5.72527">
        <ele>473.39999389648</ele>
        <time>2022-01-21T05:01:57.000Z</time>
      </trkpt>
      <trkpt lat="45.19855" lon="5.72517">
        <ele>472.39999389648</ele>
        <time>2022-01-21T05:02:00.000Z</time>
      </trkpt>
      <trkpt lat="45.19854" lon="5.72514">
        <ele>472.20001220703</ele>
        <time>2022-01-21T05:02:01.000Z</time>
      </trkpt>
      <trkpt lat="45.19852" lon="5.72499">
        <ele>471.39999389648</ele>
        <time>2022-01-21T05:02:05.000Z</time>
      </trkpt>
      <trkpt lat="45.19852" lon="5.72496">
        <ele>470.79998779297</ele>
        <time>2022-01-21T05:02:06.000Z</time>
      </trkpt>
      <trkpt lat="45.1985" lon="5.72475">
        <ele>469.60000610352</ele>
        <time>2022-01-21T05:02:12.000Z</time>
      </trkpt>
      <trkpt lat="45.19849" lon="5.72467">
        <ele>469</ele>
        <time>2022-01-21T05:02:14.000Z</time>
      </trkpt>
      <trkpt lat="45.19847" lon="5.7246">
        <ele>468.39999389648</ele>
        <time>2022-01-21T05:02:16.000Z</time>
      </trkpt>
      <trkpt lat="45.19847" lon="5.72452">
        <ele>467.60000610352</ele>
        <time>2022-01-21T05:02:19.000Z</time>
      </trkpt>
      <trkpt lat="45.19847" lon="5.72449">
        <ele>467</ele>
        <time>2022-01-21T05:02:20.000Z</time>
      </trkpt>
      <trkpt lat="45.19843" lon="5.72442">
        <ele>466.60000610352</ele>
        <time>2022-01-21T05:02:23.000Z</time>
      </trkpt>
      <trkpt lat="45.19842" lon="5.72441">
        <ele>466.60000610352</ele>
        <time>2022-01-21T05:02:24.000Z</time>
      </trkpt>
      <trkpt lat="45.19841" lon="5.72442">
        <ele>466.39999389648</ele>
        <time>2022-01-21T05:02:25.000Z</time>
      </trkpt>
      <trkpt lat="45.19841" lon="5.72446">
        <ele>465.79998779297</ele>
        <time>2022-01-21T05:02:27.000Z</time>
      </trkpt>
      <trkpt lat="45.19839" lon="5.72461">
        <ele>464.79998779297</ele>
        <time>2022-01-21T05:02:32.000Z</time>
      </trkpt>
      <trkpt lat="45.19838" lon="5.72471">
        <ele>463.60000610352</ele>
        <time>2022-01-21T05:02:35.000Z</time>
      </trkpt>
      <trkpt lat="45.19837" lon="5.72477">
        <ele>463.39999389648</ele>
        <time>2022-01-21T05:02:37.000Z</time>
      </trkpt>
      <trkpt lat="45.19834" lon="5.72489">
        <ele>462</ele>
        <time>2022-01-21T05:02:41.000Z</time>
      </trkpt>
      <trkpt lat="45.19832" lon="5.72497">
        <ele>461</ele>
        <time>2022-01-21T05:02:44.000Z</time>
      </trkpt>
      <trkpt lat="45.19832" lon="5.725">
        <ele>461</ele>
        <time>2022-01-21T05:02:45.000Z</time>
      </trkpt>
      <trkpt lat="45.19831" lon="5.72505">
        <ele>459.79998779297</ele>
        <time>2022-01-21T05:02:47.000Z</time>
      </trkpt>
      <trkpt lat="45.19828" lon="5.72519">
        <ele>458.79998779297</ele>
        <time>2022-01-21T05:02:51.000Z</time>
      </trkpt>
      <trkpt lat="45.19828" lon="5.72524">
        <ele>458.39999389648</ele>
        <time>2022-01-21T05:02:53.000Z</time>
      </trkpt>
      <trkpt lat="45.19828" lon="5.72536">
        <ele>457.39999389648</ele>
        <time>2022-01-21T05:02:57.000Z</time>
      </trkpt>
      <trkpt lat="45.19828" lon="5.72549">
        <ele>456.60000610352</ele>
        <time>2022-01-21T05:03:01.000Z</time>
      </trkpt>
      <trkpt lat="45.19828" lon="5.72553">
        <ele>456.60000610352</ele>
        <time>2022-01-21T05:03:02.000Z</time>
      </trkpt>
      <trkpt lat="45.19828" lon="5.72556">
        <ele>456.39999389648</ele>
        <time>2022-01-21T05:03:03.000Z</time>
      </trkpt>
      <trkpt lat="45.19829" lon="5.72568">
        <ele>455.20001220703</ele>
        <time>2022-01-21T05:03:07.000Z</time>
      </trkpt>
      <trkpt lat="45.19829" lon="5.72579">
        <ele>454.79998779297</ele>
        <time>2022-01-21T05:03:10.000Z</time>
      </trkpt>
      <trkpt lat="45.19828" lon="5.72589">
        <ele>454</ele>
        <time>2022-01-21T05:03:13.000Z</time>
      </trkpt>
      <trkpt lat="45.19829" lon="5.72597">
        <ele>453</ele>
        <time>2022-01-21T05:03:16.000Z</time>
      </trkpt>
      <trkpt lat="45.19831" lon="5.72616">
        <ele>451.79998779297</ele>
        <time>2022-01-21T05:03:22.000Z</time>
      </trkpt>
      <trkpt lat="45.19839" lon="5.72631">
        <ele>450.79998779297</ele>
        <time>2022-01-21T05:03:27.000Z</time>
      </trkpt>
      <trkpt lat="45.19839" lon="5.72634">
        <ele>450.60000610352</ele>
        <time>2022-01-21T05:03:28.000Z</time>
      </trkpt>
      <trkpt lat="45.1984" lon="5.7264">
        <ele>450.20001220703</ele>
        <time>2022-01-21T05:03:30.000Z</time>
      </trkpt>
      <trkpt lat="45.1984" lon="5.72642">
        <ele>450.20001220703</ele>
        <time>2022-01-21T05:03:31.000Z</time>
      </trkpt>
      <trkpt lat="45.19844" lon="5.72649">
        <ele>449.60000610352</ele>
        <time>2022-01-21T05:03:34.000Z</time>
      </trkpt>
      <trkpt lat="45.19846" lon="5.72651">
        <ele>449.60000610352</ele>
        <time>2022-01-21T05:03:35.000Z</time>
      </trkpt>
      <trkpt lat="45.19849" lon="5.7266">
        <ele>449</ele>
        <time>2022-01-21T05:03:39.000Z</time>
      </trkpt>
      <trkpt lat="45.19852" lon="5.72665">
        <ele>448.39999389648</ele>
        <time>2022-01-21T05:03:41.000Z</time>
      </trkpt>
      <trkpt lat="45.19855" lon="5.72673">
        <ele>447</ele>
        <time>2022-01-21T05:03:44.000Z</time>
      </trkpt>
      <trkpt lat="45.19856" lon="5.72675">
        <ele>447</ele>
        <time>2022-01-21T05:03:45.000Z</time>
      </trkpt>
      <trkpt lat="45.19857" lon="5.72677">
        <ele>446.60000610352</ele>
        <time>2022-01-21T05:03:46.000Z</time>
      </trkpt>
      <trkpt lat="45.19862" lon="5.72682">
        <ele>446.39999389648</ele>
        <time>2022-01-21T05:03:49.000Z</time>
      </trkpt>
      <trkpt lat="45.19862" lon="5.72684">
        <ele>445.79998779297</ele>
        <time>2022-01-21T05:03:50.000Z</time>
      </trkpt>
      <trkpt lat="45.19858" lon="5.72687">
        <ele>445.20001220703</ele>
        <time>2022-01-21T05:03:52.000Z</time>
      </trkpt>
      <trkpt lat="45.19854" lon="5.72685">
        <ele>444.79998779297</ele>
        <time>2022-01-21T05:03:54.000Z</time>
      </trkpt>
      <trkpt lat="45.19847" lon="5.72677">
        <ele>443.79998779297</ele>
        <time>2022-01-21T05:03:58.000Z</time>
      </trkpt>
      <trkpt lat="45.19844" lon="5.72675">
        <ele>443.79998779297</ele>
        <time>2022-01-21T05:04:00.000Z</time>
      </trkpt>
      <trkpt lat="45.19832" lon="5.72663">
        <ele>442.79998779297</ele>
        <time>2022-01-21T05:04:06.000Z</time>
      </trkpt>
      <trkpt lat="45.1983" lon="5.7266">
        <ele>442.60000610352</ele>
        <time>2022-01-21T05:04:07.000Z</time>
      </trkpt>
      <trkpt lat="45.19826" lon="5.72656">
        <ele>441.39999389648</ele>
        <time>2022-01-21T05:04:09.000Z</time>
      </trkpt>
      <trkpt lat="45.19817" lon="5.72651">
        <ele>440.39999389648</ele>
        <time>2022-01-21T05:04:13.000Z</time>
      </trkpt>
      <trkpt lat="45.19815" lon="5.72649">
        <ele>440.20001220703</ele>
        <time>2022-01-21T05:04:14.000Z</time>
      </trkpt>
      <trkpt lat="45.19809" lon="5.72643">
        <ele>439.39999389648</ele>
        <time>2022-01-21T05:04:17.000Z</time>
      </trkpt>
      <trkpt lat="45.19801" lon="5.72637">
        <ele>438</ele>
        <time>2022-01-21T05:04:21.000Z</time>
      </trkpt>
      <trkpt lat="45.19799" lon="5.72636">
        <ele>438</ele>
        <time>2022-01-21T05:04:22.000Z</time>
      </trkpt>
      <trkpt lat="45.19791" lon="5.72627">
        <ele>437</ele>
        <time>2022-01-21T05:04:26.000Z</time>
      </trkpt>
      <trkpt lat="45.19788" lon="5.72621">
        <ele>436.60000610352</ele>
        <time>2022-01-21T05:04:28.000Z</time>
      </trkpt>
      <trkpt lat="45.19785" lon="5.72612">
        <ele>436</ele>
        <time>2022-01-21T05:04:31.000Z</time>
      </trkpt>
      <trkpt lat="45.19783" lon="5.72599">
        <ele>435.20001220703</ele>
        <time>2022-01-21T05:04:35.000Z</time>
      </trkpt>
      <trkpt lat="45.19783" lon="5.72596">
        <ele>434.79998779297</ele>
        <time>2022-01-21T05:04:36.000Z</time>
      </trkpt>
      <trkpt lat="45.19782" lon="5.72581">
        <ele>433.79998779297</ele>
        <time>2022-01-21T05:04:40.000Z</time>
      </trkpt>
      <trkpt lat="45.19783" lon="5.72578">
        <ele>433.60000610352</ele>
        <time>2022-01-21T05:04:41.000Z</time>
      </trkpt>
      <trkpt lat="45.19784" lon="5.72562">
        <ele>432.39999389648</ele>
        <time>2022-01-21T05:04:45.000Z</time>
      </trkpt>
      <trkpt lat="45.19785" lon="5.72552">
        <ele>431.60000610352</ele>
        <time>2022-01-21T05:04:48.000Z</time>
      </trkpt>
      <trkpt lat="45.19785" lon="5.72546">
        <ele>431.39999389648</ele>
        <time>2022-01-21T05:04:50.000Z</time>
      </trkpt>
      <trkpt lat="45.19784" lon="5.72529">
        <ele>430</ele>
        <time>2022-01-21T05:04:56.000Z</time>
      </trkpt>
      <trkpt lat="45.19783" lon="5.72528">
        <ele>429.79998779297</ele>
        <time>2022-01-21T05:04:57.000Z</time>
      </trkpt>
      <trkpt lat="45.19782" lon="5.72532">
        <ele>429.60000610352</ele>
        <time>2022-01-21T05:04:59.000Z</time>
      </trkpt>
      <trkpt lat="45.19781" lon="5.72537">
        <ele>428.79998779297</ele>
        <time>2022-01-21T05:05:01.000Z</time>
      </trkpt>
      <trkpt lat="45.19779" lon="5.72543">
        <ele>428</ele>
        <time>2022-01-21T05:05:06.000Z</time>
      </trkpt>
      <trkpt lat="45.1978" lon="5.7254">
        <ele>428</ele>
        <time>2022-01-21T05:05:09.000Z</time>
      </trkpt>
      <trkpt lat="45.19782" lon="5.72536">
        <ele>428.20001220703</ele>
        <time>2022-01-21T05:05:11.000Z</time>
      </trkpt>
      <trkpt lat="45.19789" lon="5.72521">
        <ele>429.39999389648</ele>
        <time>2022-01-21T05:05:17.000Z</time>
      </trkpt>
      <trkpt lat="45.19791" lon="5.72519">
        <ele>429.79998779297</ele>
        <time>2022-01-21T05:05:18.000Z</time>
      </trkpt>
      <trkpt lat="45.19796" lon="5.725">
        <ele>429.60000610352</ele>
        <time>2022-01-21T05:05:24.000Z</time>
      </trkpt>
      <trkpt lat="45.19797" lon="5.72497">
        <ele>429.39999389648</ele>
        <time>2022-01-21T05:05:25.000Z</time>
      </trkpt>
      <trkpt lat="45.19799" lon="5.7248">
        <ele>429.39999389648</ele>
        <time>2022-01-21T05:05:30.000Z</time>
      </trkpt>
      <trkpt lat="45.198" lon="5.72477">
        <ele>429.39999389648</ele>
        <time>2022-01-21T05:05:31.000Z</time>
      </trkpt>
      <trkpt lat="45.19801" lon="5.72464">
        <ele>429.79998779297</ele>
        <time>2022-01-21T05:05:35.000Z</time>
      </trkpt>
      <trkpt lat="45.19802" lon="5.72457">
        <ele>429.79998779297</ele>
        <time>2022-01-21T05:05:37.000Z</time>
      </trkpt>
      <trkpt lat="45.19804" lon="5.72437">
        <ele>429.79998779297</ele>
        <time>2022-01-21T05:05:43.000Z</time>
      </trkpt>
      <trkpt lat="45.19804" lon="5.72434">
        <ele>429.39999389648</ele>
        <time>2022-01-21T05:05:44.000Z</time>
      </trkpt>
      <trkpt lat="45.19804" lon="5.7242">
        <ele>429.20001220703</ele>
        <time>2022-01-21T05:05:49.000Z</time>
      </trkpt>
      <trkpt lat="45.19801" lon="5.72406">
        <ele>428.79998779297</ele>
        <time>2022-01-21T05:05:53.000Z</time>
      </trkpt>
      <trkpt lat="45.19802" lon="5.72393">
        <ele>429</ele>
        <time>2022-01-21T05:05:57.000Z</time>
      </trkpt>
      <trkpt lat="45.19808" lon="5.72375">
        <ele>428.60000610352</ele>
        <time>2022-01-21T05:06:03.000Z</time>
      </trkpt>
      <trkpt lat="45.19819" lon="5.72362">
        <ele>428.60000610352</ele>
        <time>2022-01-21T05:06:09.000Z</time>
      </trkpt>
      <trkpt lat="45.19822" lon="5.72353">
        <ele>428.20001220703</ele>
        <time>2022-01-21T05:06:15.000Z</time>
      </trkpt>
      <trkpt lat="45.19822" lon="5.72351">
        <ele>427.20001220703</ele>
        <time>2022-01-21T05:06:16.000Z</time>
      </trkpt>
      <trkpt lat="45.19821" lon="5.72347">
        <ele>426.79998779297</ele>
        <time>2022-01-21T05:06:18.000Z</time>
      </trkpt>
      <trkpt lat="45.19821" lon="5.72345">
        <ele>425.20001220703</ele>
        <time>2022-01-21T05:06:21.000Z</time>
      </trkpt>
      <trkpt lat="45.19822" lon="5.72344">
        <ele>425.20001220703</ele>
        <time>2022-01-21T05:06:22.000Z</time>
      </trkpt>
      <trkpt lat="45.19822" lon="5.72343">
        <ele>424</ele>
        <time>2022-01-21T05:06:23.000Z</time>
      </trkpt>
      <trkpt lat="45.19822" lon="5.72341">
        <ele>422.79998779297</ele>
        <time>2022-01-21T05:06:25.000Z</time>
      </trkpt>
      <trkpt lat="45.19821" lon="5.72336">
        <ele>421.20001220703</ele>
        <time>2022-01-21T05:06:29.000Z</time>
      </trkpt>
      <trkpt lat="45.19821" lon="5.72332">
        <ele>420</ele>
        <time>2022-01-21T05:06:32.000Z</time>
      </trkpt>
      <trkpt lat="45.19821" lon="5.72331">
        <ele>419.60000610352</ele>
        <time>2022-01-21T05:06:33.000Z</time>
      </trkpt>
      <trkpt lat="45.19822" lon="5.7233">
        <ele>418.20001220703</ele>
        <time>2022-01-21T05:06:35.000Z</time>
      </trkpt>
      <trkpt lat="45.19822" lon="5.72328">
        <ele>417</ele>
        <time>2022-01-21T05:06:37.000Z</time>
      </trkpt>
      <trkpt lat="45.19819" lon="5.72329">
        <ele>416.39999389648</ele>
        <time>2022-01-21T05:06:40.000Z</time>
      </trkpt>
      <trkpt lat="45.19818" lon="5.72331">
        <ele>415.79998779297</ele>
        <time>2022-01-21T05:06:41.000Z</time>
      </trkpt>
      <trkpt lat="45.19813" lon="5.72343">
        <ele>415.20001220703</ele>
        <time>2022-01-21T05:06:45.000Z</time>
      </trkpt>
      <trkpt lat="45.19809" lon="5.72352">
        <ele>415.20001220703</ele>
        <time>2022-01-21T05:06:48.000Z</time>
      </trkpt>
      <trkpt lat="45.19803" lon="5.72364">
        <ele>415.20001220703</ele>
        <time>2022-01-21T05:06:52.000Z</time>
      </trkpt>
      <trkpt lat="45.198" lon="5.7238">
        <ele>414.79998779297</ele>
        <time>2022-01-21T05:06:57.000Z</time>
      </trkpt>
      <trkpt lat="45.19799" lon="5.72384">
        <ele>414.79998779297</ele>
        <time>2022-01-21T05:06:58.000Z</time>
      </trkpt>
      <trkpt lat="45.19799" lon="5.72401">
        <ele>414.79998779297</ele>
        <time>2022-01-21T05:07:03.000Z</time>
      </trkpt>
      <trkpt lat="45.19797" lon="5.7242">
        <ele>414.39999389648</ele>
        <time>2022-01-21T05:07:09.000Z</time>
      </trkpt>
      <trkpt lat="45.19794" lon="5.72435">
        <ele>414</ele>
        <time>2022-01-21T05:07:14.000Z</time>
      </trkpt>
      <trkpt lat="45.19792" lon="5.72457">
        <ele>414.79998779297</ele>
        <time>2022-01-21T05:07:20.000Z</time>
      </trkpt>
      <trkpt lat="45.19789" lon="5.72466">
        <ele>415.20001220703</ele>
        <time>2022-01-21T05:07:23.000Z</time>
      </trkpt>
      <trkpt lat="45.19787" lon="5.72477">
        <ele>415.60000610352</ele>
        <time>2022-01-21T05:07:26.000Z</time>
      </trkpt>
      <trkpt lat="45.19786" lon="5.72483">
        <ele>415.79998779297</ele>
        <time>2022-01-21T05:07:28.000Z</time>
      </trkpt>
      <trkpt lat="45.1978" lon="5.72497">
        <ele>416.39999389648</ele>
        <time>2022-01-21T05:07:33.000Z</time>
      </trkpt>
      <trkpt lat="45.19769" lon="5.72507">
        <ele>415.39999389648</ele>
        <time>2022-01-21T05:07:39.000Z</time>
      </trkpt>
      <trkpt lat="45.19765" lon="5.72511">
        <ele>414.79998779297</ele>
        <time>2022-01-21T05:07:41.000Z</time>
      </trkpt>
      <trkpt lat="45.19755" lon="5.72524">
        <ele>413.79998779297</ele>
        <time>2022-01-21T05:07:46.000Z</time>
      </trkpt>
      <trkpt lat="45.19753" lon="5.7253">
        <ele>413.60000610352</ele>
        <time>2022-01-21T05:07:48.000Z</time>
      </trkpt>
      <trkpt lat="45.19751" lon="5.72543">
        <ele>413.20001220703</ele>
        <time>2022-01-21T05:07:52.000Z</time>
      </trkpt>
      <trkpt lat="45.1975" lon="5.72561">
        <ele>413.20001220703</ele>
        <time>2022-01-21T05:07:58.000Z</time>
      </trkpt>
      <trkpt lat="45.1975" lon="5.72567">
        <ele>413.20001220703</ele>
        <time>2022-01-21T05:08:00.000Z</time>
      </trkpt>
      <trkpt lat="45.19749" lon="5.72586">
        <ele>413.39999389648</ele>
        <time>2022-01-21T05:08:06.000Z</time>
      </trkpt>
      <trkpt lat="45.19749" lon="5.72589">
        <ele>413.39999389648</ele>
        <time>2022-01-21T05:08:07.000Z</time>
      </trkpt>
      <trkpt lat="45.19753" lon="5.72606">
        <ele>413.39999389648</ele>
        <time>2022-01-21T05:08:13.000Z</time>
      </trkpt>
      <trkpt lat="45.19754" lon="5.7261">
        <ele>413.39999389648</ele>
        <time>2022-01-21T05:08:14.000Z</time>
      </trkpt>
      <trkpt lat="45.19761" lon="5.72631">
        <ele>413.60000610352</ele>
        <time>2022-01-21T05:08:20.000Z</time>
      </trkpt>
      <trkpt lat="45.19769" lon="5.72652">
        <ele>413.60000610352</ele>
        <time>2022-01-21T05:08:26.000Z</time>
      </trkpt>
      <trkpt lat="45.1977" lon="5.72655">
        <ele>413.60000610352</ele>
        <time>2022-01-21T05:08:27.000Z</time>
      </trkpt>
      <trkpt lat="45.1978" lon="5.7267">
        <ele>414</ele>
        <time>2022-01-21T05:08:33.000Z</time>
      </trkpt>
      <trkpt lat="45.19792" lon="5.72681">
        <ele>413.79998779297</ele>
        <time>2022-01-21T05:08:39.000Z</time>
      </trkpt>
      <trkpt lat="45.19794" lon="5.72683">
        <ele>414</ele>
        <time>2022-01-21T05:08:40.000Z</time>
      </trkpt>
      <trkpt lat="45.19798" lon="5.7269">
        <ele>414.20001220703</ele>
        <time>2022-01-21T05:08:43.000Z</time>
      </trkpt>
      <trkpt lat="45.19812" lon="5.727">
        <ele>414</ele>
        <time>2022-01-21T05:08:49.000Z</time>
      </trkpt>
      <trkpt lat="45.19814" lon="5.72702">
        <ele>414</ele>
        <time>2022-01-21T05:08:50.000Z</time>
      </trkpt>
      <trkpt lat="45.19822" lon="5.72708">
        <ele>414.60000610352</ele>
        <time>2022-01-21T05:08:53.000Z</time>
      </trkpt>
      <trkpt lat="45.19835" lon="5.7272">
        <ele>415</ele>
        <time>2022-01-21T05:08:58.000Z</time>
      </trkpt>
      <trkpt lat="45.19837" lon="5.72735">
        <ele>414.79998779297</ele>
        <time>2022-01-21T05:09:02.000Z</time>
      </trkpt>
      <trkpt lat="45.19845" lon="5.72743">
        <ele>415.20001220703</ele>
        <time>2022-01-21T05:09:07.000Z</time>
      </trkpt>
      <trkpt lat="45.19847" lon="5.72742">
        <ele>415.39999389648</ele>
        <time>2022-01-21T05:09:08.000Z</time>
      </trkpt>
      <trkpt lat="45.19855" lon="5.72744">
        <ele>410.79998779297</ele>
        <time>2022-01-21T05:09:24.000Z</time>
      </trkpt>
      <trkpt lat="45.19855" lon="5.72749">
        <ele>410.60000610352</ele>
        <time>2022-01-21T05:09:26.000Z</time>
      </trkpt>
      <trkpt lat="45.19854" lon="5.72758">
        <ele>410.39999389648</ele>
        <time>2022-01-21T05:09:29.000Z</time>
      </trkpt>
      <trkpt lat="45.19858" lon="5.72764">
        <ele>409.60000610352</ele>
        <time>2022-01-21T05:09:32.000Z</time>
      </trkpt>
      <trkpt lat="45.19857" lon="5.72765">
        <ele>409.39999389648</ele>
        <time>2022-01-21T05:09:33.000Z</time>
      </trkpt>
      <trkpt lat="45.19857" lon="5.72764">
        <ele>408.79998779297</ele>
        <time>2022-01-21T05:09:34.000Z</time>
      </trkpt>
      <trkpt lat="45.19855" lon="5.72759">
        <ele>408.20001220703</ele>
        <time>2022-01-21T05:09:37.000Z</time>
      </trkpt>
      <trkpt lat="45.19855" lon="5.72757">
        <ele>407.20001220703</ele>
        <time>2022-01-21T05:09:39.000Z</time>
      </trkpt>
      <trkpt lat="45.19855" lon="5.72756">
        <ele>405.79998779297</ele>
        <time>2022-01-21T05:09:40.000Z</time>
      </trkpt>
      <trkpt lat="45.19855" lon="5.72754">
        <ele>405.60000610352</ele>
        <time>2022-01-21T05:09:41.000Z</time>
      </trkpt>
      <trkpt lat="45.19855" lon="5.72753">
        <ele>404.79998779297</ele>
        <time>2022-01-21T05:09:43.000Z</time>
      </trkpt>
      <trkpt lat="45.19855" lon="5.72753">
        <ele>404.79998779297</ele>
        <time>2022-01-21T05:09:44.000Z</time>
      </trkpt>
      <trkpt lat="45.19855" lon="5.72756">
        <ele>404</ele>
        <time>2022-01-21T05:09:46.000Z</time>
      </trkpt>
      <trkpt lat="45.19838" lon="5.72815">
        <ele>387.60000610352</ele>
        <time>2022-01-21T05:10:31.000Z</time>
      </trkpt>
      <trkpt lat="45.19838" lon="5.72802">
        <ele>387.20001220703</ele>
        <time>2022-01-21T05:10:32.000Z</time>
      </trkpt>
      <trkpt lat="45.19842" lon="5.7279">
        <ele>385.60000610352</ele>
        <time>2022-01-21T05:10:35.000Z</time>
      </trkpt>
      <trkpt lat="45.19843" lon="5.72792">
        <ele>385.20001220703</ele>
        <time>2022-01-21T05:10:36.000Z</time>
      </trkpt>
      <trkpt lat="45.19843" lon="5.72796">
        <ele>385.20001220703</ele>
        <time>2022-01-21T05:10:37.000Z</time>
      </trkpt>
      <trkpt lat="45.19844" lon="5.72801">
        <ele>384.79998779297</ele>
        <time>2022-01-21T05:10:39.000Z</time>
      </trkpt>
      <trkpt lat="45.19845" lon="5.72801">
        <ele>384.39999389648</ele>
        <time>2022-01-21T05:10:40.000Z</time>
      </trkpt>
      <trkpt lat="45.19846" lon="5.72794">
        <ele>383.60000610352</ele>
        <time>2022-01-21T05:10:42.000Z</time>
      </trkpt>
      <trkpt lat="45.1984" lon="5.72784">
        <ele>383.20001220703</ele>
        <time>2022-01-21T05:10:45.000Z</time>
      </trkpt>
      <trkpt lat="45.19834" lon="5.72777">
        <ele>382.79998779297</ele>
        <time>2022-01-21T05:10:48.000Z</time>
      </trkpt>
      <trkpt lat="45.1983" lon="5.72774">
        <ele>382</ele>
        <time>2022-01-21T05:10:50.000Z</time>
      </trkpt>
      <trkpt lat="45.19821" lon="5.72762">
        <ele>380.79998779297</ele>
        <time>2022-01-21T05:10:55.000Z</time>
      </trkpt>
      <trkpt lat="45.19809" lon="5.72751">
        <ele>379.79998779297</ele>
        <time>2022-01-21T05:11:01.000Z</time>
      </trkpt>
      <trkpt lat="45.19807" lon="5.72749">
        <ele>379.60000610352</ele>
        <time>2022-01-21T05:11:02.000Z</time>
      </trkpt>
      <trkpt lat="45.19799" lon="5.72744">
        <ele>378.60000610352</ele>
        <time>2022-01-21T05:11:06.000Z</time>
      </trkpt>
      <trkpt lat="45.19796" lon="5.72742">
        <ele>378.39999389648</ele>
        <time>2022-01-21T05:11:07.000Z</time>
      </trkpt>
      <trkpt lat="45.19791" lon="5.72741">
        <ele>377.39999389648</ele>
        <time>2022-01-21T05:11:10.000Z</time>
      </trkpt>
      <trkpt lat="45.19789" lon="5.72741">
        <ele>377.20001220703</ele>
        <time>2022-01-21T05:11:12.000Z</time>
      </trkpt>
      <trkpt lat="45.19789" lon="5.72741">
        <ele>376.79998779297</ele>
        <time>2022-01-21T05:11:13.000Z</time>
      </trkpt>
      <trkpt lat="45.19791" lon="5.72744">
        <ele>376.20001220703</ele>
        <time>2022-01-21T05:11:15.000Z</time>
      </trkpt>
      <trkpt lat="45.19799" lon="5.72749">
        <ele>375.39999389648</ele>
        <time>2022-01-21T05:11:19.000Z</time>
      </trkpt>
      <trkpt lat="45.19802" lon="5.72749">
        <ele>374.79998779297</ele>
        <time>2022-01-21T05:11:20.000Z</time>
      </trkpt>
      <trkpt lat="45.19807" lon="5.72753">
        <ele>374.20001220703</ele>
        <time>2022-01-21T05:11:23.000Z</time>
      </trkpt>
      <trkpt lat="45.1981" lon="5.72758">
        <ele>373.79998779297</ele>
        <time>2022-01-21T05:11:25.000Z</time>
      </trkpt>
      <trkpt lat="45.19814" lon="5.7277">
        <ele>372.39999389648</ele>
        <time>2022-01-21T05:11:29.000Z</time>
      </trkpt>
      <trkpt lat="45.19822" lon="5.72777">
        <ele>371</ele>
        <time>2022-01-21T05:11:33.000Z</time>
      </trkpt>
      <trkpt lat="45.19832" lon="5.72788">
        <ele>369.79998779297</ele>
        <time>2022-01-21T05:11:38.000Z</time>
      </trkpt>
      <trkpt lat="45.19834" lon="5.7279">
        <ele>369.60000610352</ele>
        <time>2022-01-21T05:11:39.000Z</time>
      </trkpt>
      <trkpt lat="45.19844" lon="5.72796">
        <ele>368.20001220703</ele>
        <time>2022-01-21T05:11:44.000Z</time>
      </trkpt>
      <trkpt lat="45.19845" lon="5.72803">
        <ele>367.20001220703</ele>
        <time>2022-01-21T05:11:47.000Z</time>
      </trkpt>
      <trkpt lat="45.19843" lon="5.72803">
        <ele>367</ele>
        <time>2022-01-21T05:11:48.000Z</time>
      </trkpt>
      <trkpt lat="45.19833" lon="5.72803">
        <ele>366.20001220703</ele>
        <time>2022-01-21T05:11:51.000Z</time>
      </trkpt>
      <trkpt lat="45.1983" lon="5.72802">
        <ele>365.60000610352</ele>
        <time>2022-01-21T05:11:52.000Z</time>
      </trkpt>
      <trkpt lat="45.19823" lon="5.72796">
        <ele>364.60000610352</ele>
        <time>2022-01-21T05:11:56.000Z</time>
      </trkpt>
      <trkpt lat="45.19819" lon="5.72793">
        <ele>363.79998779297</ele>
        <time>2022-01-21T05:11:58.000Z</time>
      </trkpt>
      <trkpt lat="45.19815" lon="5.7279">
        <ele>363.39999389648</ele>
        <time>2022-01-21T05:12:00.000Z</time>
      </trkpt>
      <trkpt lat="45.19806" lon="5.72786">
        <ele>362.39999389648</ele>
        <time>2022-01-21T05:12:04.000Z</time>
      </trkpt>
      <trkpt lat="45.198" lon="5.72783">
        <ele>361.60000610352</ele>
        <time>2022-01-21T05:12:07.000Z</time>
      </trkpt>
      <trkpt lat="45.19798" lon="5.72783">
        <ele>361.39999389648</ele>
        <time>2022-01-21T05:12:08.000Z</time>
      </trkpt>
      <trkpt lat="45.19797" lon="5.72785">
        <ele>360.60000610352</ele>
        <time>2022-01-21T05:12:11.000Z</time>
      </trkpt>
      <trkpt lat="45.19798" lon="5.72785">
        <ele>360.39999389648</ele>
        <time>2022-01-21T05:12:12.000Z</time>
      </trkpt>
      <trkpt lat="45.19799" lon="5.72786">
        <ele>360</ele>
        <time>2022-01-21T05:12:13.000Z</time>
      </trkpt>
      <trkpt lat="45.19804" lon="5.72788">
        <ele>359.20001220703</ele>
        <time>2022-01-21T05:12:16.000Z</time>
      </trkpt>
      <trkpt lat="45.19807" lon="5.72788">
        <ele>359.20001220703</ele>
        <time>2022-01-21T05:12:17.000Z</time>
      </trkpt>
      <trkpt lat="45.19809" lon="5.72789">
        <ele>359</ele>
        <time>2022-01-21T05:12:18.000Z</time>
      </trkpt>
      <trkpt lat="45.19819" lon="5.72797">
        <ele>358.60000610352</ele>
        <time>2022-01-21T05:12:22.000Z</time>
      </trkpt>
      <trkpt lat="45.19823" lon="5.72799">
        <ele>357.79998779297</ele>
        <time>2022-01-21T05:12:24.000Z</time>
      </trkpt>
      <trkpt lat="45.19833" lon="5.72811">
        <ele>356.39999389648</ele>
        <time>2022-01-21T05:12:29.000Z</time>
      </trkpt>
      <trkpt lat="45.19835" lon="5.72812">
        <ele>355.79998779297</ele>
        <time>2022-01-21T05:12:30.000Z</time>
      </trkpt>
      <trkpt lat="45.19839" lon="5.72816">
        <ele>355.39999389648</ele>
        <time>2022-01-21T05:12:32.000Z</time>
      </trkpt>
      <trkpt lat="45.19844" lon="5.7282">
        <ele>354.20001220703</ele>
        <time>2022-01-21T05:12:35.000Z</time>
      </trkpt>
      <trkpt lat="45.19847" lon="5.72824">
        <ele>353.60000610352</ele>
        <time>2022-01-21T05:12:37.000Z</time>
      </trkpt>
      <trkpt lat="45.19849" lon="5.72826">
        <ele>353.20001220703</ele>
        <time>2022-01-21T05:12:39.000Z</time>
      </trkpt>
      <trkpt lat="45.19848" lon="5.72826">
        <ele>353</ele>
        <time>2022-01-21T05:12:40.000Z</time>
      </trkpt>
      <trkpt lat="45.19845" lon="5.72823">
        <ele>352.79998779297</ele>
        <time>2022-01-21T05:12:41.000Z</time>
      </trkpt>
      <trkpt lat="45.1984" lon="5.72821">
        <ele>351.79998779297</ele>
        <time>2022-01-21T05:12:43.000Z</time>
      </trkpt>
      <trkpt lat="45.1983" lon="5.72817">
        <ele>351.20001220703</ele>
        <time>2022-01-21T05:12:47.000Z</time>
      </trkpt>
      <trkpt lat="45.19826" lon="5.72816">
        <ele>350.39999389648</ele>
        <time>2022-01-21T05:12:49.000Z</time>
      </trkpt>
      <trkpt lat="45.19818" lon="5.72816">
        <ele>349.20001220703</ele>
        <time>2022-01-21T05:12:53.000Z</time>
      </trkpt>
      <trkpt lat="45.19818" lon="5.72817">
        <ele>349</ele>
        <time>2022-01-21T05:12:54.000Z</time>
      </trkpt>
      <trkpt lat="45.1982" lon="5.72819">
        <ele>348.60000610352</ele>
        <time>2022-01-21T05:12:56.000Z</time>
      </trkpt>
      <trkpt lat="45.19822" lon="5.72819">
        <ele>348.20001220703</ele>
        <time>2022-01-21T05:12:57.000Z</time>
      </trkpt>
      <trkpt lat="45.19824" lon="5.7282">
        <ele>348</ele>
        <time>2022-01-21T05:12:58.000Z</time>
      </trkpt>
      <trkpt lat="45.19834" lon="5.7283">
        <ele>347</ele>
        <time>2022-01-21T05:13:03.000Z</time>
      </trkpt>
      <trkpt lat="45.19833" lon="5.72835">
        <ele>346.39999389648</ele>
        <time>2022-01-21T05:13:05.000Z</time>
      </trkpt>
      <trkpt lat="45.19827" lon="5.72833">
        <ele>345.79998779297</ele>
        <time>2022-01-21T05:13:08.000Z</time>
      </trkpt>
      <trkpt lat="45.19816" lon="5.72829">
        <ele>344.79998779297</ele>
        <time>2022-01-21T05:13:13.000Z</time>
      </trkpt>
      <trkpt lat="45.19812" lon="5.72827">
        <ele>344</ele>
        <time>2022-01-21T05:13:15.000Z</time>
      </trkpt>
      <trkpt lat="45.1981" lon="5.72826">
        <ele>343.79998779297</ele>
        <time>2022-01-21T05:13:16.000Z</time>
      </trkpt>
      <trkpt lat="45.19803" lon="5.72823">
        <ele>342.60000610352</ele>
        <time>2022-01-21T05:13:19.000Z</time>
      </trkpt>
      <trkpt lat="45.19793" lon="5.72816">
        <ele>341.39999389648</ele>
        <time>2022-01-21T05:13:24.000Z</time>
      </trkpt>
      <trkpt lat="45.19791" lon="5.72816">
        <ele>341.20001220703</ele>
        <time>2022-01-21T05:13:25.000Z</time>
      </trkpt>
      <trkpt lat="45.19792" lon="5.72819">
        <ele>340.20001220703</ele>
        <time>2022-01-21T05:13:29.000Z</time>
      </trkpt>
      <trkpt lat="45.19796" lon="5.72821">
        <ele>340</ele>
        <time>2022-01-21T05:13:31.000Z</time>
      </trkpt>
      <trkpt lat="45.19803" lon="5.72822">
        <ele>339.60000610352</ele>
        <time>2022-01-21T05:13:33.000Z</time>
      </trkpt>
      <trkpt lat="45.19812" lon="5.72832">
        <ele>339</ele>
        <time>2022-01-21T05:13:37.000Z</time>
      </trkpt>
      <trkpt lat="45.19813" lon="5.72835">
        <ele>338.79998779297</ele>
        <time>2022-01-21T05:13:38.000Z</time>
      </trkpt>
      <trkpt lat="45.19822" lon="5.72843">
        <ele>338</ele>
        <time>2022-01-21T05:13:42.000Z</time>
      </trkpt>
      <trkpt lat="45.19823" lon="5.72846">
        <ele>337.79998779297</ele>
        <time>2022-01-21T05:13:43.000Z</time>
      </trkpt>
      <trkpt lat="45.19821" lon="5.7285">
        <ele>337.20001220703</ele>
        <time>2022-01-21T05:13:45.000Z</time>
      </trkpt>
      <trkpt lat="45.19818" lon="5.72849">
        <ele>336.60000610352</ele>
        <time>2022-01-21T05:13:46.000Z</time>
      </trkpt>
      <trkpt lat="45.19813" lon="5.72849">
        <ele>336.60000610352</ele>
        <time>2022-01-21T05:13:47.000Z</time>
      </trkpt>
      <trkpt lat="45.19808" lon="5.72849">
        <ele>336</ele>
        <time>2022-01-21T05:13:49.000Z</time>
      </trkpt>
      <trkpt lat="45.19802" lon="5.72844">
        <ele>335.39999389648</ele>
        <time>2022-01-21T05:13:52.000Z</time>
      </trkpt>
      <trkpt lat="45.19797" lon="5.72842">
        <ele>334.60000610352</ele>
        <time>2022-01-21T05:13:54.000Z</time>
      </trkpt>
      <trkpt lat="45.19794" lon="5.7284">
        <ele>334.39999389648</ele>
        <time>2022-01-21T05:13:55.000Z</time>
      </trkpt>
      <trkpt lat="45.1979" lon="5.72838">
        <ele>333.39999389648</ele>
        <time>2022-01-21T05:13:57.000Z</time>
      </trkpt>
      <trkpt lat="45.19781" lon="5.72833">
        <ele>332.39999389648</ele>
        <time>2022-01-21T05:14:01.000Z</time>
      </trkpt>
      <trkpt lat="45.19779" lon="5.72832">
        <ele>332</ele>
        <time>2022-01-21T05:14:02.000Z</time>
      </trkpt>
      <trkpt lat="45.1977" lon="5.72827">
        <ele>330.79998779297</ele>
        <time>2022-01-21T05:14:06.000Z</time>
      </trkpt>
      <trkpt lat="45.1976" lon="5.72825">
        <ele>329.79998779297</ele>
        <time>2022-01-21T05:14:10.000Z</time>
      </trkpt>
      <trkpt lat="45.19754" lon="5.7282">
        <ele>329</ele>
        <time>2022-01-21T05:14:13.000Z</time>
      </trkpt>
      <trkpt lat="45.1975" lon="5.72817">
        <ele>328.20001220703</ele>
        <time>2022-01-21T05:14:15.000Z</time>
      </trkpt>
      <trkpt lat="45.19749" lon="5.72817">
        <ele>327.20001220703</ele>
        <time>2022-01-21T05:14:18.000Z</time>
      </trkpt>
      <trkpt lat="45.1975" lon="5.72817">
        <ele>327.20001220703</ele>
        <time>2022-01-21T05:14:19.000Z</time>
      </trkpt>
      <trkpt lat="45.19751" lon="5.72817">
        <ele>327.20001220703</ele>
        <time>2022-01-21T05:14:20.000Z</time>
      </trkpt>
      <trkpt lat="45.19753" lon="5.7282">
        <ele>326.39999389648</ele>
        <time>2022-01-21T05:14:22.000Z</time>
      </trkpt>
      <trkpt lat="45.19757" lon="5.72825">
        <ele>326.20001220703</ele>
        <time>2022-01-21T05:14:24.000Z</time>
      </trkpt>
      <trkpt lat="45.19763" lon="5.72829">
        <ele>325.20001220703</ele>
        <time>2022-01-21T05:14:27.000Z</time>
      </trkpt>
      <trkpt lat="45.1977" lon="5.72834">
        <ele>324.60000610352</ele>
        <time>2022-01-21T05:14:29.000Z</time>
      </trkpt>
      <trkpt lat="45.1978" lon="5.72842">
        <ele>323.39999389648</ele>
        <time>2022-01-21T05:14:34.000Z</time>
      </trkpt>
      <trkpt lat="45.19784" lon="5.72851">
        <ele>322</ele>
        <time>2022-01-21T05:14:37.000Z</time>
      </trkpt>
      <trkpt lat="45.1979" lon="5.72855">
        <ele>320.79998779297</ele>
        <time>2022-01-21T05:14:40.000Z</time>
      </trkpt>
      <trkpt lat="45.19798" lon="5.72866">
        <ele>320.39999389648</ele>
        <time>2022-01-21T05:14:45.000Z</time>
      </trkpt>
      <trkpt lat="45.19803" lon="5.72872">
        <ele>319</ele>
        <time>2022-01-21T05:14:48.000Z</time>
      </trkpt>
      <trkpt lat="45.1981" lon="5.72882">
        <ele>318</ele>
        <time>2022-01-21T05:14:52.000Z</time>
      </trkpt>
      <trkpt lat="45.19809" lon="5.72886">
        <ele>317.79998779297</ele>
        <time>2022-01-21T05:14:53.000Z</time>
      </trkpt>
      <trkpt lat="45.19805" lon="5.72887">
        <ele>317.20001220703</ele>
        <time>2022-01-21T05:14:55.000Z</time>
      </trkpt>
      <trkpt lat="45.19802" lon="5.72886">
        <ele>316.79998779297</ele>
        <time>2022-01-21T05:14:56.000Z</time>
      </trkpt>
      <trkpt lat="45.19793" lon="5.72883">
        <ele>315.60000610352</ele>
        <time>2022-01-21T05:15:00.000Z</time>
      </trkpt>
      <trkpt lat="45.19791" lon="5.72882">
        <ele>315.20001220703</ele>
        <time>2022-01-21T05:15:01.000Z</time>
      </trkpt>
      <trkpt lat="45.19785" lon="5.72877">
        <ele>314.39999389648</ele>
        <time>2022-01-21T05:15:04.000Z</time>
      </trkpt>
      <trkpt lat="45.19774" lon="5.72871">
        <ele>313.39999389648</ele>
        <time>2022-01-21T05:15:09.000Z</time>
      </trkpt>
      <trkpt lat="45.19772" lon="5.7287">
        <ele>312.60000610352</ele>
        <time>2022-01-21T05:15:10.000Z</time>
      </trkpt>
      <trkpt lat="45.19767" lon="5.72865">
        <ele>312.39999389648</ele>
        <time>2022-01-21T05:15:13.000Z</time>
      </trkpt>
      <trkpt lat="45.19756" lon="5.72862">
        <ele>311</ele>
        <time>2022-01-21T05:15:17.000Z</time>
      </trkpt>
      <trkpt lat="45.19754" lon="5.72862">
        <ele>310.60000610352</ele>
        <time>2022-01-21T05:15:18.000Z</time>
      </trkpt>
      <trkpt lat="45.19743" lon="5.72858">
        <ele>309.39999389648</ele>
        <time>2022-01-21T05:15:22.000Z</time>
      </trkpt>
      <trkpt lat="45.19736" lon="5.72852">
        <ele>308.79998779297</ele>
        <time>2022-01-21T05:15:25.000Z</time>
      </trkpt>
      <trkpt lat="45.19735" lon="5.72851">
        <ele>308.39999389648</ele>
        <time>2022-01-21T05:15:27.000Z</time>
      </trkpt>
      <trkpt lat="45.19735" lon="5.72852">
        <ele>307.79998779297</ele>
        <time>2022-01-21T05:15:28.000Z</time>
      </trkpt>
      <trkpt lat="45.19736" lon="5.72852">
        <ele>307.79998779297</ele>
        <time>2022-01-21T05:15:29.000Z</time>
      </trkpt>
      <trkpt lat="45.19741" lon="5.72852">
        <ele>307.60000610352</ele>
        <time>2022-01-21T05:15:31.000Z</time>
      </trkpt>
      <trkpt lat="45.19746" lon="5.72856">
        <ele>306.60000610352</ele>
        <time>2022-01-21T05:15:33.000Z</time>
      </trkpt>
      <trkpt lat="45.19757" lon="5.72864">
        <ele>305.39999389648</ele>
        <time>2022-01-21T05:15:38.000Z</time>
      </trkpt>
      <trkpt lat="45.19758" lon="5.72866">
        <ele>305.20001220703</ele>
        <time>2022-01-21T05:15:39.000Z</time>
      </trkpt>
      <trkpt lat="45.19762" lon="5.72875">
        <ele>304.20001220703</ele>
        <time>2022-01-21T05:15:42.000Z</time>
      </trkpt>
      <trkpt lat="45.1977" lon="5.72885">
        <ele>303.20001220703</ele>
        <time>2022-01-21T05:15:47.000Z</time>
      </trkpt>
      <trkpt lat="45.19776" lon="5.72891">
        <ele>302</ele>
        <time>2022-01-21T05:15:50.000Z</time>
      </trkpt>
      <trkpt lat="45.19781" lon="5.72898">
        <ele>301.20001220703</ele>
        <time>2022-01-21T05:15:53.000Z</time>
      </trkpt>
      <trkpt lat="45.19783" lon="5.72901">
        <ele>301</ele>
        <time>2022-01-21T05:15:54.000Z</time>
      </trkpt>
      <trkpt lat="45.19792" lon="5.72912">
        <ele>299.20001220703</ele>
        <time>2022-01-21T05:16:00.000Z</time>
      </trkpt>
      <trkpt lat="45.19794" lon="5.72913">
        <ele>299</ele>
        <time>2022-01-21T05:16:01.000Z</time>
      </trkpt>
      <trkpt lat="45.19797" lon="5.72919">
        <ele>298.20001220703</ele>
        <time>2022-01-21T05:16:04.000Z</time>
      </trkpt>
      <trkpt lat="45.19796" lon="5.72921">
        <ele>297.79998779297</ele>
        <time>2022-01-21T05:16:06.000Z</time>
      </trkpt>
      <trkpt lat="45.19794" lon="5.7292">
        <ele>297.79998779297</ele>
        <time>2022-01-21T05:16:07.000Z</time>
      </trkpt>
      <trkpt lat="45.19792" lon="5.7292">
        <ele>297</ele>
        <time>2022-01-21T05:16:08.000Z</time>
      </trkpt>
      <trkpt lat="45.19781" lon="5.72919">
        <ele>296</ele>
        <time>2022-01-21T05:16:12.000Z</time>
      </trkpt>
      <trkpt lat="45.19777" lon="5.72918">
        <ele>295.60000610352</ele>
        <time>2022-01-21T05:16:14.000Z</time>
      </trkpt>
      <trkpt lat="45.19772" lon="5.72914">
        <ele>294.79998779297</ele>
        <time>2022-01-21T05:16:17.000Z</time>
      </trkpt>
      <trkpt lat="45.19766" lon="5.72912">
        <ele>293.79998779297</ele>
        <time>2022-01-21T05:16:20.000Z</time>
      </trkpt>
      <trkpt lat="45.19756" lon="5.72907">
        <ele>292.60000610352</ele>
        <time>2022-01-21T05:16:25.000Z</time>
      </trkpt>
      <trkpt lat="45.19753" lon="5.72907">
        <ele>292.20001220703</ele>
        <time>2022-01-21T05:16:26.000Z</time>
      </trkpt>
      <trkpt lat="45.19749" lon="5.72905">
        <ele>291.39999389648</ele>
        <time>2022-01-21T05:16:28.000Z</time>
      </trkpt>
      <trkpt lat="45.19739" lon="5.729">
        <ele>290</ele>
        <time>2022-01-21T05:16:32.000Z</time>
      </trkpt>
      <trkpt lat="45.19729" lon="5.72893">
        <ele>288.79998779297</ele>
        <time>2022-01-21T05:16:38.000Z</time>
      </trkpt>
      <trkpt lat="45.19727" lon="5.72893">
        <ele>288.60000610352</ele>
        <time>2022-01-21T05:16:39.000Z</time>
      </trkpt>
      <trkpt lat="45.19722" lon="5.72889">
        <ele>287.60000610352</ele>
        <time>2022-01-21T05:16:42.000Z</time>
      </trkpt>
      <trkpt lat="45.1972" lon="5.72888">
        <ele>287.39999389648</ele>
        <time>2022-01-21T05:16:43.000Z</time>
      </trkpt>
      <trkpt lat="45.19713" lon="5.72884">
        <ele>286.60000610352</ele>
        <time>2022-01-21T05:16:46.000Z</time>
      </trkpt>
      <trkpt lat="45.19707" lon="5.72879">
        <ele>285.60000610352</ele>
        <time>2022-01-21T05:16:49.000Z</time>
      </trkpt>
      <trkpt lat="45.19706" lon="5.72877">
        <ele>285.20001220703</ele>
        <time>2022-01-21T05:16:50.000Z</time>
      </trkpt>
      <trkpt lat="45.19693" lon="5.72866">
        <ele>284.39999389648</ele>
        <time>2022-01-21T05:16:56.000Z</time>
      </trkpt>
      <trkpt lat="45.19691" lon="5.72864">
        <ele>283.79998779297</ele>
        <time>2022-01-21T05:16:57.000Z</time>
      </trkpt>
      <trkpt lat="45.19684" lon="5.72859">
        <ele>283.39999389648</ele>
        <time>2022-01-21T05:17:02.000Z</time>
      </trkpt>
      <trkpt lat="45.19683" lon="5.72858">
        <ele>282.60000610352</ele>
        <time>2022-01-21T05:17:04.000Z</time>
      </trkpt>
      <trkpt lat="45.1968" lon="5.72854">
        <ele>281.39999389648</ele>
        <time>2022-01-21T05:17:08.000Z</time>
      </trkpt>
      <trkpt lat="45.19679" lon="5.72851">
        <ele>281.20001220703</ele>
        <time>2022-01-21T05:17:09.000Z</time>
      </trkpt>
      <trkpt lat="45.19676" lon="5.72845">
        <ele>280.39999389648</ele>
        <time>2022-01-21T05:17:12.000Z</time>
      </trkpt>
      <trkpt lat="45.19674" lon="5.72844">
        <ele>279.79998779297</ele>
        <time>2022-01-21T05:17:13.000Z</time>
      </trkpt>
      <trkpt lat="45.19672" lon="5.72842">
        <ele>279.20001220703</ele>
        <time>2022-01-21T05:17:15.000Z</time>
      </trkpt>
      <trkpt lat="45.1967" lon="5.72842">
        <ele>278.79998779297</ele>
        <time>2022-01-21T05:17:16.000Z</time>
      </trkpt>
      <trkpt lat="45.19665" lon="5.72839">
        <ele>277.20001220703</ele>
        <time>2022-01-21T05:17:20.000Z</time>
      </trkpt>
      <trkpt lat="45.19663" lon="5.72839">
        <ele>276.60000610352</ele>
        <time>2022-01-21T05:17:22.000Z</time>
      </trkpt>
      <trkpt lat="45.19661" lon="5.72838">
        <ele>275.60000610352</ele>
        <time>2022-01-21T05:17:24.000Z</time>
      </trkpt>
      <trkpt lat="45.19658" lon="5.72836">
        <ele>274.60000610352</ele>
        <time>2022-01-21T05:17:27.000Z</time>
      </trkpt>
      <trkpt lat="45.19656" lon="5.72836">
        <ele>274.20001220703</ele>
        <time>2022-01-21T05:17:29.000Z</time>
      </trkpt>
      <trkpt lat="45.19654" lon="5.72835">
        <ele>272.79998779297</ele>
        <time>2022-01-21T05:17:31.000Z</time>
      </trkpt>
      <trkpt lat="45.1965" lon="5.72834">
        <ele>271.79998779297</ele>
        <time>2022-01-21T05:17:35.000Z</time>
      </trkpt>
      <trkpt lat="45.19649" lon="5.72833">
        <ele>271.20001220703</ele>
        <time>2022-01-21T05:17:36.000Z</time>
      </trkpt>
      <trkpt lat="45.19648" lon="5.72832">
        <ele>270.79998779297</ele>
        <time>2022-01-21T05:17:37.000Z</time>
      </trkpt>
      <trkpt lat="45.19647" lon="5.72831">
        <ele>270.60000610352</ele>
        <time>2022-01-21T05:17:38.000Z</time>
      </trkpt>
      <trkpt lat="45.19642" lon="5.72828">
        <ele>269.39999389648</ele>
        <time>2022-01-21T05:17:41.000Z</time>
      </trkpt>
      <trkpt lat="45.19641" lon="5.72827">
        <ele>269.20001220703</ele>
        <time>2022-01-21T05:17:42.000Z</time>
      </trkpt>
      <trkpt lat="45.19637" lon="5.72824">
        <ele>268</ele>
        <time>2022-01-21T05:17:45.000Z</time>
      </trkpt>
      <trkpt lat="45.19632" lon="5.72821">
        <ele>266.60000610352</ele>
        <time>2022-01-21T05:17:49.000Z</time>
      </trkpt>
      <trkpt lat="45.19628" lon="5.72819">
        <ele>265.79998779297</ele>
        <time>2022-01-21T05:17:52.000Z</time>
      </trkpt>
      <trkpt lat="45.19627" lon="5.72818">
        <ele>265.39999389648</ele>
        <time>2022-01-21T05:17:53.000Z</time>
      </trkpt>
      <trkpt lat="45.19622" lon="5.72817">
        <ele>264.60000610352</ele>
        <time>2022-01-21T05:17:56.000Z</time>
      </trkpt>
      <trkpt lat="45.19621" lon="5.72817">
        <ele>264.20001220703</ele>
        <time>2022-01-21T05:17:57.000Z</time>
      </trkpt>
      <trkpt lat="45.19618" lon="5.72815">
        <ele>263.20001220703</ele>
        <time>2022-01-21T05:18:00.000Z</time>
      </trkpt>
      <trkpt lat="45.19614" lon="5.72815">
        <ele>262</ele>
        <time>2022-01-21T05:18:03.000Z</time>
      </trkpt>
      <trkpt lat="45.19608" lon="5.72815">
        <ele>261.39999389648</ele>
        <time>2022-01-21T05:18:07.000Z</time>
      </trkpt>
      <trkpt lat="45.19607" lon="5.72815">
        <ele>260.60000610352</ele>
        <time>2022-01-21T05:18:08.000Z</time>
      </trkpt>
      <trkpt lat="45.19603" lon="5.72813">
        <ele>259.20001220703</ele>
        <time>2022-01-21T05:18:11.000Z</time>
      </trkpt>
      <trkpt lat="45.19597" lon="5.72811">
        <ele>258</ele>
        <time>2022-01-21T05:18:14.000Z</time>
      </trkpt>
      <trkpt lat="45.19595" lon="5.72809">
        <ele>258</ele>
        <time>2022-01-21T05:18:15.000Z</time>
      </trkpt>
      <trkpt lat="45.19591" lon="5.72806">
        <ele>256.39999389648</ele>
        <time>2022-01-21T05:18:18.000Z</time>
      </trkpt>
      <trkpt lat="45.19583" lon="5.72804">
        <ele>255.19999694824</ele>
        <time>2022-01-21T05:18:22.000Z</time>
      </trkpt>
      <trkpt lat="45.19581" lon="5.72804">
        <ele>254.80000305176</ele>
        <time>2022-01-21T05:18:23.000Z</time>
      </trkpt>
      <trkpt lat="45.19573" lon="5.72802">
        <ele>254</ele>
        <time>2022-01-21T05:18:26.000Z</time>
      </trkpt>
      <trkpt lat="45.19571" lon="5.728">
        <ele>253.60000610352</ele>
        <time>2022-01-21T05:18:27.000Z</time>
      </trkpt>
      <trkpt lat="45.19565" lon="5.72799">
        <ele>252.80000305176</ele>
        <time>2022-01-21T05:18:29.000Z</time>
      </trkpt>
      <trkpt lat="45.19559" lon="5.72794">
        <ele>252</ele>
        <time>2022-01-21T05:18:33.000Z</time>
      </trkpt>
      <trkpt lat="45.19558" lon="5.72792">
        <ele>251.60000610352</ele>
        <time>2022-01-21T05:18:34.000Z</time>
      </trkpt>
      <trkpt lat="45.19553" lon="5.72786">
        <ele>250.60000610352</ele>
        <time>2022-01-21T05:18:37.000Z</time>
      </trkpt>
      <trkpt lat="45.19548" lon="5.72779">
        <ele>249.60000610352</ele>
        <time>2022-01-21T05:18:41.000Z</time>
      </trkpt>
      <trkpt lat="45.19547" lon="5.72777">
        <ele>249.39999389648</ele>
        <time>2022-01-21T05:18:42.000Z</time>
      </trkpt>
      <trkpt lat="45.19545" lon="5.72773">
        <ele>248.39999389648</ele>
        <time>2022-01-21T05:18:45.000Z</time>
      </trkpt>
      <trkpt lat="45.19545" lon="5.72771">
        <ele>248.39999389648</ele>
        <time>2022-01-21T05:18:46.000Z</time>
      </trkpt>
      <trkpt lat="45.19544" lon="5.72768">
        <ele>247.80000305176</ele>
        <time>2022-01-21T05:18:48.000Z</time>
      </trkpt>
      <trkpt lat="45.19542" lon="5.72764">
        <ele>247.19999694824</ele>
        <time>2022-01-21T05:18:50.000Z</time>
      </trkpt>
      <trkpt lat="45.19541" lon="5.72764">
        <ele>246</ele>
        <time>2022-01-21T05:18:51.000Z</time>
      </trkpt>
      <trkpt lat="45.19537" lon="5.72773">
        <ele>245</ele>
        <time>2022-01-21T05:18:57.000Z</time>
      </trkpt>
      <trkpt lat="45.19536" lon="5.72774">
        <ele>244.80000305176</ele>
        <time>2022-01-21T05:18:58.000Z</time>
      </trkpt>
      <trkpt lat="45.19535" lon="5.72776">
        <ele>244.39999389648</ele>
        <time>2022-01-21T05:19:00.000Z</time>
      </trkpt>
      <trkpt lat="45.19536" lon="5.72778">
        <ele>243.60000610352</ele>
        <time>2022-01-21T05:19:02.000Z</time>
      </trkpt>
      <trkpt lat="45.19535" lon="5.72782">
        <ele>242.60000610352</ele>
        <time>2022-01-21T05:19:05.000Z</time>
      </trkpt>
      <trkpt lat="45.19535" lon="5.72783">
        <ele>242.19999694824</ele>
        <time>2022-01-21T05:19:06.000Z</time>
      </trkpt>
      <trkpt lat="45.19534" lon="5.72786">
        <ele>240.80000305176</ele>
        <time>2022-01-21T05:19:09.000Z</time>
      </trkpt>
      <trkpt lat="45.19532" lon="5.7279">
        <ele>239.39999389648</ele>
        <time>2022-01-21T05:19:13.000Z</time>
      </trkpt>
      <trkpt lat="45.19531" lon="5.72791">
        <ele>239.19999694824</ele>
        <time>2022-01-21T05:19:14.000Z</time>
      </trkpt>
      <trkpt lat="45.1953" lon="5.72793">
        <ele>238</ele>
        <time>2022-01-21T05:19:16.000Z</time>
      </trkpt>
      <trkpt lat="45.19529" lon="5.72795">
        <ele>237.19999694824</ele>
        <time>2022-01-21T05:19:19.000Z</time>
      </trkpt>
      <trkpt lat="45.19528" lon="5.72797">
        <ele>236.80000305176</ele>
        <time>2022-01-21T05:19:20.000Z</time>
      </trkpt>
      <trkpt lat="45.19527" lon="5.728">
        <ele>235.80000305176</ele>
        <time>2022-01-21T05:19:23.000Z</time>
      </trkpt>
      <trkpt lat="45.19527" lon="5.72801">
        <ele>235.39999389648</ele>
        <time>2022-01-21T05:19:24.000Z</time>
      </trkpt>
      <trkpt lat="45.19529" lon="5.72804">
        <ele>234.60000610352</ele>
        <time>2022-01-21T05:19:26.000Z</time>
      </trkpt>
      <trkpt lat="45.19532" lon="5.72807">
        <ele>233.80000305176</ele>
        <time>2022-01-21T05:19:29.000Z</time>
      </trkpt>
      <trkpt lat="45.19535" lon="5.72809">
        <ele>233.39999389648</ele>
        <time>2022-01-21T05:19:31.000Z</time>
      </trkpt>
      <trkpt lat="45.19537" lon="5.72817">
        <ele>231.80000305176</ele>
        <time>2022-01-21T05:19:36.000Z</time>
      </trkpt>
      <trkpt lat="45.19539" lon="5.72819">
        <ele>231</ele>
        <time>2022-01-21T05:19:38.000Z</time>
      </trkpt>
      <trkpt lat="45.19541" lon="5.72822">
        <ele>230.60000610352</ele>
        <time>2022-01-21T05:19:40.000Z</time>
      </trkpt>
      <trkpt lat="45.19542" lon="5.72825">
        <ele>229.60000610352</ele>
        <time>2022-01-21T05:19:43.000Z</time>
      </trkpt>
      <trkpt lat="45.19543" lon="5.72828">
        <ele>229</ele>
        <time>2022-01-21T05:19:45.000Z</time>
      </trkpt>
      <trkpt lat="45.19544" lon="5.7283">
        <ele>228.19999694824</ele>
        <time>2022-01-21T05:19:47.000Z</time>
      </trkpt>
      <trkpt lat="45.19546" lon="5.72834">
        <ele>227.19999694824</ele>
        <time>2022-01-21T05:19:50.000Z</time>
      </trkpt>
      <trkpt lat="45.19547" lon="5.72836">
        <ele>226</ele>
        <time>2022-01-21T05:19:51.000Z</time>
      </trkpt>
      <trkpt lat="45.19548" lon="5.72837">
        <ele>226</ele>
        <time>2022-01-21T05:19:52.000Z</time>
      </trkpt>
      <trkpt lat="45.1955" lon="5.72839">
        <ele>225.39999389648</ele>
        <time>2022-01-21T05:19:54.000Z</time>
      </trkpt>
      <trkpt lat="45.1955" lon="5.7284">
        <ele>224.60000610352</ele>
        <time>2022-01-21T05:19:56.000Z</time>
      </trkpt>
      <trkpt lat="45.1955" lon="5.72842">
        <ele>224.19999694824</ele>
        <time>2022-01-21T05:19:57.000Z</time>
      </trkpt>
      <trkpt lat="45.19549" lon="5.72843">
        <ele>223.80000305176</ele>
        <time>2022-01-21T05:19:58.000Z</time>
      </trkpt>
      <trkpt lat="45.19547" lon="5.72843">
        <ele>223.19999694824</ele>
        <time>2022-01-21T05:20:00.000Z</time>
      </trkpt>
      <trkpt lat="45.19545" lon="5.72844">
        <ele>221.80000305176</ele>
        <time>2022-01-21T05:20:03.000Z</time>
      </trkpt>
      <trkpt lat="45.19544" lon="5.72844">
        <ele>221.60000610352</ele>
        <time>2022-01-21T05:20:04.000Z</time>
      </trkpt>
      <trkpt lat="45.1954" lon="5.72845">
        <ele>221.19999694824</ele>
        <time>2022-01-21T05:20:06.000Z</time>
      </trkpt>
      <trkpt lat="45.19537" lon="5.72843">
        <ele>220.60000610352</ele>
        <time>2022-01-21T05:20:08.000Z</time>
      </trkpt>
      <trkpt lat="45.19536" lon="5.72843">
        <ele>220</ele>
        <time>2022-01-21T05:20:09.000Z</time>
      </trkpt>
      <trkpt lat="45.19534" lon="5.72843">
        <ele>219.60000610352</ele>
        <time>2022-01-21T05:20:10.000Z</time>
      </trkpt>
      <trkpt lat="45.19533" lon="5.72842">
        <ele>219.39999389648</ele>
        <time>2022-01-21T05:20:11.000Z</time>
      </trkpt>
      <trkpt lat="45.19531" lon="5.72841">
        <ele>218.60000610352</ele>
        <time>2022-01-21T05:20:13.000Z</time>
      </trkpt>
      <trkpt lat="45.19529" lon="5.72839">
        <ele>218.39999389648</ele>
        <time>2022-01-21T05:20:15.000Z</time>
      </trkpt>
      <trkpt lat="45.19528" lon="5.7284">
        <ele>217.80000305176</ele>
        <time>2022-01-21T05:20:16.000Z</time>
      </trkpt>
      <trkpt lat="45.19525" lon="5.7284">
        <ele>217.19999694824</ele>
        <time>2022-01-21T05:20:18.000Z</time>
      </trkpt>
      <trkpt lat="45.19521" lon="5.72838">
        <ele>217</ele>
        <time>2022-01-21T05:20:20.000Z</time>
      </trkpt>
      <trkpt lat="45.19518" lon="5.72841">
        <ele>216.19999694824</ele>
        <time>2022-01-21T05:20:23.000Z</time>
      </trkpt>
      <trkpt lat="45.19516" lon="5.72843">
        <ele>215.80000305176</ele>
        <time>2022-01-21T05:20:26.000Z</time>
      </trkpt>
      <trkpt lat="45.19515" lon="5.72844">
        <ele>215</ele>
        <time>2022-01-21T05:20:27.000Z</time>
      </trkpt>
      <trkpt lat="45.19509" lon="5.72849">
        <ele>214</ele>
        <time>2022-01-21T05:20:32.000Z</time>
      </trkpt>
      <trkpt lat="45.19506" lon="5.7285">
        <ele>213.19999694824</ele>
        <time>2022-01-21T05:20:35.000Z</time>
      </trkpt>
      <trkpt lat="45.19504" lon="5.72852">
        <ele>213</ele>
        <time>2022-01-21T05:20:37.000Z</time>
      </trkpt>
      <trkpt lat="45.19502" lon="5.72852">
        <ele>212.60000610352</ele>
        <time>2022-01-21T05:20:39.000Z</time>
      </trkpt>
      <trkpt lat="45.19502" lon="5.72853">
        <ele>212</ele>
        <time>2022-01-21T05:20:42.000Z</time>
      </trkpt>
      <trkpt lat="45.19503" lon="5.72853">
        <ele>211.80000305176</ele>
        <time>2022-01-21T05:20:43.000Z</time>
      </trkpt>
      <trkpt lat="45.19504" lon="5.72855">
        <ele>211.19999694824</ele>
        <time>2022-01-21T05:20:44.000Z</time>
      </trkpt>
      <trkpt lat="45.19505" lon="5.72857">
        <ele>210.19999694824</ele>
        <time>2022-01-21T05:20:47.000Z</time>
      </trkpt>
      <trkpt lat="45.19505" lon="5.72858">
        <ele>209.80000305176</ele>
        <time>2022-01-21T05:20:48.000Z</time>
      </trkpt>
      <trkpt lat="45.19506" lon="5.72859">
        <ele>209.39999389648</ele>
        <time>2022-01-21T05:20:49.000Z</time>
      </trkpt>
      <trkpt lat="45.19506" lon="5.7286">
        <ele>208.60000610352</ele>
        <time>2022-01-21T05:20:51.000Z</time>
      </trkpt>
      <trkpt lat="45.19505" lon="5.72861">
        <ele>208.39999389648</ele>
        <time>2022-01-21T05:20:52.000Z</time>
      </trkpt>
      <trkpt lat="45.19501" lon="5.72862">
        <ele>207.39999389648</ele>
        <time>2022-01-21T05:20:56.000Z</time>
      </trkpt>
      <trkpt lat="45.19499" lon="5.72862">
        <ele>207</ele>
        <time>2022-01-21T05:20:57.000Z</time>
      </trkpt>
      <trkpt lat="45.19495" lon="5.72864">
        <ele>206.80000305176</ele>
        <time>2022-01-21T05:21:00.000Z</time>
      </trkpt>
      <trkpt lat="45.19488" lon="5.72861">
        <ele>206.80000305176</ele>
        <time>2022-01-21T05:21:05.000Z</time>
      </trkpt>
      <trkpt lat="45.19487" lon="5.72859">
        <ele>206.80000305176</ele>
        <time>2022-01-21T05:21:10.000Z</time>
      </trkpt>
      <trkpt lat="45.19488" lon="5.72858">
        <ele>207.19999694824</ele>
        <time>2022-01-21T05:21:16.000Z</time>
      </trkpt>
      <trkpt lat="45.19488" lon="5.72857">
        <ele>207.19999694824</ele>
        <time>2022-01-21T05:21:19.000Z</time>
      </trkpt>
      <trkpt lat="45.19488" lon="5.72857">
        <ele>207.19999694824</ele>
        <time>2022-01-21T05:21:25.000Z</time>
      </trkpt>
      <trkpt lat="45.19488" lon="5.72857">
        <ele>207.19999694824</ele>
        <time>2022-01-21T05:21:28.000Z</time>
      </trkpt>
      <trkpt lat="45.19488" lon="5.72857">
        <ele>207</ele>
        <time>2022-01-21T05:21:32.000Z</time>
      </trkpt>
      <trkpt lat="45.19488" lon="5.72857">
        <ele>207</ele>
        <time>2022-01-21T05:21:34.000Z</time>
      </trkpt>
      <trkpt lat="45.19488" lon="5.72856">
        <ele>207</ele>
        <time>2022-01-21T05:21:35.000Z</time>
      </trkpt>
      <trkpt lat="45.19488" lon="5.72855">
        <ele>207</ele>
        <time>2022-01-21T05:21:37.000Z</time>
      </trkpt>
      <trkpt lat="45.19488" lon="5.72855">
        <ele>207</ele>
        <time>2022-01-21T05:21:39.000Z</time>
      </trkpt>
      <trkpt lat="45.19486" lon="5.72856">
        <ele>207</ele>
        <time>2022-01-21T05:21:41.000Z</time>
      </trkpt>
      <trkpt lat="45.19474" lon="5.72869">
        <ele>207.19999694824</ele>
        <time>2022-01-21T05:21:46.000Z</time>
      </trkpt>
      <trkpt lat="45.19471" lon="5.72875">
        <ele>207.19999694824</ele>
        <time>2022-01-21T05:21:47.000Z</time>
      </trkpt>
      <trkpt lat="45.19471" lon="5.72877">
        <ele>207.39999389648</ele>
        <time>2022-01-21T05:21:48.000Z</time>
      </trkpt>
      <trkpt lat="45.19473" lon="5.72885">
        <ele>207.60000610352</ele>
        <time>2022-01-21T05:21:51.000Z</time>
      </trkpt>
      <trkpt lat="45.19475" lon="5.72887">
        <ele>207.60000610352</ele>
        <time>2022-01-21T05:21:52.000Z</time>
      </trkpt>
      <trkpt lat="45.19479" lon="5.72894">
        <ele>207.60000610352</ele>
        <time>2022-01-21T05:21:55.000Z</time>
      </trkpt>
      <trkpt lat="45.19482" lon="5.72906">
        <ele>208</ele>
        <time>2022-01-21T05:21:59.000Z</time>
      </trkpt>
      <trkpt lat="45.19485" lon="5.72913">
        <ele>208</ele>
        <time>2022-01-21T05:22:01.000Z</time>
      </trkpt>
      <trkpt lat="45.19499" lon="5.7293">
        <ele>208.39999389648</ele>
        <time>2022-01-21T05:22:07.000Z</time>
      </trkpt>
      <trkpt lat="45.19501" lon="5.72933">
        <ele>208.39999389648</ele>
        <time>2022-01-21T05:22:08.000Z</time>
      </trkpt>
      <trkpt lat="45.19504" lon="5.72937">
        <ele>208.39999389648</ele>
        <time>2022-01-21T05:22:10.000Z</time>
      </trkpt>
      <trkpt lat="45.19511" lon="5.72944">
        <ele>208.39999389648</ele>
        <time>2022-01-21T05:22:13.000Z</time>
      </trkpt>
      <trkpt lat="45.19513" lon="5.72947">
        <ele>208.39999389648</ele>
        <time>2022-01-21T05:22:14.000Z</time>
      </trkpt>
      <trkpt lat="45.19521" lon="5.72961">
        <ele>208.80000305176</ele>
        <time>2022-01-21T05:22:19.000Z</time>
      </trkpt>
      <trkpt lat="45.19525" lon="5.72965">
        <ele>208.80000305176</ele>
        <time>2022-01-21T05:22:21.000Z</time>
      </trkpt>
      <trkpt lat="45.19535" lon="5.72981">
        <ele>209</ele>
        <time>2022-01-21T05:22:27.000Z</time>
      </trkpt>
      <trkpt lat="45.19537" lon="5.72984">
        <ele>209</ele>
        <time>2022-01-21T05:22:28.000Z</time>
      </trkpt>
      <trkpt lat="45.19549" lon="5.72996">
        <ele>209.19999694824</ele>
        <time>2022-01-21T05:22:33.000Z</time>
      </trkpt>
      <trkpt lat="45.19559" lon="5.73009">
        <ele>209.19999694824</ele>
        <time>2022-01-21T05:22:38.000Z</time>
      </trkpt>
      <trkpt lat="45.19561" lon="5.73012">
        <ele>209.19999694824</ele>
        <time>2022-01-21T05:22:39.000Z</time>
      </trkpt>
      <trkpt lat="45.19571" lon="5.73025">
        <ele>209.39999389648</ele>
        <time>2022-01-21T05:22:44.000Z</time>
      </trkpt>
      <trkpt lat="45.19575" lon="5.73035">
        <ele>208.80000305176</ele>
        <time>2022-01-21T05:22:47.000Z</time>
      </trkpt>
      <trkpt lat="45.19586" lon="5.7305">
        <ele>208.80000305176</ele>
        <time>2022-01-21T05:22:53.000Z</time>
      </trkpt>
      <trkpt lat="45.19594" lon="5.73068">
        <ele>208.60000610352</ele>
        <time>2022-01-21T05:22:59.000Z</time>
      </trkpt>
      <trkpt lat="45.19603" lon="5.73081">
        <ele>208.60000610352</ele>
        <time>2022-01-21T05:23:04.000Z</time>
      </trkpt>
      <trkpt lat="45.19606" lon="5.73087">
        <ele>208.19999694824</ele>
        <time>2022-01-21T05:23:06.000Z</time>
      </trkpt>
      <trkpt lat="45.19616" lon="5.73102">
        <ele>208.60000610352</ele>
        <time>2022-01-21T05:23:12.000Z</time>
      </trkpt>
      <trkpt lat="45.19628" lon="5.73117">
        <ele>208.19999694824</ele>
        <time>2022-01-21T05:23:18.000Z</time>
      </trkpt>
      <trkpt lat="45.19642" lon="5.73133">
        <ele>207.80000305176</ele>
        <time>2022-01-21T05:23:24.000Z</time>
      </trkpt>
      <trkpt lat="45.19644" lon="5.73135">
        <ele>207.80000305176</ele>
        <time>2022-01-21T05:23:25.000Z</time>
      </trkpt>
      <trkpt lat="45.19655" lon="5.73152">
        <ele>208</ele>
        <time>2022-01-21T05:23:31.000Z</time>
      </trkpt>
      <trkpt lat="45.19668" lon="5.73164">
        <ele>208</ele>
        <time>2022-01-21T05:23:37.000Z</time>
      </trkpt>
      <trkpt lat="45.19669" lon="5.73167">
        <ele>208</ele>
        <time>2022-01-21T05:23:38.000Z</time>
      </trkpt>
      <trkpt lat="45.19678" lon="5.73181">
        <ele>207.60000610352</ele>
        <time>2022-01-21T05:23:44.000Z</time>
      </trkpt>
      <trkpt lat="45.19689" lon="5.73192">
        <ele>207.60000610352</ele>
        <time>2022-01-21T05:23:50.000Z</time>
      </trkpt>
      <trkpt lat="45.19697" lon="5.73195">
        <ele>207.80000305176</ele>
        <time>2022-01-21T05:23:53.000Z</time>
      </trkpt>
      <trkpt lat="45.19711" lon="5.73206">
        <ele>208</ele>
        <time>2022-01-21T05:23:59.000Z</time>
      </trkpt>
      <trkpt lat="45.19716" lon="5.7321">
        <ele>207.80000305176</ele>
        <time>2022-01-21T05:24:01.000Z</time>
      </trkpt>
      <trkpt lat="45.19721" lon="5.73218">
        <ele>207.39999389648</ele>
        <time>2022-01-21T05:24:04.000Z</time>
      </trkpt>
      <trkpt lat="45.19724" lon="5.73219">
        <ele>207.80000305176</ele>
        <time>2022-01-21T05:24:05.000Z</time>
      </trkpt>
      <trkpt lat="45.19727" lon="5.7322">
        <ele>207.39999389648</ele>
        <time>2022-01-21T05:24:06.000Z</time>
      </trkpt>
      <trkpt lat="45.19739" lon="5.7323">
        <ele>208</ele>
        <time>2022-01-21T05:24:12.000Z</time>
      </trkpt>
      <trkpt lat="45.19747" lon="5.73236">
        <ele>208.19999694824</ele>
        <time>2022-01-21T05:24:15.000Z</time>
      </trkpt>
      <trkpt lat="45.1976" lon="5.73244">
        <ele>208.39999389648</ele>
        <time>2022-01-21T05:24:20.000Z</time>
      </trkpt>
      <trkpt lat="45.19765" lon="5.73254">
        <ele>208.39999389648</ele>
        <time>2022-01-21T05:24:23.000Z</time>
      </trkpt>
      <trkpt lat="45.19764" lon="5.73259">
        <ele>208.60000610352</ele>
        <time>2022-01-21T05:24:24.000Z</time>
      </trkpt>
      <trkpt lat="45.1976" lon="5.73271">
        <ele>208.80000305176</ele>
        <time>2022-01-21T05:24:27.000Z</time>
      </trkpt>
      <trkpt lat="45.19752" lon="5.73292">
        <ele>209</ele>
        <time>2022-01-21T05:24:33.000Z</time>
      </trkpt>
      <trkpt lat="45.19749" lon="5.73302">
        <ele>209.19999694824</ele>
        <time>2022-01-21T05:24:36.000Z</time>
      </trkpt>
      <trkpt lat="45.19743" lon="5.73323">
        <ele>209.19999694824</ele>
        <time>2022-01-21T05:24:42.000Z</time>
      </trkpt>
      <trkpt lat="45.1974" lon="5.73333">
        <ele>209.19999694824</ele>
        <time>2022-01-21T05:24:45.000Z</time>
      </trkpt>
      <trkpt lat="45.19734" lon="5.73354">
        <ele>208.60000610352</ele>
        <time>2022-01-21T05:24:51.000Z</time>
      </trkpt>
      <trkpt lat="45.1973" lon="5.73365">
        <ele>208.19999694824</ele>
        <time>2022-01-21T05:24:54.000Z</time>
      </trkpt>
      <trkpt lat="45.19724" lon="5.73382">
        <ele>207.39999389648</ele>
        <time>2022-01-21T05:24:59.000Z</time>
      </trkpt>
      <trkpt lat="45.19714" lon="5.734">
        <ele>206.60000610352</ele>
        <time>2022-01-21T05:25:05.000Z</time>
      </trkpt>
      <trkpt lat="45.19713" lon="5.73403">
        <ele>206.39999389648</ele>
        <time>2022-01-21T05:25:06.000Z</time>
      </trkpt>
      <trkpt lat="45.19711" lon="5.73408">
        <ele>206.19999694824</ele>
        <time>2022-01-21T05:25:08.000Z</time>
      </trkpt>
      <trkpt lat="45.19705" lon="5.73415">
        <ele>205.60000610352</ele>
        <time>2022-01-21T05:25:12.000Z</time>
      </trkpt>
      <trkpt lat="45.19704" lon="5.73415">
        <ele>205.60000610352</ele>
        <time>2022-01-21T05:25:13.000Z</time>
      </trkpt>
      <trkpt lat="45.19704" lon="5.73415">
        <ele>205.60000610352</ele>
        <time>2022-01-21T05:25:15.000Z</time>
      </trkpt>
      <trkpt lat="45.19701" lon="5.73417">
        <ele>205.60000610352</ele>
        <time>2022-01-21T05:25:18.000Z</time>
      </trkpt>
      <trkpt lat="45.19698" lon="5.7342">
        <ele>205.39999389648</ele>
        <time>2022-01-21T05:25:20.000Z</time>
      </trkpt>
      <trkpt lat="45.19684" lon="5.73422">
        <ele>205.39999389648</ele>
        <time>2022-01-21T05:25:26.000Z</time>
      </trkpt>
      <trkpt lat="45.19673" lon="5.73424">
        <ele>205.19999694824</ele>
        <time>2022-01-21T05:25:30.000Z</time>
      </trkpt>
      <trkpt lat="45.19665" lon="5.73426">
        <ele>205.19999694824</ele>
        <time>2022-01-21T05:25:33.000Z</time>
      </trkpt>
      <trkpt lat="45.19654" lon="5.7343">
        <ele>205.39999389648</ele>
        <time>2022-01-21T05:25:39.000Z</time>
      </trkpt>
      <trkpt lat="45.19641" lon="5.73444">
        <ele>205.39999389648</ele>
        <time>2022-01-21T05:25:45.000Z</time>
      </trkpt>
      <trkpt lat="45.19629" lon="5.73442">
        <ele>205.60000610352</ele>
        <time>2022-01-21T05:25:49.000Z</time>
      </trkpt>
      <trkpt lat="45.19623" lon="5.73439">
        <ele>205.60000610352</ele>
        <time>2022-01-21T05:25:51.000Z</time>
      </trkpt>
      <trkpt lat="45.19605" lon="5.73444">
        <ele>205.60000610352</ele>
        <time>2022-01-21T05:25:57.000Z</time>
      </trkpt>
      <trkpt lat="45.19598" lon="5.73473">
        <ele>205.60000610352</ele>
        <time>2022-01-21T05:26:03.000Z</time>
      </trkpt>
      <trkpt lat="45.19593" lon="5.73479">
        <ele>205.60000610352</ele>
        <time>2022-01-21T05:26:07.000Z</time>
      </trkpt>
      <trkpt lat="45.1959" lon="5.73482">
        <ele>205.80000305176</ele>
        <time>2022-01-21T05:26:09.000Z</time>
      </trkpt>
      <trkpt lat="45.19579" lon="5.73488">
        <ele>206.19999694824</ele>
        <time>2022-01-21T05:26:14.000Z</time>
      </trkpt>
      <trkpt lat="45.19576" lon="5.73492">
        <ele>206.19999694824</ele>
        <time>2022-01-21T05:26:16.000Z</time>
      </trkpt>
      <trkpt lat="45.19561" lon="5.73495">
        <ele>206.39999389648</ele>
        <time>2022-01-21T05:26:22.000Z</time>
      </trkpt>
      <trkpt lat="45.19555" lon="5.73498">
        <ele>206.39999389648</ele>
        <time>2022-01-21T05:26:24.000Z</time>
      </trkpt>
      <trkpt lat="45.1954" lon="5.73505">
        <ele>206.39999389648</ele>
        <time>2022-01-21T05:26:30.000Z</time>
      </trkpt>
      <trkpt lat="45.19536" lon="5.73507">
        <ele>206.60000610352</ele>
        <time>2022-01-21T05:26:32.000Z</time>
      </trkpt>
      <trkpt lat="45.19525" lon="5.73509">
        <ele>206.60000610352</ele>
        <time>2022-01-21T05:26:38.000Z</time>
      </trkpt>
      <trkpt lat="45.19512" lon="5.73512">
        <ele>206.39999389648</ele>
        <time>2022-01-21T05:26:44.000Z</time>
      </trkpt>
      <trkpt lat="45.1951" lon="5.73513">
        <ele>206.60000610352</ele>
        <time>2022-01-21T05:26:45.000Z</time>
      </trkpt>
      <trkpt lat="45.19496" lon="5.73519">
        <ele>206.60000610352</ele>
        <time>2022-01-21T05:26:51.000Z</time>
      </trkpt>
      <trkpt lat="45.19494" lon="5.7352">
        <ele>206.60000610352</ele>
        <time>2022-01-21T05:26:52.000Z</time>
      </trkpt>
      <trkpt lat="45.19479" lon="5.73528">
        <ele>207</ele>
        <time>2022-01-21T05:26:58.000Z</time>
      </trkpt>
      <trkpt lat="45.19474" lon="5.73531">
        <ele>207</ele>
        <time>2022-01-21T05:27:00.000Z</time>
      </trkpt>
      <trkpt lat="45.19463" lon="5.73539">
        <ele>207.19999694824</ele>
        <time>2022-01-21T05:27:06.000Z</time>
      </trkpt>
      <trkpt lat="45.1946" lon="5.7354">
        <ele>207.19999694824</ele>
        <time>2022-01-21T05:27:07.000Z</time>
      </trkpt>
      <trkpt lat="45.19452" lon="5.73551">
        <ele>207.19999694824</ele>
        <time>2022-01-21T05:27:11.000Z</time>
      </trkpt>
      <trkpt lat="45.1945" lon="5.73552">
        <ele>207.19999694824</ele>
        <time>2022-01-21T05:27:12.000Z</time>
      </trkpt>
      <trkpt lat="45.19448" lon="5.73554">
        <ele>207.60000610352</ele>
        <time>2022-01-21T05:27:13.000Z</time>
      </trkpt>
      <trkpt lat="45.19435" lon="5.73559">
        <ele>207.60000610352</ele>
        <time>2022-01-21T05:27:19.000Z</time>
      </trkpt>
      <trkpt lat="45.19428" lon="5.73562">
        <ele>207.60000610352</ele>
        <time>2022-01-21T05:27:22.000Z</time>
      </trkpt>
      <trkpt lat="45.19416" lon="5.73564">
        <ele>208</ele>
        <time>2022-01-21T05:27:26.000Z</time>
      </trkpt>
      <trkpt lat="45.19411" lon="5.73564">
        <ele>208</ele>
        <time>2022-01-21T05:27:28.000Z</time>
      </trkpt>
      <trkpt lat="45.19401" lon="5.73582">
        <ele>208</ele>
        <time>2022-01-21T05:27:33.000Z</time>
      </trkpt>
      <trkpt lat="45.19395" lon="5.736">
        <ele>208</ele>
        <time>2022-01-21T05:27:37.000Z</time>
      </trkpt>
      <trkpt lat="45.1939" lon="5.73615">
        <ele>208.19999694824</ele>
        <time>2022-01-21T05:27:42.000Z</time>
      </trkpt>
      <trkpt lat="45.19389" lon="5.73621">
        <ele>208.19999694824</ele>
        <time>2022-01-21T05:27:44.000Z</time>
      </trkpt>
      <trkpt lat="45.19393" lon="5.73627">
        <ele>207.80000305176</ele>
        <time>2022-01-21T05:27:46.000Z</time>
      </trkpt>
      <trkpt lat="45.19404" lon="5.73643">
        <ele>207.60000610352</ele>
        <time>2022-01-21T05:27:52.000Z</time>
      </trkpt>
      <trkpt lat="45.19406" lon="5.73648">
        <ele>207.80000305176</ele>
        <time>2022-01-21T05:27:54.000Z</time>
      </trkpt>
      <trkpt lat="45.1941" lon="5.7365">
        <ele>208</ele>
        <time>2022-01-21T05:27:56.000Z</time>
      </trkpt>
      <trkpt lat="45.19418" lon="5.73654">
        <ele>208</ele>
        <time>2022-01-21T05:27:59.000Z</time>
      </trkpt>
      <trkpt lat="45.19435" lon="5.73659">
        <ele>207.39999389648</ele>
        <time>2022-01-21T05:28:05.000Z</time>
      </trkpt>
      <trkpt lat="45.19443" lon="5.73665">
        <ele>207.39999389648</ele>
        <time>2022-01-21T05:28:08.000Z</time>
      </trkpt>
      <trkpt lat="45.19459" lon="5.7368">
        <ele>207.19999694824</ele>
        <time>2022-01-21T05:28:14.000Z</time>
      </trkpt>
      <trkpt lat="45.19463" lon="5.73686">
        <ele>207.19999694824</ele>
        <time>2022-01-21T05:28:16.000Z</time>
      </trkpt>
      <trkpt lat="45.19468" lon="5.73697">
        <ele>207</ele>
        <time>2022-01-21T05:28:18.000Z</time>
      </trkpt>
      <trkpt lat="45.19468" lon="5.73701">
        <ele>207.19999694824</ele>
        <time>2022-01-21T05:28:19.000Z</time>
      </trkpt>
      <trkpt lat="45.19463" lon="5.73722">
        <ele>207</ele>
        <time>2022-01-21T05:28:24.000Z</time>
      </trkpt>
      <trkpt lat="45.19455" lon="5.73745">
        <ele>207</ele>
        <time>2022-01-21T05:28:30.000Z</time>
      </trkpt>
      <trkpt lat="45.19449" lon="5.73755">
        <ele>207</ele>
        <time>2022-01-21T05:28:33.000Z</time>
      </trkpt>
      <trkpt lat="45.19433" lon="5.73766">
        <ele>206.80000305176</ele>
        <time>2022-01-21T05:28:38.000Z</time>
      </trkpt>
      <trkpt lat="45.19416" lon="5.73766">
        <ele>206.80000305176</ele>
        <time>2022-01-21T05:28:44.000Z</time>
      </trkpt>
      <trkpt lat="45.19399" lon="5.73758">
        <ele>206.80000305176</ele>
        <time>2022-01-21T05:28:50.000Z</time>
      </trkpt>
      <trkpt lat="45.19395" lon="5.73755">
        <ele>206.80000305176</ele>
        <time>2022-01-21T05:28:52.000Z</time>
      </trkpt>
      <trkpt lat="45.19387" lon="5.7375">
        <ele>206.80000305176</ele>
        <time>2022-01-21T05:28:55.000Z</time>
      </trkpt>
      <trkpt lat="45.19381" lon="5.73747">
        <ele>206.80000305176</ele>
        <time>2022-01-21T05:28:57.000Z</time>
      </trkpt>
      <trkpt lat="45.19369" lon="5.73739">
        <ele>206.80000305176</ele>
        <time>2022-01-21T05:29:02.000Z</time>
      </trkpt>
      <trkpt lat="45.1936" lon="5.73743">
        <ele>206.80000305176</ele>
        <time>2022-01-21T05:29:06.000Z</time>
      </trkpt>
      <trkpt lat="45.19347" lon="5.73746">
        <ele>206.60000610352</ele>
        <time>2022-01-21T05:29:12.000Z</time>
      </trkpt>
      <trkpt lat="45.19335" lon="5.73747">
        <ele>207</ele>
        <time>2022-01-21T05:29:18.000Z</time>
      </trkpt>
      <trkpt lat="45.19329" lon="5.73749">
        <ele>207</ele>
        <time>2022-01-21T05:29:20.000Z</time>
      </trkpt>
      <trkpt lat="45.19327" lon="5.7375">
        <ele>207</ele>
        <time>2022-01-21T05:29:21.000Z</time>
      </trkpt>
      <trkpt lat="45.19314" lon="5.73761">
        <ele>207</ele>
        <time>2022-01-21T05:29:26.000Z</time>
      </trkpt>
      <trkpt lat="45.19302" lon="5.73775">
        <ele>206.80000305176</ele>
        <time>2022-01-21T05:29:32.000Z</time>
      </trkpt>
      <trkpt lat="45.19297" lon="5.73782">
        <ele>207.19999694824</ele>
        <time>2022-01-21T05:29:35.000Z</time>
      </trkpt>
      <trkpt lat="45.19287" lon="5.73797">
        <ele>207.39999389648</ele>
        <time>2022-01-21T05:29:41.000Z</time>
      </trkpt>
      <trkpt lat="45.19273" lon="5.7381">
        <ele>207.39999389648</ele>
        <time>2022-01-21T05:29:47.000Z</time>
      </trkpt>
      <trkpt lat="45.19258" lon="5.7382">
        <ele>207.39999389648</ele>
        <time>2022-01-21T05:29:53.000Z</time>
      </trkpt>
      <trkpt lat="45.19244" lon="5.73833">
        <ele>207.39999389648</ele>
        <time>2022-01-21T05:29:59.000Z</time>
      </trkpt>
      <trkpt lat="45.19236" lon="5.73843">
        <ele>207.60000610352</ele>
        <time>2022-01-21T05:30:03.000Z</time>
      </trkpt>
      <trkpt lat="45.19236" lon="5.73846">
        <ele>207.60000610352</ele>
        <time>2022-01-21T05:30:04.000Z</time>
      </trkpt>
      <trkpt lat="45.19237" lon="5.73848">
        <ele>207.60000610352</ele>
        <time>2022-01-21T05:30:05.000Z</time>
      </trkpt>
      <trkpt lat="45.19237" lon="5.73862">
        <ele>207.39999389648</ele>
        <time>2022-01-21T05:30:09.000Z</time>
      </trkpt>
      <trkpt lat="45.19241" lon="5.73885">
        <ele>207.39999389648</ele>
        <time>2022-01-21T05:30:15.000Z</time>
      </trkpt>
      <trkpt lat="45.1924" lon="5.73894">
        <ele>207.39999389648</ele>
        <time>2022-01-21T05:30:17.000Z</time>
      </trkpt>
      <trkpt lat="45.19238" lon="5.73919">
        <ele>207.39999389648</ele>
        <time>2022-01-21T05:30:23.000Z</time>
      </trkpt>
      <trkpt lat="45.19236" lon="5.73932">
        <ele>207.19999694824</ele>
        <time>2022-01-21T05:30:26.000Z</time>
      </trkpt>
      <trkpt lat="45.19226" lon="5.73946">
        <ele>207.39999389648</ele>
        <time>2022-01-21T05:30:32.000Z</time>
      </trkpt>
      <trkpt lat="45.19214" lon="5.73948">
        <ele>207.60000610352</ele>
        <time>2022-01-21T05:30:36.000Z</time>
      </trkpt>
      <trkpt lat="45.19197" lon="5.73949">
        <ele>207.80000305176</ele>
        <time>2022-01-21T05:30:42.000Z</time>
      </trkpt>
      <trkpt lat="45.19195" lon="5.73949">
        <ele>208.19999694824</ele>
        <time>2022-01-21T05:30:43.000Z</time>
      </trkpt>
      <trkpt lat="45.19178" lon="5.73941">
        <ele>208.39999389648</ele>
        <time>2022-01-21T05:30:48.000Z</time>
      </trkpt>
      <trkpt lat="45.19172" lon="5.73939">
        <ele>208.39999389648</ele>
        <time>2022-01-21T05:30:50.000Z</time>
      </trkpt>
      <trkpt lat="45.19157" lon="5.73946">
        <ele>208.60000610352</ele>
        <time>2022-01-21T05:30:56.000Z</time>
      </trkpt>
      <trkpt lat="45.19155" lon="5.73948">
        <ele>208.80000305176</ele>
        <time>2022-01-21T05:30:58.000Z</time>
      </trkpt>
      <trkpt lat="45.19154" lon="5.7395">
        <ele>208.80000305176</ele>
        <time>2022-01-21T05:30:59.000Z</time>
      </trkpt>
      <trkpt lat="45.19148" lon="5.7396">
        <ele>208.80000305176</ele>
        <time>2022-01-21T05:31:05.000Z</time>
      </trkpt>
      <trkpt lat="45.1915" lon="5.73962">
        <ele>208.80000305176</ele>
        <time>2022-01-21T05:31:06.000Z</time>
      </trkpt>
      <trkpt lat="45.19157" lon="5.7397">
        <ele>208.80000305176</ele>
        <time>2022-01-21T05:31:09.000Z</time>
      </trkpt>
      <trkpt lat="45.19161" lon="5.73993">
        <ele>209.19999694824</ele>
        <time>2022-01-21T05:31:15.000Z</time>
      </trkpt>
      <trkpt lat="45.19162" lon="5.73999">
        <ele>209.19999694824</ele>
        <time>2022-01-21T05:31:17.000Z</time>
      </trkpt>
      <trkpt lat="45.19166" lon="5.74021">
        <ele>209.19999694824</ele>
        <time>2022-01-21T05:31:23.000Z</time>
      </trkpt>
      <trkpt lat="45.19166" lon="5.74025">
        <ele>209.39999389648</ele>
        <time>2022-01-21T05:31:24.000Z</time>
      </trkpt>
      <trkpt lat="45.19166" lon="5.74035">
        <ele>209.60000610352</ele>
        <time>2022-01-21T05:31:27.000Z</time>
      </trkpt>
      <trkpt lat="45.19169" lon="5.74052">
        <ele>209.80000305176</ele>
        <time>2022-01-21T05:31:31.000Z</time>
      </trkpt>
      <trkpt lat="45.1917" lon="5.74074">
        <ele>210.19999694824</ele>
        <time>2022-01-21T05:31:37.000Z</time>
      </trkpt>
      <trkpt lat="45.19168" lon="5.74084">
        <ele>210.80000305176</ele>
        <time>2022-01-21T05:31:40.000Z</time>
      </trkpt>
      <trkpt lat="45.19167" lon="5.74101">
        <ele>210.80000305176</ele>
        <time>2022-01-21T05:31:45.000Z</time>
      </trkpt>
      <trkpt lat="45.19154" lon="5.7412">
        <ele>210.80000305176</ele>
        <time>2022-01-21T05:31:51.000Z</time>
      </trkpt>
      <trkpt lat="45.19152" lon="5.74125">
        <ele>210.19999694824</ele>
        <time>2022-01-21T05:31:53.000Z</time>
      </trkpt>
      <trkpt lat="45.19144" lon="5.74139">
        <ele>209.80000305176</ele>
        <time>2022-01-21T05:31:59.000Z</time>
      </trkpt>
      <trkpt lat="45.19145" lon="5.7414">
        <ele>209.39999389648</ele>
        <time>2022-01-21T05:32:00.000Z</time>
      </trkpt>
      <trkpt lat="45.19146" lon="5.74141">
        <ele>209.39999389648</ele>
        <time>2022-01-21T05:32:01.000Z</time>
      </trkpt>
      <trkpt lat="45.1915" lon="5.74139">
        <ele>208.80000305176</ele>
        <time>2022-01-21T05:32:04.000Z</time>
      </trkpt>
      <trkpt lat="45.19156" lon="5.74136">
        <ele>208.19999694824</ele>
        <time>2022-01-21T05:32:08.000Z</time>
      </trkpt>
      <trkpt lat="45.19158" lon="5.74136">
        <ele>208.19999694824</ele>
        <time>2022-01-21T05:32:09.000Z</time>
      </trkpt>
      <trkpt lat="45.19173" lon="5.74129">
        <ele>208.80000305176</ele>
        <time>2022-01-21T05:32:15.000Z</time>
      </trkpt>
      <trkpt lat="45.1918" lon="5.74127">
        <ele>209.19999694824</ele>
        <time>2022-01-21T05:32:18.000Z</time>
      </trkpt>
      <trkpt lat="45.19188" lon="5.74127">
        <ele>209.60000610352</ele>
        <time>2022-01-21T05:32:21.000Z</time>
      </trkpt>
      <trkpt lat="45.19203" lon="5.74126">
        <ele>210.60000610352</ele>
        <time>2022-01-21T05:32:27.000Z</time>
      </trkpt>
      <trkpt lat="45.19206" lon="5.74127">
        <ele>210.60000610352</ele>
        <time>2022-01-21T05:32:28.000Z</time>
      </trkpt>
      <trkpt lat="45.19211" lon="5.74128">
        <ele>210.60000610352</ele>
        <time>2022-01-21T05:32:30.000Z</time>
      </trkpt>
      <trkpt lat="45.19215" lon="5.74133">
        <ele>211</ele>
        <time>2022-01-21T05:32:33.000Z</time>
      </trkpt>
      <trkpt lat="45.19233" lon="5.74132">
        <ele>210.60000610352</ele>
        <time>2022-01-21T05:32:39.000Z</time>
      </trkpt>
      <trkpt lat="45.19249" lon="5.74135">
        <ele>210.60000610352</ele>
        <time>2022-01-21T05:32:45.000Z</time>
      </trkpt>
      <trkpt lat="45.19251" lon="5.74135">
        <ele>210.60000610352</ele>
        <time>2022-01-21T05:32:46.000Z</time>
      </trkpt>
      <trkpt lat="45.19268" lon="5.74138">
        <ele>210.80000305176</ele>
        <time>2022-01-21T05:32:52.000Z</time>
      </trkpt>
      <trkpt lat="45.19276" lon="5.74139">
        <ele>211</ele>
        <time>2022-01-21T05:32:55.000Z</time>
      </trkpt>
      <trkpt lat="45.19279" lon="5.7414">
        <ele>211.19999694824</ele>
        <time>2022-01-21T05:32:56.000Z</time>
      </trkpt>
      <trkpt lat="45.19295" lon="5.74144">
        <ele>211.19999694824</ele>
        <time>2022-01-21T05:33:02.000Z</time>
      </trkpt>
      <trkpt lat="45.19298" lon="5.74144">
        <ele>211</ele>
        <time>2022-01-21T05:33:03.000Z</time>
      </trkpt>
      <trkpt lat="45.19314" lon="5.7415">
        <ele>211.19999694824</ele>
        <time>2022-01-21T05:33:09.000Z</time>
      </trkpt>
      <trkpt lat="45.19317" lon="5.7415">
        <ele>211.19999694824</ele>
        <time>2022-01-21T05:33:10.000Z</time>
      </trkpt>
      <trkpt lat="45.19334" lon="5.74154">
        <ele>211.39999389648</ele>
        <time>2022-01-21T05:33:16.000Z</time>
      </trkpt>
      <trkpt lat="45.19339" lon="5.74156">
        <ele>211.19999694824</ele>
        <time>2022-01-21T05:33:18.000Z</time>
      </trkpt>
      <trkpt lat="45.19356" lon="5.74158">
        <ele>211.19999694824</ele>
        <time>2022-01-21T05:33:24.000Z</time>
      </trkpt>
      <trkpt lat="45.19368" lon="5.74159">
        <ele>211.39999389648</ele>
        <time>2022-01-21T05:33:28.000Z</time>
      </trkpt>
      <trkpt lat="45.19385" lon="5.74161">
        <ele>211.39999389648</ele>
        <time>2022-01-21T05:33:34.000Z</time>
      </trkpt>
      <trkpt lat="45.19399" lon="5.74164">
        <ele>211.19999694824</ele>
        <time>2022-01-21T05:33:39.000Z</time>
      </trkpt>
      <trkpt lat="45.19407" lon="5.74168">
        <ele>211.19999694824</ele>
        <time>2022-01-21T05:33:42.000Z</time>
      </trkpt>
      <trkpt lat="45.19422" lon="5.74173">
        <ele>211</ele>
        <time>2022-01-21T05:33:48.000Z</time>
      </trkpt>
      <trkpt lat="45.19428" lon="5.74176">
        <ele>211.19999694824</ele>
        <time>2022-01-21T05:33:50.000Z</time>
      </trkpt>
      <trkpt lat="45.19443" lon="5.74179">
        <ele>211.19999694824</ele>
        <time>2022-01-21T05:33:56.000Z</time>
      </trkpt>
      <trkpt lat="45.19456" lon="5.74183">
        <ele>211.39999389648</ele>
        <time>2022-01-21T05:34:01.000Z</time>
      </trkpt>
      <trkpt lat="45.19472" lon="5.74188">
        <ele>211.19999694824</ele>
        <time>2022-01-21T05:34:07.000Z</time>
      </trkpt>
      <trkpt lat="45.19474" lon="5.74189">
        <ele>211.19999694824</ele>
        <time>2022-01-21T05:34:08.000Z</time>
      </trkpt>
      <trkpt lat="45.19489" lon="5.74196">
        <ele>211</ele>
        <time>2022-01-21T05:34:14.000Z</time>
      </trkpt>
      <trkpt lat="45.19494" lon="5.742">
        <ele>210.80000305176</ele>
        <time>2022-01-21T05:34:16.000Z</time>
      </trkpt>
      <trkpt lat="45.19511" lon="5.74208">
        <ele>210.39999389648</ele>
        <time>2022-01-21T05:34:22.000Z</time>
      </trkpt>
      <trkpt lat="45.19514" lon="5.7421">
        <ele>210.39999389648</ele>
        <time>2022-01-21T05:34:23.000Z</time>
      </trkpt>
      <trkpt lat="45.1953" lon="5.74217">
        <ele>210.19999694824</ele>
        <time>2022-01-21T05:34:29.000Z</time>
      </trkpt>
      <trkpt lat="45.19535" lon="5.74218">
        <ele>210</ele>
        <time>2022-01-21T05:34:31.000Z</time>
      </trkpt>
      <trkpt lat="45.19551" lon="5.74222">
        <ele>210</ele>
        <time>2022-01-21T05:34:37.000Z</time>
      </trkpt>
      <trkpt lat="45.19557" lon="5.74223">
        <ele>210</ele>
        <time>2022-01-21T05:34:39.000Z</time>
      </trkpt>
      <trkpt lat="45.19573" lon="5.74228">
        <ele>210</ele>
        <time>2022-01-21T05:34:45.000Z</time>
      </trkpt>
      <trkpt lat="45.19578" lon="5.74229">
        <ele>210</ele>
        <time>2022-01-21T05:34:47.000Z</time>
      </trkpt>
      <trkpt lat="45.19594" lon="5.7423">
        <ele>210.19999694824</ele>
        <time>2022-01-21T05:34:53.000Z</time>
      </trkpt>
      <trkpt lat="45.19597" lon="5.74231">
        <ele>210</ele>
        <time>2022-01-21T05:34:54.000Z</time>
      </trkpt>
      <trkpt lat="45.19612" lon="5.74236">
        <ele>210.19999694824</ele>
        <time>2022-01-21T05:35:00.000Z</time>
      </trkpt>
      <trkpt lat="45.19618" lon="5.74236">
        <ele>210.19999694824</ele>
        <time>2022-01-21T05:35:02.000Z</time>
      </trkpt>
      <trkpt lat="45.19634" lon="5.7424">
        <ele>209.80000305176</ele>
        <time>2022-01-21T05:35:08.000Z</time>
      </trkpt>
      <trkpt lat="45.19637" lon="5.7424">
        <ele>209.80000305176</ele>
        <time>2022-01-21T05:35:09.000Z</time>
      </trkpt>
      <trkpt lat="45.19653" lon="5.7424">
        <ele>210</ele>
        <time>2022-01-21T05:35:15.000Z</time>
      </trkpt>
      <trkpt lat="45.19655" lon="5.74241">
        <ele>210</ele>
        <time>2022-01-21T05:35:16.000Z</time>
      </trkpt>
      <trkpt lat="45.19671" lon="5.74243">
        <ele>210</ele>
        <time>2022-01-21T05:35:22.000Z</time>
      </trkpt>
      <trkpt lat="45.19676" lon="5.74244">
        <ele>210</ele>
        <time>2022-01-21T05:35:24.000Z</time>
      </trkpt>
      <trkpt lat="45.19692" lon="5.74244">
        <ele>210</ele>
        <time>2022-01-21T05:35:30.000Z</time>
      </trkpt>
      <trkpt lat="45.19695" lon="5.74244">
        <ele>209.80000305176</ele>
        <time>2022-01-21T05:35:31.000Z</time>
      </trkpt>
      <trkpt lat="45.1971" lon="5.74244">
        <ele>209.80000305176</ele>
        <time>2022-01-21T05:35:37.000Z</time>
      </trkpt>
      <trkpt lat="45.19713" lon="5.74243">
        <ele>210</ele>
        <time>2022-01-21T05:35:38.000Z</time>
      </trkpt>
      <trkpt lat="45.19728" lon="5.74241">
        <ele>209.80000305176</ele>
        <time>2022-01-21T05:35:44.000Z</time>
      </trkpt>
      <trkpt lat="45.1973" lon="5.7424">
        <ele>209.80000305176</ele>
        <time>2022-01-21T05:35:46.000Z</time>
      </trkpt>
      <trkpt lat="45.1973" lon="5.74239">
        <ele>209.60000610352</ele>
        <time>2022-01-21T05:35:47.000Z</time>
      </trkpt>
      <trkpt lat="45.1973" lon="5.74239">
        <ele>209.39999389648</ele>
        <time>2022-01-21T05:35:48.000Z</time>
      </trkpt>
      <trkpt lat="45.19729" lon="5.74237">
        <ele>208.60000610352</ele>
        <time>2022-01-21T05:35:51.000Z</time>
      </trkpt>
      <trkpt lat="45.19728" lon="5.74234">
        <ele>208.19999694824</ele>
        <time>2022-01-21T05:35:52.000Z</time>
      </trkpt>
      <trkpt lat="45.19722" lon="5.74215">
        <ele>208.39999389648</ele>
        <time>2022-01-21T05:35:58.000Z</time>
      </trkpt>
      <trkpt lat="45.19719" lon="5.74194">
        <ele>207.80000305176</ele>
        <time>2022-01-21T05:36:04.000Z</time>
      </trkpt>
      <trkpt lat="45.19717" lon="5.74191">
        <ele>207.80000305176</ele>
        <time>2022-01-21T05:36:05.000Z</time>
      </trkpt>
      <trkpt lat="45.19713" lon="5.7417">
        <ele>208.19999694824</ele>
        <time>2022-01-21T05:36:11.000Z</time>
      </trkpt>
      <trkpt lat="45.19707" lon="5.7415">
        <ele>208</ele>
        <time>2022-01-21T05:36:17.000Z</time>
      </trkpt>
      <trkpt lat="45.19706" lon="5.74147">
        <ele>208.19999694824</ele>
        <time>2022-01-21T05:36:18.000Z</time>
      </trkpt>
      <trkpt lat="45.19702" lon="5.74128">
        <ele>208.19999694824</ele>
        <time>2022-01-21T05:36:24.000Z</time>
      </trkpt>
      <trkpt lat="45.19701" lon="5.74121">
        <ele>208.19999694824</ele>
        <time>2022-01-21T05:36:26.000Z</time>
      </trkpt>
      <trkpt lat="45.19698" lon="5.74101">
        <ele>208.19999694824</ele>
        <time>2022-01-21T05:36:32.000Z</time>
      </trkpt>
      <trkpt lat="45.19695" lon="5.74085">
        <ele>208</ele>
        <time>2022-01-21T05:36:36.000Z</time>
      </trkpt>
      <trkpt lat="45.1969" lon="5.74065">
        <ele>208</ele>
        <time>2022-01-21T05:36:42.000Z</time>
      </trkpt>
      <trkpt lat="45.19684" lon="5.74048">
        <ele>208.19999694824</ele>
        <time>2022-01-21T05:36:48.000Z</time>
      </trkpt>
      <trkpt lat="45.19682" lon="5.74033">
        <ele>208.39999389648</ele>
        <time>2022-01-21T05:36:52.000Z</time>
      </trkpt>
      <trkpt lat="45.19681" lon="5.74023">
        <ele>208</ele>
        <time>2022-01-21T05:36:55.000Z</time>
      </trkpt>
      <trkpt lat="45.19679" lon="5.74017">
        <ele>207.80000305176</ele>
        <time>2022-01-21T05:36:57.000Z</time>
      </trkpt>
      <trkpt lat="45.19675" lon="5.74013">
        <ele>207.60000610352</ele>
        <time>2022-01-21T05:37:00.000Z</time>
      </trkpt>
      <trkpt lat="45.19662" lon="5.74009">
        <ele>207.39999389648</ele>
        <time>2022-01-21T05:37:06.000Z</time>
      </trkpt>
      <trkpt lat="45.19658" lon="5.74009">
        <ele>207.39999389648</ele>
        <time>2022-01-21T05:37:08.000Z</time>
      </trkpt>
      <trkpt lat="45.19645" lon="5.74007">
        <ele>208</ele>
        <time>2022-01-21T05:37:14.000Z</time>
      </trkpt>
      <trkpt lat="45.1964" lon="5.74006">
        <ele>208</ele>
        <time>2022-01-21T05:37:16.000Z</time>
      </trkpt>
      <trkpt lat="45.19623" lon="5.74004">
        <ele>207.60000610352</ele>
        <time>2022-01-21T05:37:22.000Z</time>
      </trkpt>
      <trkpt lat="45.1962" lon="5.74004">
        <ele>207.80000305176</ele>
        <time>2022-01-21T05:37:23.000Z</time>
      </trkpt>
      <trkpt lat="45.19614" lon="5.73999">
        <ele>207.80000305176</ele>
        <time>2022-01-21T05:37:26.000Z</time>
      </trkpt>
      <trkpt lat="45.19614" lon="5.73993">
        <ele>207.80000305176</ele>
        <time>2022-01-21T05:37:28.000Z</time>
      </trkpt>
      <trkpt lat="45.19615" lon="5.7398">
        <ele>207.80000305176</ele>
        <time>2022-01-21T05:37:31.000Z</time>
      </trkpt>
      <trkpt lat="45.19618" lon="5.73976">
        <ele>207.80000305176</ele>
        <time>2022-01-21T05:37:33.000Z</time>
      </trkpt>
      <trkpt lat="45.19627" lon="5.73969">
        <ele>207.80000305176</ele>
        <time>2022-01-21T05:37:38.000Z</time>
      </trkpt>
      <trkpt lat="45.19636" lon="5.7397">
        <ele>207.80000305176</ele>
        <time>2022-01-21T05:37:44.000Z</time>
      </trkpt>
      <trkpt lat="45.19639" lon="5.7397">
        <ele>207.80000305176</ele>
        <time>2022-01-21T05:37:46.000Z</time>
      </trkpt>
      <trkpt lat="45.19639" lon="5.73971">
        <ele>207.80000305176</ele>
        <time>2022-01-21T05:37:48.000Z</time>
      </trkpt>
      <trkpt lat="45.19639" lon="5.73972">
        <ele>207.80000305176</ele>
        <time>2022-01-21T05:37:49.000Z</time>
      </trkpt>
      <trkpt lat="45.1965" lon="5.73978">
        <ele>210.80000305176</ele>
        <time>2022-01-21T05:38:08.000Z</time>
      </trkpt>
      <trkpt lat="45.19646" lon="5.73978">
        <ele>210.80000305176</ele>
        <time>2022-01-21T05:38:09.000Z</time>
      </trkpt>
      <trkpt lat="45.19642" lon="5.73978">
        <ele>211.19999694824</ele>
        <time>2022-01-21T05:38:10.000Z</time>
      </trkpt>
      <trkpt lat="45.19644" lon="5.73979">
        <ele>211.39999389648</ele>
        <time>2022-01-21T05:38:11.000Z</time>
      </trkpt>
      <trkpt lat="45.19646" lon="5.73979">
        <ele>211.60000610352</ele>
        <time>2022-01-21T05:38:12.000Z</time>
      </trkpt>
      <trkpt lat="45.19647" lon="5.73979">
        <ele>212.60000610352</ele>
        <time>2022-01-21T05:38:14.000Z</time>
      </trkpt>
      <trkpt lat="45.19645" lon="5.7398">
        <ele>213</ele>
        <time>2022-01-21T05:38:15.000Z</time>
      </trkpt>
      <trkpt lat="45.19642" lon="5.73979">
        <ele>213.19999694824</ele>
        <time>2022-01-21T05:38:16.000Z</time>
      </trkpt>
      <trkpt lat="45.19639" lon="5.73982">
        <ele>213.60000610352</ele>
        <time>2022-01-21T05:38:20.000Z</time>
      </trkpt>
      <trkpt lat="45.1964" lon="5.73983">
        <ele>214.19999694824</ele>
        <time>2022-01-21T05:38:22.000Z</time>
      </trkpt>
      <trkpt lat="45.19643" lon="5.73981">
        <ele>215.39999389648</ele>
        <time>2022-01-21T05:38:25.000Z</time>
      </trkpt>
      <trkpt lat="45.19643" lon="5.73981">
        <ele>216</ele>
        <time>2022-01-21T05:38:28.000Z</time>
      </trkpt>
      <trkpt lat="45.19643" lon="5.73979">
        <ele>216</ele>
        <time>2022-01-21T05:38:29.000Z</time>
      </trkpt>
      <trkpt lat="45.19642" lon="5.73978">
        <ele>216.19999694824</ele>
        <time>2022-01-21T05:38:30.000Z</time>
      </trkpt>
      <trkpt lat="45.19641" lon="5.73975">
        <ele>216.19999694824</ele>
        <time>2022-01-21T05:38:32.000Z</time>
      </trkpt>
      <trkpt lat="45.19643" lon="5.73976">
        <ele>216.19999694824</ele>
        <time>2022-01-21T05:38:36.000Z</time>
      </trkpt>
      <trkpt lat="45.19645" lon="5.73974">
        <ele>215.80000305176</ele>
        <time>2022-01-21T05:38:40.000Z</time>
      </trkpt>
    </trkseg>
  </trk>
</gpx>